[[{"header":{"parameterUnit":"m.s-1","parameterCategory":1,"la1":30.6,"la2":29.2853,"lo1":-89.7004,"lo2":-87.6739,"dx":0.0162,"dy":0.0183,"nx":112,"ny":82,"refTime":"2023-01-31T06:00:00:Z","depth":0,"parameterNumber":2,"parameterNumberName":"U-component_of_WINDS"},"data":[0.0,0.0,0.0,0.0,0.0,0.0,0.0,0.0,0.0,0.0,0.0,0.0,0.0,0.0,0.0,0.0,0.0,0.0,0.0,0.0,0.0,0.0,0.0,0.0,0.0,0.0,0.0,0.0,0.0,0.0,0.0,0.0,0.0,0.0,0.0,0.0,0.0,0.0,0.0,0.0,0.0,0.0,0.0,0.0,0.0,0.0,0.0,0.0,0.0,0.0,0.0,0.0,0.0,0.0,0.0,0.0,0.0,0.0,0.0,0.0,0.0,0.0,0.0,0.0,0.0,0.0,0.0,0.0,0.0,0.0,0.0,0.0,0.0,0.0,0.0,0.0,0.0,0.0,0.0,0.0,0.0,0.0,0.0,0.0,0.0,0.0,0.0,0.0,0.0,0.0,0.0,3.0561,3.0622,3.069,3.069,3.069,3.069,3.069,0.0,0.0,0.0,0.0,0.0,0.0,0.0,0.0,0.0,0.0,0.0,0.0,0.0,0.0,0.0,0.0,0.0,0.0,0.0,0.0,0.0,0.0,0.0,0.0,0.0,0.0,0.0,0.0,0.0,0.0,0.0,0.0,0.0,0.0,0.0,0.0,0.0,0.0,0.0,0.0,0.0,0.0,0.0,0.0,0.0,0.0,0.0,0.0,0.0,0.0,0.0,0.0,0.0,0.0,0.0,0.0,0.0,0.0,0.0,0.0,0.0,0.0,0.0,0.0,0.0,0.0,0.0,0.0,0.0,0.0,0.0,0.0,0.0,0.0,0.0,0.0,0.0,0.0,0.0,0.0,0.0,0.0,0.0,0.0,0.0,0.0,0.0,0.0,0.0,0.0,0.0,0.0,0.0,0.0,0.0,0.0,0.0,0.0,0.0,0.0,0.0,0.0,0.0,0.0,3.0979,3.1132,3.163,3.1929,3.1929,3.1929,3.1929,3.1929,0.0,0.0,0.0,0.0,0.0,0.0,0.0,0.0,0.0,0.0,0.0,0.0,0.0,0.0,0.0,0.0,0.0,0.0,0.0,0.0,0.0,0.0,0.0,0.0,0.0,0.0,0.0,0.0,0.0,0.0,0.0,0.0,0.0,0.0,0.0,0.0,0.0,0.0,0.0,0.0,0.0,0.0,0.0,0.0,0.0,0.0,0.0,0.0,0.0,0.0,0.0,0.0,0.0,0.0,0.0,0.0,0.0,0.0,0.0,0.0,0.0,0.0,0.0,0.0,0.0,0.0,0.0,0.0,0.0,0.0,0.0,0.0,0.0,0.0,0.0,0.0,0.0,0.0,0.0,0.0,0.0,0.0,0.0,0.0,0.0,0.0,0.0,0.0,0.0,0.0,0.0,0.0,0.0,0.0,0.0,0.0,0.0,0.0,0.0,0.0,0.0,0.0,0.0,3.1802,3.1644,3.177,3.2037,3.22,3.22,3.2485,3.2694,3.2694,3.2698,0.0,0.0,0.0,0.0,0.0,0.0,0.0,0.0,0.0,0.0,0.0,0.0,0.0,0.0,0.0,0.0,0.0,0.0,0.0,0.0,0.0,0.0,0.0,0.0,0.0,0.0,0.0,0.0,0.0,0.0,0.0,0.0,0.0,0.0,0.0,0.0,0.0,0.0,0.0,0.0,0.0,0.0,0.0,0.0,0.0,0.0,0.0,0.0,0.0,0.0,0.0,0.0,0.0,0.0,0.0,0.0,0.0,0.0,0.0,0.0,0.0,0.0,0.0,0.0,0.0,0.0,0.0,0.0,0.0,0.0,0.0,0.0,0.0,0.0,0.0,0.0,0.0,0.0,0.0,0.0,0.0,0.0,0.0,0.0,0.0,0.0,0.0,0.0,0.0,0.0,0.0,0.0,0.0,0.0,0.0,0.0,0.0,0.0,0.0,0.0,0.0,0.0,3.2814,3.2589,3.2589,3.2589,3.2589,3.2589,3.3028,3.3286,3.3286,3.3683,0.0,0.0,0.0,0.0,0.0,0.0,0.0,0.0,0.0,0.0,0.0,0.0,0.0,0.0,0.0,0.0,0.0,0.0,0.0,0.0,0.0,0.0,0.0,0.0,0.0,0.0,0.0,0.0,0.0,0.0,0.0,0.0,0.0,0.0,0.0,0.0,0.0,0.0,0.0,0.0,0.0,0.0,0.0,0.0,0.0,0.0,0.0,0.0,0.0,0.0,0.0,0.0,0.0,0.0,0.0,0.0,0.0,0.0,0.0,0.0,0.0,0.0,0.0,0.0,0.0,0.0,0.0,0.0,0.0,0.0,0.0,0.0,0.0,0.0,0.0,0.0,0.0,0.0,0.0,0.0,0.0,0.0,0.0,0.0,0.0,0.0,0.0,0.0,0.0,0.0,0.0,0.0,0.0,0.0,0.0,0.0,0.0,0.0,0.0,0.0,0.0,0.0,3.4033,3.3786,3.3786,3.3786,3.3786,3.3786,3.3826,3.384,3.384,3.388,0.0,0.0,0.0,0.0,0.0,0.0,0.0,0.0,0.0,0.0,0.0,0.0,0.0,0.0,0.0,0.0,0.0,0.0,0.0,0.0,0.0,0.0,0.0,0.0,0.0,0.0,0.0,0.0,0.0,0.0,0.0,0.0,0.0,0.0,0.0,0.0,0.0,0.0,0.0,0.0,0.0,0.0,0.0,0.0,0.0,0.0,0.0,0.0,0.0,0.0,0.0,0.0,0.0,0.0,0.0,0.0,0.0,0.0,0.0,0.0,0.0,0.0,0.0,0.0,0.0,0.0,0.0,0.0,0.0,0.0,0.0,0.0,0.0,0.0,0.0,0.0,0.0,0.0,0.0,0.0,0.0,0.0,0.0,0.0,0.0,0.0,0.0,0.0,0.0,0.0,0.0,0.0,0.0,0.0,0.0,0.0,0.0,0.0,0.0,0.0,0.0,0.0,3.4175,3.3908,0.0,3.3908,3.3908,3.3908,3.4246,3.4463,3.4463,0.0,0.0,0.0,0.0,0.0,0.0,0.0,0.0,0.0,0.0,0.0,0.0,0.0,0.0,0.0,0.0,0.0,0.0,0.0,0.0,0.0,0.0,0.0,0.0,0.0,0.0,0.0,0.0,0.0,0.0,0.0,0.0,0.0,0.0,0.0,0.0,0.0,0.0,0.0,0.0,0.0,0.0,0.0,0.0,0.0,0.0,0.0,0.0,0.0,0.0,0.0,0.0,0.0,0.0,0.0,0.0,0.0,0.0,0.0,0.0,0.0,0.0,0.0,0.0,0.0,0.0,0.0,0.0,0.0,0.0,0.0,0.0,0.0,0.0,0.0,0.0,0.0,0.0,0.0,0.0,0.0,0.0,0.0,0.0,0.0,0.0,0.0,0.0,0.0,0.0,0.0,0.0,0.0,0.0,0.0,0.0,0.0,0.0,0.0,0.0,0.0,0.0,3.4953,3.4677,3.4463,0.0,3.4463,3.4463,3.4463,3.4843,3.5093,3.5093,0.0,0.0,0.0,0.0,0.0,0.0,0.0,0.0,0.0,0.0,0.0,0.0,0.0,0.0,0.0,0.0,0.0,0.0,0.0,0.0,0.0,0.0,0.0,0.0,0.0,0.0,0.0,0.0,0.0,0.0,0.0,0.0,0.0,0.0,0.0,0.0,0.0,0.0,0.0,0.0,0.0,0.0,0.0,0.0,0.0,0.0,0.0,0.0,0.0,0.0,0.0,0.0,0.0,0.0,0.0,0.0,0.0,0.0,0.0,0.0,0.0,0.0,0.0,0.0,0.0,0.0,0.0,0.0,0.0,0.0,0.0,0.0,0.0,0.0,0.0,0.0,0.0,0.0,0.0,0.0,0.0,0.0,0.0,0.0,0.0,0.0,0.0,0.0,0.0,0.0,0.0,0.0,0.0,0.0,0.0,0.0,0.0,0.0,0.0,0.0,0.0,0.0,3.5682,3.569,3.569,3.569,3.569,3.569,3.569,3.5703,3.5703,0.0,0.0,0.0,0.0,0.0,0.0,0.0,0.0,0.0,0.0,0.0,0.0,0.0,0.0,0.0,0.0,0.0,0.0,0.0,0.0,0.0,0.0,0.0,0.0,0.0,0.0,0.0,0.0,0.0,0.0,0.0,0.0,0.0,0.0,0.0,0.0,0.0,0.0,0.0,0.0,0.0,0.0,0.0,0.0,0.0,0.0,0.0,0.0,0.0,0.0,0.0,0.0,0.0,0.0,0.0,0.0,0.0,0.0,0.0,0.0,0.0,0.0,0.0,0.0,0.0,0.0,0.0,0.0,0.0,0.0,0.0,0.0,0.0,0.0,0.0,0.0,0.0,0.0,0.0,0.0,0.0,0.0,0.0,0.0,0.0,0.0,0.0,0.0,0.0,0.0,0.0,0.0,0.0,0.0,0.0,0.0,0.0,0.0,0.0,0.0,0.0,0.0,0.0,3.6145,3.5904,3.569,3.569,3.569,3.569,3.569,3.6103,3.6334,3.6334,0.0,0.0,0.0,0.0,0.0,0.0,0.0,0.0,0.0,0.0,0.0,0.0,0.0,0.0,0.0,0.0,0.0,0.0,0.0,0.0,0.0,0.0,0.0,0.0,0.0,0.0,0.0,0.0,0.0,0.0,0.0,0.0,0.0,0.0,0.0,0.0,0.0,0.0,0.0,0.0,0.0,0.0,0.0,0.0,0.0,0.0,0.0,0.0,0.0,0.0,0.0,0.0,0.0,0.0,0.0,0.0,0.0,0.0,0.0,0.0,0.0,0.0,0.0,0.0,0.0,0.0,0.0,0.0,0.0,0.0,0.0,0.0,0.0,0.0,0.0,0.0,0.0,0.0,0.0,0.0,0.0,0.0,0.0,0.0,0.0,0.0,0.0,0.0,0.0,0.0,0.0,0.0,0.0,0.0,0.0,0.0,0.0,0.0,0.0,0.0,0.0,0.0,3.6797,3.66,3.6422,3.6422,3.6422,3.6422,3.6422,3.6747,3.6951,3.6951,0.0,0.0,0.0,0.0,0.0,0.0,0.0,0.0,0.0,0.0,0.0,0.0,0.0,0.0,0.0,0.0,0.0,0.0,0.0,0.0,0.0,0.0,0.0,0.0,0.0,0.0,0.0,0.0,0.0,0.0,0.0,0.0,0.0,0.0,0.0,0.0,0.0,0.0,0.0,0.0,0.0,0.0,0.0,0.0,0.0,0.0,0.0,0.0,0.0,0.0,0.0,0.0,0.0,0.0,0.0,0.0,0.0,0.0,0.0,0.0,0.0,0.0,0.0,0.0,0.0,0.0,0.0,0.0,0.0,0.0,0.0,0.0,0.0,0.0,0.0,0.0,0.0,0.0,0.0,0.0,0.0,0.0,0.0,0.0,0.0,0.0,0.0,0.0,0.0,0.0,0.0,0.0,0.0,0.0,0.0,0.0,0.0,0.0,0.0,0.0,0.0,0.0,3.7481,3.7485,3.7485,3.7485,3.7485,3.7485,3.7485,3.754,3.7567,3.7567,0.0,0.0,0.0,0.0,0.0,0.0,0.0,0.0,0.0,0.0,0.0,0.0,0.0,0.0,0.0,0.0,0.0,0.0,0.0,0.0,0.0,0.0,0.0,0.0,0.0,0.0,0.0,0.0,0.0,0.0,0.0,0.0,0.0,0.0,0.0,0.0,0.0,0.0,0.0,0.0,0.0,0.0,0.0,0.0,0.0,0.0,0.0,0.0,0.0,0.0,0.0,0.0,0.0,0.0,0.0,0.0,0.0,0.0,0.0,0.0,3.4566,0.0,0.0,0.0,0.0,0.0,0.0,0.0,0.0,0.0,0.0,0.0,0.0,0.0,0.0,0.0,0.0,0.0,0.0,0.0,0.0,0.0,0.0,0.0,0.0,0.0,0.0,0.0,0.0,0.0,0.0,0.0,0.0,0.0,0.0,0.0,0.0,0.0,0.0,0.0,0.0,0.0,3.7493,3.7485,3.7485,3.7485,3.7485,3.7485,3.7485,3.794,3.8212,3.8212,0.0,0.0,0.0,0.0,0.0,0.0,0.0,0.0,0.0,0.0,0.0,0.0,0.0,0.0,0.0,0.0,0.0,0.0,0.0,0.0,0.0,0.0,0.0,0.0,0.0,0.0,0.0,0.0,0.0,0.0,0.0,0.0,0.0,0.0,0.0,0.0,0.0,0.0,0.0,0.0,0.0,0.0,0.0,0.0,0.0,0.0,0.0,0.0,0.0,0.0,0.0,0.0,0.0,0.0,0.0,0.0,0.0,0.0,0.0,0.0,0.0,3.5111,0.0,0.0,0.0,0.0,0.0,0.0,0.0,0.0,0.0,0.0,0.0,0.0,0.0,0.0,0.0,0.0,0.0,0.0,0.0,0.0,0.0,0.0,0.0,0.0,0.0,0.0,0.0,0.0,0.0,0.0,0.0,0.0,0.0,0.0,0.0,0.0,0.0,0.0,0.0,0.0,3.8334,3.8361,3.8361,3.8361,3.8361,3.8361,3.8361,3.8325,3.8469,3.8822,3.8456,0.0,0.0,0.0,0.0,0.0,0.0,0.0,0.0,0.0,0.0,0.0,0.0,0.0,0.0,0.0,0.0,0.0,0.0,0.0,0.0,0.0,0.0,0.0,0.0,0.0,0.0,0.0,0.0,0.0,0.0,0.0,0.0,0.0,0.0,0.0,0.0,0.0,0.0,0.0,0.0,0.0,0.0,0.0,0.0,0.0,0.0,0.0,0.0,0.0,0.0,0.0,0.0,0.0,0.0,0.0,3.6495,3.6481,3.655,3.669,3.7184,3.6742,3.5707,0.0,0.0,0.0,0.0,0.0,0.0,0.0,0.0,0.0,0.0,0.0,0.0,0.0,0.0,0.0,0.0,0.0,0.0,0.0,0.0,0.0,0.0,0.0,0.0,0.0,4.0117,4.0014,0.0,0.0,0.0,0.0,0.0,0.0,0.0,0.0,0.0,0.0,0.0,0.0,3.906,3.9203,3.9305,3.9305,3.9386,3.941,3.9253,3.8792,3.8686,3.9176,3.804,3.7645,0.0,0.0,0.0,0.0,0.0,0.0,0.0,0.0,0.0,0.0,0.0,0.0,0.0,0.0,0.0,0.0,0.0,0.0,0.0,0.0,0.0,0.0,0.0,0.0,0.0,0.0,0.0,0.0,0.0,0.0,0.0,0.0,3.5088,3.5081,0.0,0.0,0.0,0.0,0.0,0.0,0.0,0.0,0.0,0.0,0.0,0.0,0.0,0.0,3.5266,3.4783,3.4909,3.5616,3.5003,3.5907,3.8078,3.7499,3.7572,3.8127,3.8224,0.0,3.7119,3.7034,0.0,0.0,0.0,0.0,0.0,0.0,0.0,0.0,0.0,0.0,0.0,0.0,0.0,0.0,0.0,0.0,0.0,0.0,0.0,0.0,0.0,0.0,4.0104,4.0104,4.0225,4.0349,0.0,3.9859,3.9418,3.911,0.0,0.0,0.0,0.0,0.0,0.0,0.0,0.0,3.8427,3.889,3.9305,3.9305,3.9766,3.9792,3.9091,3.9437,3.942,3.8835,3.8617,3.8545,3.8642,3.7874,0.0,0.0,0.0,0.0,0.0,0.0,0.0,0.0,0.0,0.0,0.0,0.0,0.0,0.0,0.0,0.0,0.0,0.0,0.0,0.0,0.0,0.0,0.0,0.0,0.0,0.0,0.0,0.0,0.0,3.5222,3.5065,3.4994,3.4935,3.4899,0.0,0.0,0.0,0.0,0.0,0.0,0.0,0.0,0.0,3.4619,3.5279,3.5553,3.5363,3.5352,3.5891,3.6908,3.6382,3.6807,3.8065,3.7887,3.7694,3.7524,3.7899,3.7899,3.7597,3.7243,3.7192,3.7319,0.0,0.0,0.0,0.0,0.0,0.0,3.8115,0.0,0.0,0.0,0.0,0.0,0.0,0.0,0.0,0.0,0.0,0.0,0.0,0.0,0.0,4.0902,4.0912,4.0821,4.0301,3.9874,3.9599,0.0,3.9002,3.8662,3.9076,0.0,0.0,0.0,0.0,0.0,3.8519,3.8755,3.8966,3.8966,3.9189,3.9215,3.8871,3.8656,3.8578,3.8689,3.7891,3.7593,3.8026,3.7282,3.6918,0.0,0.0,0.0,0.0,0.0,0.0,0.0,0.0,0.0,0.0,0.0,0.0,0.0,0.0,0.0,0.0,0.0,0.0,0.0,0.0,0.0,0.0,0.0,0.0,0.0,0.0,0.0,0.0,3.5163,3.5053,3.4923,3.4899,3.4899,0.0,0.0,0.0,0.0,0.0,0.0,3.4729,3.545,3.5368,3.4182,3.537,3.5952,3.5753,3.6142,3.6832,3.7758,3.7402,3.7438,3.7803,3.7941,3.7755,3.7346,3.7835,3.8038,3.794,3.7594,3.759,3.7744,3.7689,3.7888,0.0,3.8391,3.8463,3.8478,3.8638,3.9015,3.9421,3.9421,0.0,4.035,4.035,0.0,0.0,0.0,0.0,4.1448,4.1817,0.0,4.2032,4.1575,4.1476,4.1252,4.0341,3.9929,3.9744,0.0,3.8977,3.8456,3.8841,0.0,0.0,0.0,0.0,3.8616,3.8408,3.8567,3.8689,3.8689,3.8842,3.8833,3.8612,3.8191,3.8091,3.8491,3.7434,3.7,3.7372,3.6872,3.6329,3.578,0.0,0.0,0.0,0.0,0.0,0.0,0.0,0.0,0.0,0.0,0.0,0.0,0.0,0.0,0.0,0.0,0.0,0.0,0.0,0.0,0.0,0.0,0.0,0.0,0.0,0.0,0.0,0.0,0.0,3.4923,3.4899,0.0,0.0,0.0,0.0,3.5943,3.6052,3.6071,3.6018,3.5569,3.5502,3.5872,3.6091,3.6362,3.6731,3.6754,3.6812,3.6876,3.6827,3.7181,3.7801,3.7801,3.814,3.8712,3.8741,3.8627,3.8472,3.8442,3.8442,3.8435,3.8234,3.8173,3.8275,3.8913,3.9146,3.9233,3.9813,4.0017,4.0046,4.0046,4.051,4.1047,4.1047,4.1482,0.0,0.0,4.2049,4.1945,4.1543,4.186,4.2174,4.1704,4.1697,4.1558,4.0761,4.0204,3.9717,0.0,3.8852,3.8686,3.8711,0.0,0.0,3.768,3.8199,3.8408,3.7655,3.8223,3.8689,3.8689,3.9212,3.9232,3.8401,3.8822,3.8808,3.8087,3.7954,3.769,3.713,3.7076,3.6807,3.6278,3.6251,0.0,0.0,0.0,0.0,0.0,0.0,0.0,0.0,0.0,0.0,0.0,0.0,0.0,0.0,0.0,0.0,0.0,0.0,0.0,0.0,0.0,0.0,0.0,0.0,0.0,0.0,0.0,0.0,3.4911,3.5313,0.0,0.0,3.629,3.6524,3.6091,3.6518,3.6576,3.6065,3.6307,3.6479,3.6514,3.6482,3.6579,3.6794,3.6698,3.6875,3.725,3.7378,3.7882,3.8714,3.8831,3.9168,3.9653,3.9653,3.9595,3.9533,3.9533,3.93,3.8951,3.886,3.9088,3.945,3.9697,3.977,3.9813,4.0017,4.0379,4.08,4.125,4.1541,4.1744,4.1744,4.1903,4.2179,4.2571,4.2462,4.2288,4.2517,4.2491,4.2316,4.1848,4.1375,4.0879,4.027,3.9482,3.8803,3.8588,3.8201,3.8041,3.8392,3.8052,3.7756,3.7816,3.8084,3.8161,3.7865,3.8072,3.8238,3.8238,3.8087,3.7869,3.7553,3.7415,3.7227,3.6904,3.6916,3.6808,3.6592,3.6592,3.632,3.5735,3.5708,3.5417,0.0,0.0,0.0,0.0,0.0,0.0,0.0,0.0,0.0,0.0,0.0,0.0,0.0,0.0,0.0,0.0,0.0,0.0,0.0,0.0,0.0,0.0,0.0,0.0,0.0,0.0,3.5363,3.5611,3.6075,3.6373,3.6373,3.7251,3.7525,3.6761,3.7407,3.7469,3.6664,3.6859,3.6926,3.6746,3.684,3.6921,3.6974,3.7306,3.7671,3.8075,3.8413,3.8898,3.9509,3.9649,3.9848,4.0104,4.0104,4.0104,4.0104,4.0104,4.0002,3.9813,3.9596,3.9755,4.0118,4.035,4.0437,4.0466,4.0699,4.1062,4.1512,4.1961,4.2237,4.2397,4.2397,4.2452,4.255,4.294,4.2732,4.2419,4.2653,4.2443,4.2035,4.1587,4.0995,4.0386,3.9792,3.9108,3.8507,3.8262,3.7904,3.7782,3.8137,3.7796,3.7577,3.7952,3.8012,3.7933,3.772,3.7693,3.764,3.7441,3.7078,3.6835,3.6835,3.651,3.6293,3.6293,3.6293,3.6211,3.5993,3.5993,3.5708,3.5113,3.5113,3.4891,3.4496,0.0,0.0,0.0,0.0,0.0,0.0,0.0,0.0,0.0,0.0,0.0,0.0,0.0,0.0,0.0,0.0,0.0,0.0,0.0,0.0,0.0,0.0,0.0,3.6025,3.6025,3.6307,3.7023,3.7152,3.7168,3.7168,3.848,3.8936,3.8012,3.8648,3.8709,3.7832,3.7196,3.6787,3.6669,3.7247,3.7492,3.7404,3.8609,3.9233,3.9233,3.9813,4.0104,4.0133,4.0133,4.0133,4.0162,4.0162,4.0162,4.0162,4.0162,4.0539,4.1062,4.0379,4.0133,4.0234,4.0887,4.1134,4.1221,4.1874,4.2107,4.2121,4.2121,4.2528,4.3,4.3,4.3092,4.3179,4.3193,4.2883,4.2399,4.196,4.1694,4.1403,4.0934,4.0579,4.0135,3.9376,3.9169,3.8934,3.8159,3.8012,3.8012,3.8012,3.8012,3.8012,3.8012,3.7974,0.0,3.7185,3.7078,3.6889,3.6359,3.6266,3.6266,3.6266,3.6239,3.6239,3.6239,3.6239,3.5993,3.5405,3.5378,3.5113,3.4524,3.4496,3.4496,3.4496,0.0,0.0,0.0,0.0,0.0,0.0,0.0,0.0,0.0,0.0,0.0,0.0,0.0,0.0,0.0,0.0,0.0,0.0,0.0,0.0,0.0,0.0,3.6791,3.6791,3.6791,3.6874,3.7085,3.803,3.8689,3.8689,3.9409,3.9566,3.8839,3.8748,3.8402,3.7621,3.781,3.8127,3.847,3.8655,3.8923,3.9334,3.9683,3.9842,3.9842,4.0017,4.035,4.0829,4.0829,4.1091,4.1555,4.1555,4.1555,4.1555,4.1555,4.1657,4.1758,4.1091,4.112,4.157,4.1758,4.1816,4.1845,4.2034,4.2382,4.2745,4.2745,4.2932,4.3148,4.3148,4.2934,4.2783,4.3234,4.2997,4.2717,4.303,4.237,4.1618,4.1495,4.0464,3.9467,3.9247,3.8725,3.8265,3.8027,3.8012,3.8012,3.8012,3.8012,3.8012,3.8012,0.0,0.0,3.7131,3.6754,3.6456,3.6332,3.59,3.5653,3.5653,3.5251,3.4986,0.0,3.4986,3.493,3.4763,3.4736,3.4652,3.4496,3.4496,3.4496,0.0,0.0,0.0,0.0,0.0,0.0,0.0,0.0,0.0,0.0,0.0,0.0,0.0,0.0,0.0,0.0,0.0,0.0,0.0,0.0,0.0,0.0,3.7814,3.8142,3.8444,3.8212,3.8129,3.8457,3.9501,4.018,4.018,4.0734,4.0732,3.9835,3.9638,3.927,3.859,3.8668,3.8991,3.9571,3.9581,3.9741,4.0104,4.0379,4.0525,4.0525,4.08,4.1134,4.1512,4.1512,4.186,0.0,4.2469,4.2629,4.289,4.289,4.289,0.0,0.0,0.0,0.0,0.0,4.2252,4.2469,4.2469,4.2876,4.3377,4.3163,4.3335,4.3586,4.3349,4.3135,4.3027,4.3375,4.315,4.2797,4.28,4.1978,4.1058,4.0744,3.966,3.8712,3.8712,3.8317,3.7933,3.7667,0.0,0.0,3.7319,3.7468,3.7601,3.7601,3.7131,3.6673,0.0,3.613,3.5829,3.5554,3.5224,3.503,3.503,3.4708,0.0,0.0,0.0,3.4496,3.4496,3.4496,0.0,0.0,0.0,3.4496,0.0,0.0,0.0,0.0,3.4496,3.4496,0.0,0.0,0.0,0.0,0.0,0.0,0.0,0.0,0.0,0.0,0.0,0.0,0.0,0.0,0.0,0.0,3.9004,3.968,4.0412,4.0014,3.9865,4.0445,4.111,4.1527,4.1527,4.2074,4.1966,4.0928,4.0878,4.0646,4.0047,0.0,0.0,0.0,0.0,4.0249,4.0321,4.0916,4.125,4.1323,4.1918,4.2237,4.231,4.231,4.26,4.3108,4.3108,4.3442,4.3993,4.3993,4.3993,4.3877,4.276,4.231,4.231,4.231,4.2644,0.0,0.0,0.0,0.0,4.3455,4.3692,4.4033,4.3577,4.3468,4.3505,4.3505,4.3221,4.2717,4.1919,4.1058,4.0198,3.9389,3.858,3.7974,3.7906,3.7906,3.772,3.7131,3.6997,3.6862,3.6375,3.67,3.6997,3.6997,3.6538,0.0,3.5488,3.535,3.5085,3.4551,0.0,0.0,3.4496,3.4496,3.4496,3.4496,3.4496,3.4496,3.4496,3.4496,3.4496,3.4468,3.444,3.444,3.4412,3.4412,3.4412,3.4412,3.4468,3.4496,0.0,0.0,0.0,0.0,0.0,0.0,0.0,0.0,0.0,0.0,0.0,0.0,0.0,0.0,0.0,3.9766,4.0081,4.0428,4.111,4.1607,4.1709,4.1262,4.1841,4.2289,4.2289,4.2077,4.1852,4.1691,4.1188,4.0669,4.0105,4.044,0.0,4.0907,4.0902,4.1163,4.17,4.1845,4.215,4.2629,0.0,0.0,4.3616,4.3616,4.3689,4.3805,4.3805,4.3863,4.3993,4.3993,4.3993,4.3964,4.3718,4.3616,4.3616,4.3616,4.3703,4.3805,4.3805,4.3957,4.4144,4.4032,4.3864,4.3694,4.3586,4.3317,0.0,4.3056,4.2984,4.2717,4.1919,4.1058,4.0198,3.9389,3.858,3.788,3.7373,3.7266,3.7105,3.6565,3.6456,3.6429,3.6332,3.6386,3.6456,3.6456,3.5954,3.5543,3.5433,3.4974,3.4635,3.4524,3.4496,3.4496,3.4496,3.4496,3.4496,3.4496,3.4496,3.4496,3.4496,3.4496,3.4395,3.4171,3.4171,3.4058,3.3766,3.3766,3.3766,3.3794,3.4272,3.4496,0.0,0.0,0.0,0.0,0.0,0.0,0.0,0.0,0.0,0.0,0.0,3.788,0.0,0.0,3.955,4.0279,4.0992,4.1574,4.1908,4.2587,4.2785,4.204,4.2603,4.3199,4.3578,4.3239,4.2959,4.2859,4.21,4.1459,4.1033,4.1018,4.1222,4.159,4.1599,4.1903,4.2528,4.2542,4.2861,4.3485,4.3485,4.3674,4.3993,4.3993,4.4153,4.4465,4.4465,4.4654,4.4959,4.4959,4.4959,4.4959,4.4959,4.4545,4.3993,4.3993,4.4182,4.4465,4.4465,4.454,4.4607,4.437,4.3976,4.3553,4.3317,4.3091,4.2911,4.2911,4.279,4.2387,4.1008,4.0224,3.9468,3.8082,3.7441,3.7078,3.6754,3.67,3.6538,3.5954,3.5845,3.5735,3.5444,3.54,3.5499,3.5801,3.5334,3.4947,3.4947,3.468,3.4496,3.4496,3.4496,3.444,3.4311,3.4311,3.4216,3.4047,3.4227,3.4227,3.4047,3.4047,3.3991,3.3861,3.4097,3.4129,3.3958,3.4181,3.4288,3.4316,3.4604,3.4618,0.0,0.0,0.0,0.0,0.0,0.0,0.0,0.0,3.7509,3.8218,3.8505,3.8808,3.9401,4.0097,4.0644,4.0776,4.1773,4.2553,4.2702,4.3232,4.3416,4.2984,4.3448,4.4029,4.4547,4.4436,4.4204,4.3929,4.3136,4.2513,4.2129,4.1693,4.1788,4.2444,4.2349,4.2619,4.3378,4.3265,4.3515,4.4168,4.4168,4.424,4.4356,4.4356,4.4618,4.5104,4.5104,4.5409,4.5903,4.5903,4.5903,4.5903,4.5903,4.5256,4.4356,4.4356,4.4683,4.5082,4.4979,4.4945,4.4871,4.4397,4.3889,4.3399,4.3018,4.2911,4.2887,4.2838,4.2522,4.1769,3.9981,3.9209,3.8453,3.6715,3.6293,3.6266,3.6157,3.613,3.5938,3.5323,3.5212,3.5058,3.4568,3.4496,3.4652,3.5157,3.4819,3.4496,3.4496,3.4496,3.4468,3.444,3.4412,3.4311,3.403,3.4002,3.3932,3.3763,3.4001,3.4061,3.3891,3.3862,3.3834,3.3777,3.4159,3.432,3.4262,3.4651,3.4831,3.4831,3.4916,3.4784,3.56,3.56,3.578,3.6496,3.6535,3.6568,0.0,0.0,3.8099,3.8208,3.9252,4.018,4.026,4.0829,4.1494,4.2156,4.2404,4.2721,4.3367,4.3549,4.3812,4.4405,4.4538,4.4483,4.4274,4.4545,4.46,4.4285,4.3879,4.341,4.2907,4.2817,4.3093,4.376,4.3211,4.3497,4.476,4.4191,4.4182,4.4814,4.4814,4.5119,4.57,4.57,4.5729,4.5801,4.5801,4.5845,4.5903,4.5903,4.5903,4.5903,4.5903,4.5816,4.57,4.57,4.5743,4.5719,4.5252,4.4814,4.4397,4.3851,4.3365,4.2984,4.2911,4.2911,4.2838,4.2595,4.1805,4.073,3.9558,3.8479,3.7471,3.6538,3.6293,3.6157,3.5626,3.5516,3.5323,3.4708,3.4607,3.4579,3.4524,3.4496,3.4524,3.4607,3.4551,3.4496,3.4496,3.4496,3.4412,3.4171,3.4142,3.4002,3.3681,3.3664,3.3816,3.4203,3.4263,3.4433,3.4838,3.4848,3.4702,3.4398,3.445,3.4364,3.4108,3.4189,3.421,3.4191,3.4636,3.4854,3.618,3.6299,3.6456,0.0,3.7501,3.7744,3.7966,3.845,3.897,3.9388,3.9965,4.0511,4.0912,4.156,4.2139,0.0,4.2868,4.3251,4.3549,4.3961,4.4357,4.467,4.5246,4.5583,4.5439,4.5192,4.5014,4.4937,4.4597,4.4121,4.3541,4.3928,4.4101,4.3996,4.4116,4.441,4.4928,4.4676,4.4857,4.5482,4.5482,4.5642,4.5903,4.5903,4.5903,4.5903,4.5903,4.5903,4.5903,4.5903,4.5903,4.5903,4.5903,4.5903,4.5858,4.5549,4.5435,4.5367,4.4862,4.4359,4.3899,4.3671,4.3293,4.2911,4.2911,4.2335,4.1655,4.1544,4.0465,3.9094,3.7969,3.7222,3.6503,3.5499,3.5262,3.5179,3.4919,3.4875,3.4763,3.4356,3.4283,3.4227,3.4019,3.3991,3.3991,3.3991,3.4132,3.4199,3.3991,3.3991,3.4042,3.419,3.4303,3.4278,3.4133,3.4133,3.413,3.4184,3.4341,3.4425,3.4466,3.4477,3.4418,3.427,3.454,3.4616,3.4506,3.4724,3.4859,3.4859,3.5055,3.5187,3.6953,3.7105,0.0,3.7838,3.8304,3.8668,3.8941,3.9325,3.9812,4.0528,4.0843,4.1127,4.161,4.2322,4.2802,4.2802,4.3251,4.3598,4.3598,4.4241,4.4786,4.4985,4.5779,4.634,4.6453,4.5878,4.5511,4.5515,4.5409,4.5079,4.4484,4.5135,4.5304,4.4842,4.5103,4.5399,4.5719,4.5537,4.5712,4.6172,4.6172,4.6083,4.5903,4.5903,4.5903,4.5903,4.5903,4.5903,4.588,4.5745,4.5677,4.5677,4.5541,4.5495,4.5413,4.4879,4.4856,4.5009,4.4383,4.3936,4.3576,4.3447,4.3173,4.2887,4.2814,4.1866,4.0767,4.0616,3.925,3.761,3.6646,3.6002,3.5405,3.4457,3.4244,3.4244,3.4244,3.4244,3.4188,3.4002,3.3974,3.3889,3.3653,3.3597,3.3611,3.3664,3.3845,3.3958,3.3827,3.3848,3.3963,3.4302,3.4366,3.4378,3.4378,3.4378,3.4351,3.4308,3.4487,3.4539,3.4464,3.4475,3.4475,3.4475,3.4796,3.4972,3.4972,3.5262,3.5387,3.5387,3.5387,3.5387,0.0,0.0,3.8022,3.8617,3.8677,3.8936,4.0244,4.0441,4.0561,4.1229,4.1941,4.2438,4.2471,4.3083,4.3565,4.3565,4.3582,4.3598,4.3598,4.4241,4.4968,4.5681,4.6091,4.6453,0.0,4.6498,4.6126,4.581,4.6389,4.6473,4.5862,4.6485,4.6859,4.6913,4.6238,4.651,4.781,4.7154,4.6858,4.6887,4.6887,4.6535,4.5903,4.5903,4.5903,4.5903,4.5903,4.5903,4.5858,4.533,4.5124,4.5078,4.4607,4.4457,4.4387,4.3851,4.4261,4.4963,4.3979,4.36,4.3505,4.3067,4.2911,4.2838,4.2584,4.1706,4.0692,4.016,3.8404,3.6511,3.5968,3.5008,3.4058,3.371,3.3625,3.3625,3.3625,3.3625,3.3625,3.3625,3.3625,3.3597,3.3597,3.3597,3.3643,3.377,3.3794,3.3928,3.4248,3.4397,3.4484,3.4505,3.4259,3.4091,3.4091,3.4091,3.4288,3.4744,3.4795,3.4962,3.5325,3.5345,3.5345,3.5345,3.5366,3.5376,3.5376,3.5387,3.5387,3.5387,3.5387,3.5387,0.0,0.0,3.8647,3.9244,3.9655,4.0011,4.0375,4.0788,4.1276,4.199,4.2338,4.2638,4.3135,4.3416,4.3598,4.3598,4.3598,4.3779,4.4257,4.4953,4.5698,4.6444,4.6618,0.0,0.0,0.0,0.0,4.5825,4.6424,4.6696,4.6501,4.7594,4.8024,4.7617,4.7785,4.7891,4.7904,4.7685,4.7557,4.7557,4.7098,4.6558,4.5903,4.6358,4.6558,4.6602,4.7017,4.6967,4.6521,4.5973,4.5492,4.5055,4.4583,4.4387,4.434,4.3804,4.3814,4.4003,4.3365,4.3139,4.3115,4.296,4.2911,4.2838,4.2584,4.1044,3.934,3.8964,3.7103,3.5118,3.478,3.4373,3.403,3.3681,3.3597,3.3597,3.3597,3.3597,3.3551,3.3381,3.3324,3.3268,3.304,3.3252,3.3596,3.3949,3.4011,3.4041,3.4139,3.4476,3.4698,3.4698,3.4847,3.4962,3.4962,3.4962,3.5035,3.519,3.52,3.5262,3.5387,3.5387,3.5387,3.5387,3.5387,3.5387,3.5387,3.5387,3.5387,3.5387,3.5387,3.5387,0.0,3.9421,3.96,3.9953,4.0518,4.1012,4.1136,4.1491,4.2007,4.2752,4.2886,4.305,4.3499,4.3598,4.3696,4.3944,4.3977,4.4257,4.5002,4.5731,4.6361,4.6841,4.7012,4.7031,0.0,0.0,0.0,4.5825,4.6676,4.7202,4.7189,4.8517,4.8951,4.8288,4.8682,4.8682,4.8246,4.8261,4.8136,4.7882,4.745,4.6916,4.6269,4.6945,4.7249,4.7271,4.7642,4.7349,4.658,4.5981,4.5281,4.4509,4.4044,4.3869,4.3808,4.3485,4.3352,4.3317,4.2994,4.2911,4.2887,4.279,4.2766,4.2606,4.1843,4.0185,3.8404,3.7743,3.6002,3.4272,3.4002,3.3861,3.3692,3.3353,3.3285,3.3285,3.3285,3.3285,3.3239,3.304,3.3022,3.3007,3.2962,3.3472,3.3998,3.4299,3.4485,3.4527,3.4371,3.4744,3.5024,3.5024,3.5252,3.5387,3.5387,3.5387,3.5387,3.5387,3.5387,3.5387,3.5387,3.5387,3.5387,3.5387,3.5387,3.5387,3.5387,3.5387,3.5387,3.5387,3.5387,3.5387,3.9951,4.0369,4.0789,4.0677,4.1189,4.1879,4.2384,4.2537,4.2752,4.3449,4.3598,4.3598,0.0,0.0,4.3828,4.4522,4.4637,4.4919,4.5697,4.6394,4.6874,0.0,0.0,0.0,0.0,0.0,0.0,4.5825,0.0,4.7893,4.7893,4.9169,4.9602,4.8969,4.8949,4.8949,4.8949,4.8949,4.862,4.7946,4.7946,4.76,4.6982,4.7642,4.7946,4.7946,4.7755,4.7118,4.6107,4.5417,4.4536,4.3553,4.3091,4.2911,4.2911,4.2911,4.2911,4.2911,4.2887,4.2887,4.2863,4.2584,4.2449,4.2117,4.0477,3.9158,3.7928,3.6572,3.5196,3.403,3.3653,3.3381,3.3108,3.2784,3.2698,3.2698,3.2698,3.2708,3.2669,3.2669,3.269,3.2855,3.3339,3.4176,3.4766,3.4786,3.5148,3.5273,3.4879,3.5159,3.5387,3.5387,3.5387,3.5387,3.5387,3.5387,3.5387,3.5387,3.5387,3.5387,3.5387,3.5387,3.5387,3.5387,3.5387,3.5387,3.5387,3.5387,3.5387,3.5387,3.5387,3.5387,4.06,4.0771,4.0906,4.1327,4.1853,4.2332,4.2471,4.2934,4.3367,4.3565,4.3598,4.3598,0.0,0.0,0.0,4.3845,4.3878,0.0,4.5616,4.5963,0.0,4.7587,0.0,4.6997,4.691,4.6298,0.0,0.0,4.7103,4.7893,4.7893,4.9169,4.9817,4.9641,4.9641,4.9641,4.9641,4.9641,4.9305,4.8641,4.8641,4.8288,4.7685,4.8329,4.8641,4.8661,4.8959,4.8267,4.6849,4.613,4.4946,4.3553,4.3091,4.2911,4.2911,4.2911,4.2911,4.2863,4.2668,4.2717,4.2863,4.2584,4.1918,4.1094,4.0236,3.8613,3.6888,3.6115,3.5035,3.3974,3.3438,3.325,3.3108,3.2784,3.2698,3.2698,3.2698,3.2555,3.2402,3.2402,3.2426,3.2728,3.3578,3.4115,3.4534,3.4831,3.516,3.5345,3.5262,3.5355,3.5387,3.5387,3.5387,3.5387,3.5387,3.5387,3.5387,3.5387,3.5387,3.5387,3.5387,3.5387,3.5387,3.5387,3.5387,3.5387,3.5387,3.5387,3.5387,3.5387,3.5387,3.5387,4.0744,4.1064,4.1332,4.1898,4.2529,4.2969,4.2969,4.33,4.3598,4.3598,4.3598,0.0,4.3598,4.3598,0.0,0.0,0.0,0.0,4.5648,4.6079,4.6576,0.0,4.7157,0.0,4.6893,4.6225,4.5789,0.0,4.7103,4.7893,4.7893,4.9169,4.9896,4.9896,4.9896,4.9896,4.9896,4.9896,4.9546,4.8908,4.9188,4.8923,4.8214,4.846,4.8543,4.846,0.0,4.731,4.6026,4.5524,4.4522,4.3269,4.2994,4.2911,4.2911,4.2911,4.2911,4.2863,4.2584,4.2609,4.2571,4.1682,4.0969,4.0185,3.8756,3.7358,3.6088,3.5289,3.439,3.3618,3.3278,3.3079,3.2898,3.2612,3.2516,3.2487,3.2344,3.2201,3.2136,3.23,3.2549,3.2954,3.3689,3.4084,3.442,3.4632,3.4828,3.4953,3.4953,3.5232,3.5387,3.5387,3.5387,3.5387,3.5387,3.5387,3.5387,3.5387,3.5387,3.5387,3.5387,3.5387,3.5387,3.5387,3.5387,3.5387,3.5387,3.5387,3.5387,3.5387,3.5387,3.5387,4.0782,4.1337,4.1871,4.2543,4.3148,4.3598,4.3598,4.3598,4.3598,4.3598,0.0,4.3598,4.3598,4.3598,4.3812,4.444,0.0,4.4819,4.5548,4.6278,4.6776,4.681,4.6912,4.6928,4.6824,4.6243,4.5862,4.5807,4.7024,4.7751,4.7751,4.9027,4.9817,4.9896,4.9896,4.9896,4.9896,4.9896,4.9602,4.9046,4.9602,4.9416,4.8527,4.8397,4.8095,4.7652,0.0,0.0,4.4595,4.4392,4.3752,4.2911,4.2911,4.2911,4.2911,4.2863,4.2838,4.279,4.2498,4.2302,4.1931,4.0477,3.9905,3.9327,3.6885,3.5893,3.5344,3.4272,3.3579,3.3126,3.3108,3.2812,3.2526,3.2287,3.2219,3.2133,3.1874,3.1759,3.1841,3.2284,3.2694,3.3145,3.3656,3.4078,3.4329,3.4329,3.436,3.4392,3.4392,3.4953,3.5325,3.5325,3.5356,3.5387,3.5387,3.5387,3.5387,3.5387,3.5387,3.5387,3.5387,3.5387,3.5387,3.5387,3.5387,3.5387,3.5387,3.5387,3.5387,3.5387,3.5387,3.5387,4.155,4.1872,4.2156,4.3365,4.3634,4.3598,4.3598,4.3598,0.0,0.0,4.3598,4.3598,4.3598,4.3598,4.3631,4.3779,4.3795,4.4044,4.4786,4.5532,4.6085,0.0,4.6929,0.0,0.0,0.0,0.0,0.0,0.0,0.0,4.6992,4.8304,4.9331,4.988,4.9896,4.9896,4.9896,4.9896,4.9836,4.9737,4.9677,4.9163,4.8278,4.8841,4.82,4.6673,0.0,0.0,4.4595,4.4392,4.3752,4.2911,4.2911,4.2911,4.2863,4.2644,4.2584,4.2498,4.2007,4.1234,4.0376,4.0084,3.9353,3.8259,3.6429,3.519,3.4244,3.3551,3.3087,3.2724,3.2506,3.2201,3.1932,3.1903,3.1874,3.1874,3.1816,3.1585,3.1533,3.2135,3.2291,3.2586,3.333,3.3747,3.3985,3.3985,3.4235,3.4392,3.4392,3.4735,3.4984,3.4984,3.5232,3.5387,3.5387,3.5387,3.5387,3.5387,3.5387,3.5387,3.5387,3.5387,3.5387,3.5387,3.5387,3.5387,3.5387,3.5387,3.5387,3.5387,3.5387,3.5387,4.1274,4.1765,4.221,4.3058,4.3508,4.3734,4.3628,0.0,0.0,0.0,4.3598,4.3598,4.3598,4.3598,0.0,4.3598,4.3598,4.3714,4.4092,4.4754,0.0,4.599,4.6339,4.6574,0.0,0.0,0.0,0.0,0.0,0.0,4.6787,4.7798,4.8525,4.8857,4.9205,4.9378,4.9378,4.9722,4.9836,4.9737,4.9637,4.8984,4.7822,4.771,4.6783,4.53,0.0,0.0,4.3705,4.3624,4.3317,4.2911,4.2911,4.2814,4.2668,4.256,4.24,4.2152,4.1145,4.0465,3.9777,3.8287,3.7453,3.6754,3.5356,3.4306,3.3523,3.3058,3.2734,3.241,3.2133,3.1903,3.1759,3.1585,3.1421,3.1344,3.1344,3.1199,3.1309,3.2062,3.2198,3.2472,3.325,3.3544,3.3639,3.3639,3.3796,3.389,3.389,3.4173,3.4517,3.4859,3.5046,3.5201,3.5397,3.5387,3.5387,3.5387,3.5387,3.5387,3.5387,3.5387,3.5387,3.5387,3.5387,3.5387,3.5387,3.5387,3.5387,3.5387,3.5387,3.5387,4.0875,4.1445,4.2004,4.2612,4.321,4.3637,4.361,4.3598,0.0,4.3598,4.3598,4.3598,4.3598,4.3598,4.3598,0.0,4.3598,4.3583,4.3492,4.4196,4.4907,0.0,4.5767,0.0,0.0,0.0,0.0,0.0,0.0,0.0,0.0,4.7356,4.7735,4.7893,4.8399,4.8702,4.8702,4.922,4.9371,4.9173,4.8923,4.8183,4.6965,4.6189,4.5183,4.3975,0.0,0.0,0.0,4.2911,4.2911,4.2887,4.2838,4.2693,4.2487,4.2375,4.219,4.1819,4.0401,3.9751,3.9146,3.6634,3.5815,3.5553,3.4289,3.359,3.3136,3.2724,3.241,3.2104,3.1787,3.1653,3.1537,3.1276,3.1054,3.0889,3.0889,3.0889,3.1143,3.2032,3.2198,3.2472,3.325,3.3386,3.3386,3.3386,3.3386,3.3386,3.3386,3.3639,3.4016,3.461,3.4766,3.4891,3.517,3.5201,3.5201,3.5201,3.5201,3.5201,3.5201,3.5201,3.5201,3.5201,3.5201,3.5201,3.5201,3.5201,3.5201,3.5201,3.5201,3.5201,4.0988,4.1141,4.1396,4.2652,4.2882,4.2957,4.3477,0.0,4.3598,4.3598,4.3598,4.3598,4.3598,4.3598,4.3598,0.0,0.0,4.3492,4.3189,4.4042,4.4754,4.4887,0.0,0.0,0.0,0.0,0.0,0.0,0.0,0.0,0.0,4.6866,4.7214,4.7877,4.7956,4.7988,4.7988,4.8051,4.7987,4.7776,4.6726,4.5922,4.5295,4.5106,4.4274,4.3067,0.0,0.0,0.0,4.2911,4.2911,4.2887,4.262,4.2536,4.2424,4.1944,4.1746,4.1534,4.0122,3.8963,3.7837,3.6294,3.5815,3.5498,3.3784,3.325,3.3079,3.2506,3.2104,3.1759,3.1441,3.117,3.0976,3.0947,3.0918,3.0889,3.0889,3.0889,3.1143,3.2032,3.2198,3.2472,3.325,3.3386,3.3386,3.3386,3.3386,3.3386,3.3386,3.3418,3.3576,3.3953,3.4267,3.4454,3.4485,3.4485,3.4485,3.4485,3.4485,3.4485,3.4485,3.4485,3.4485,3.4485,3.4485,3.4485,3.4485,3.4485,3.4485,3.4485,3.4485,3.4485,4.0455,4.0827,4.133,4.2126,4.2615,4.3003,4.3492,0.0,4.3598,4.3598,4.3598,4.3598,4.3598,4.3598,4.3598,0.0,0.0,0.0,4.3417,4.377,4.4141,4.4412,4.4968,0.0,0.0,0.0,0.0,0.0,0.0,0.0,0.0,4.6202,4.6345,4.6629,4.7024,4.7245,4.7245,4.7558,4.7607,4.7344,4.6243,4.5245,4.4363,4.3751,4.287,4.1866,0.0,0.0,0.0,4.2568,4.2644,4.262,4.2362,4.2166,4.1993,4.1771,4.1172,4.0249,3.9015,3.7731,3.6402,3.4958,3.4379,3.4099,3.3409,3.2955,3.2573,3.2104,3.1759,3.1421,3.1141,3.0976,3.0889,3.0889,3.0889,3.0889,3.0889,3.0889,3.1143,3.2032,3.2198,3.2472,3.325,3.3386,3.3124,3.2269,3.2132,3.1845,3.0978,3.1621,3.2196,3.2323,3.3389,3.3839,3.3202,3.3923,3.4027,3.3202,3.3923,3.4027,3.317,3.3955,3.3996,3.317,3.3965,3.4392,3.4392,3.4392,3.4392,3.4392,3.4392,3.4392,4.0096,4.0472,4.1037,4.1738,4.2289,4.2841,0.0,0.0,4.3598,4.3598,4.3598,4.3598,4.3598,4.3598,4.3598,4.3598,0.0,4.3568,4.3462,4.3539,4.3696,0.0,0.0,0.0,0.0,0.0,0.0,0.0,0.0,0.0,0.0,4.5789,4.5789,4.5789,4.6266,4.6466,4.641,4.6799,4.6827,4.6493,4.5198,4.4226,4.3523,4.236,4.1557,0.0,0.0,0.0,0.0,4.2083,4.2229,4.2231,4.2037,4.1857,4.1647,4.1222,4.044,3.939,3.781,3.6646,3.5542,3.3998,3.3353,3.3193,3.3079,3.2698,3.2219,3.1903,3.1508,3.1131,3.0947,3.0889,3.0889,3.0889,3.0889,3.0859,3.0762,3.0421,3.0396,3.1285,3.1113,3.112,3.201,3.2151,3.1822,3.083,3.0669,3.0313,2.9313,3.0062,3.0669,3.0669,3.1781,3.2556,3.2632,3.2768,3.26,3.2031,3.2537,3.2409,3.1423,3.2346,3.2409,3.1382,3.2378,3.2873,3.2873,3.3284,3.3483,3.3483,3.3912,3.411,4.0096,4.0113,4.0392,4.1604,4.1907,4.2208,0.0,0.0,4.3598,4.3598,4.3598,4.3598,4.3598,4.3598,4.3598,0.0,0.0,0.0,4.3159,4.3402,4.362,0.0,0.0,0.0,0.0,0.0,0.0,0.0,0.0,0.0,0.0,0.0,4.5789,4.5789,4.5823,4.5698,4.5531,4.5512,4.5312,4.4889,4.3101,4.2432,4.2743,4.1021,0.0,0.0,0.0,0.0,0.0,4.1474,4.1621,4.1627,4.1681,4.1696,4.1534,4.0134,3.9597,3.9235,3.6688,3.5815,3.5514,3.3784,3.3193,3.3136,3.2823,3.2516,3.2219,3.1903,3.1373,3.0889,3.0889,3.0889,3.0889,3.0889,3.0889,3.0801,3.048,2.9373,2.8661,2.946,2.8548,2.7982,2.9045,2.9248,2.9248,2.9215,2.9215,2.9215,2.9182,2.9215,2.9215,2.9215,2.9248,3.0354,3.3155,3.0849,2.9826,3.1217,3.0021,2.9256,2.9215,2.9256,2.9256,2.9215,2.9256,2.9248,2.9248,3.0637,3.1345,3.1378,3.2756,3.3418,4.0096,4.0472,4.1021,4.1707,4.2289,4.2807,4.3472,4.3598,4.3598,4.3598,4.3598,4.3598,4.3598,4.3598,4.3598,4.3598,0.0,0.0,0.0,0.0,0.0,4.2972,0.0,0.0,0.0,0.0,0.0,0.0,0.0,0.0,0.0,0.0,4.5789,4.5789,4.5662,4.557,4.5497,4.5241,4.4727,4.3993,4.2262,4.1177,4.0632,3.9485,0.0,0.0,0.0,0.0,0.0,4.0374,4.0734,4.1046,4.0877,4.0483,3.993,3.9494,3.8206,3.6541,3.5738,3.4836,3.3914,3.3381,3.3051,3.2812,3.2516,3.2201,3.1855,3.1344,3.1064,3.0889,3.0889,3.0889,3.083,3.0606,2.9864,2.9098,2.882,2.77,2.6971,2.7744,2.7714,2.7879,2.8719,2.9051,2.8863,2.7899,2.7767,2.7411,2.6535,2.7186,2.7767,2.7767,2.7767,2.8131,2.901,2.9149,2.8986,2.8452,2.892,2.8764,2.78,2.869,2.8764,2.7767,2.8723,2.9182,2.9182,3.0604,3.1803,3.2765,3.3187,3.3386,0.0,4.0641,4.1325,4.1856,4.2481,0.0,0.0,4.3643,4.3598,4.3598,4.3598,4.3598,4.3598,4.3598,4.3598,4.3598,0.0,0.0,0.0,0.0,0.0,0.0,0.0,0.0,0.0,0.0,0.0,0.0,0.0,0.0,0.0,0.0,4.5769,4.568,4.557,4.5423,4.5278,4.5039,4.4408,4.3467,4.1871,4.0604,3.9655,0.0,0.0,0.0,0.0,0.0,0.0,3.9438,3.9862,4.0184,4.035,3.9774,3.8847,3.8643,3.7186,3.5217,3.4686,3.3931,3.3193,3.3051,3.2812,3.2459,3.2057,3.1787,3.1498,3.1034,3.0889,3.0889,3.0889,3.0889,3.083,3.048,2.9373,2.8307,2.7907,2.6374,2.5292,2.6001,2.6008,2.6174,2.6985,2.7411,2.7352,2.6494,2.6334,2.604,2.5221,2.5846,2.6334,2.6334,2.6334,2.6334,2.6334,2.7153,2.7477,2.7112,2.7452,2.7253,2.6368,2.7186,2.7253,2.6368,2.7219,2.7908,2.8403,3.0337,3.2005,3.3386,3.3386,3.3386,0.0,0.0,0.0,0.0,0.0,0.0,0.0,4.3763,0.0,4.3598,4.3598,4.3598,4.3598,4.3598,4.3598,4.3598,0.0,0.0,0.0,4.3266,0.0,0.0,0.0,0.0,0.0,0.0,0.0,0.0,0.0,0.0,0.0,0.0,0.0,4.5322,4.5319,4.5184,4.4893,4.4893,4.4366,4.3269,4.1748,4.0512,3.955,0.0,0.0,0.0,0.0,0.0,0.0,3.8651,3.9037,3.9122,3.9935,3.938,3.8045,3.757,3.641,3.4925,3.3614,3.3164,3.3108,3.2784,3.2459,3.2104,3.1498,3.1296,3.1247,3.0976,3.0889,3.0889,3.0889,3.083,3.0674,3.0294,2.9128,2.794,2.7319,2.5193,2.3612,2.4201,2.3641,2.3337,2.4253,2.4781,2.5052,2.5052,2.5093,2.5093,2.5093,2.5093,2.5093,2.5093,2.5093,2.5093,2.5093,2.5093,2.5644,2.6886,2.5779,2.5093,2.5093,2.5093,2.5093,2.5093,2.5093,2.5813,2.7253,2.9882,3.1941,3.3386,3.3386,3.3406,0.0,0.0,0.0,0.0,0.0,0.0,0.0,0.0,0.0,0.0,0.0,4.3598,4.3598,4.3598,4.3598,4.3598,0.0,0.0,0.0,0.0,0.0,0.0,0.0,0.0,0.0,0.0,0.0,0.0,0.0,0.0,0.0,0.0,0.0,4.3534,4.3516,4.3961,4.4877,4.4742,4.4212,4.3269,4.1125,3.9636,3.8733,0.0,0.0,0.0,0.0,0.0,0.0,3.791,3.8321,3.8585,3.8787,3.7854,3.6378,3.6256,3.497,3.3264,3.2926,3.2823,3.2755,3.2487,3.1989,3.1498,3.1354,3.1296,3.1247,3.0976,3.0889,3.0889,3.0889,3.0147,2.9235,2.8701,2.6806,2.4948,2.4271,2.2865,2.1874,2.2478,2.2602,2.2867,2.3542,2.419,2.4638,2.4638,2.4883,2.5093,2.5093,2.5093,2.5093,2.5093,2.5093,2.5093,2.5093,2.5093,2.5221,2.5543,2.5288,2.5093,2.5093,2.5093,2.5093,2.5093,2.5093,2.6308,2.8723,2.9378,3.0978,3.3386,3.3386,3.3603,0.0,0.0,0.0,0.0,0.0,0.0,0.0,0.0,0.0,0.0,0.0,4.3598,4.3598,4.3598,0.0,0.0,4.3462,0.0,0.0,0.0,0.0,0.0,0.0,0.0,0.0,0.0,0.0,0.0,0.0,0.0,0.0,0.0,0.0,0.0,4.2891,4.3195,4.3831,4.4031,4.3697,4.2821,4.1179,3.974,3.8448,0.0,0.0,0.0,0.0,0.0,3.661,3.712,3.7569,3.7984,3.8161,3.706,3.5422,3.5691,3.4471,3.2698,3.2698,3.2612,3.243,3.1989,3.1585,3.115,3.0421,3.0216,3.0158,3.002,2.9991,2.9844,2.9253,2.8582,2.7877,2.7237,2.556,2.3915,2.3232,2.2059,2.1283,2.1871,2.228,2.2695,2.3304,2.3884,2.4265,2.4265,2.4469,2.4645,2.4815,2.4815,2.4883,2.5093,2.5093,2.5093,2.5093,2.5093,2.5093,2.5093,2.5093,2.5093,2.5093,2.5093,2.5093,2.5093,2.5712,2.6761,2.8238,2.8887,2.9965,3.1501,3.2358,3.2897,0.0,0.0,0.0,0.0,0.0,0.0,0.0,0.0,0.0,0.0,0.0,0.0,4.3717,4.3717,0.0,0.0,0.0,0.0,0.0,0.0,0.0,0.0,0.0,0.0,0.0,0.0,0.0,0.0,0.0,0.0,0.0,0.0,0.0,0.0,4.253,4.2456,4.2294,4.3066,4.3067,4.2282,4.1211,3.9905,3.8397,3.6584,0.0,0.0,0.0,0.0,3.6074,3.6447,3.6916,3.7405,3.7683,3.6555,3.482,3.5392,3.4306,3.2605,3.262,3.243,3.2047,3.1469,3.1267,3.0947,2.9373,2.889,2.8831,2.8444,2.8465,2.8355,2.7215,2.6831,2.6529,2.5804,2.4679,2.3612,2.2952,2.1908,2.1283,2.1871,2.2215,2.2636,2.3236,2.3645,2.3925,2.3925,2.3959,2.4095,2.4401,2.4435,2.457,2.4984,2.5018,2.5018,2.5086,2.5093,2.5093,2.5093,2.5093,2.5093,2.5093,2.5093,2.5093,2.5093,2.6234,2.6886,2.712,2.8493,2.9313,2.955,3.1198,3.2123,4.198,4.1784,4.1625,0.0,0.0,0.0,0.0,0.0,0.0,0.0,0.0,0.0,0.0,4.4179,4.4307,0.0,0.0,0.0,0.0,0.0,0.0,0.0,0.0,0.0,0.0,0.0,0.0,0.0,0.0,0.0,0.0,0.0,0.0,0.0,0.0,4.0847,4.0812,4.2107,4.2594,4.2269,3.999,3.8665,3.8159,3.5743,3.4585,0.0,0.0,0.0,3.5893,3.6392,3.6675,3.6828,3.6894,3.5722,3.4105,3.4546,3.3604,3.2142,3.2297,3.196,3.1441,3.1325,3.1141,3.0694,2.9324,2.889,2.8435,2.6308,2.6459,2.7185,2.6707,2.5995,2.5156,2.4193,2.3184,2.223,2.1538,2.126,2.1283,2.1871,2.205,2.2271,2.2861,2.327,2.3475,2.3475,2.3782,2.4027,2.4061,2.4095,2.4197,2.457,2.4604,2.474,2.5059,2.5093,2.5093,2.5093,2.5093,2.5093,2.5093,2.5093,2.5093,2.5093,2.5288,2.5973,2.712,2.8493,2.9802,3.1001,3.1572,3.2712,4.2458,4.241,4.2331,4.2685,0.0,0.0,0.0,0.0,0.0,0.0,0.0,0.0,0.0,0.0,0.0,0.0,0.0,0.0,0.0,0.0,0.0,0.0,0.0,0.0,0.0,0.0,0.0,0.0,0.0,0.0,0.0,0.0,0.0,0.0,0.0,0.0,4.0489,4.1065,4.15,4.1747,4.0345,3.9169,3.8136,3.6503,3.5251,0.0,0.0,3.5197,3.5814,3.5913,3.6245,3.6698,3.6581,3.5466,3.3831,3.3335,3.2732,3.2153,3.2072,3.1701,3.1276,3.1141,3.0995,3.0528,2.8483,2.7877,2.7336,2.4756,2.4971,2.5737,2.4679,2.4201,2.3783,2.2748,2.2292,2.1922,2.1235,2.1236,2.1509,2.1937,2.2111,2.2358,2.282,2.303,2.3133,2.3133,2.3277,2.3482,2.3645,2.3679,2.3823,2.4197,2.4231,2.4299,2.451,2.451,2.4679,2.5059,2.5093,2.5093,2.5093,2.5093,2.5093,2.5093,2.5093,2.5382,2.6007,2.6661,2.7806,2.9448,3.0567,3.2135,4.2806,4.2892,4.2892,4.2892,0.0,0.0,0.0,0.0,0.0,0.0,0.0,0.0,0.0,0.0,0.0,0.0,0.0,0.0,0.0,0.0,0.0,0.0,0.0,0.0,0.0,0.0,0.0,0.0,0.0,0.0,0.0,0.0,0.0,0.0,0.0,0.0,4.0437,4.0261,4.0448,4.0988,4.0435,3.9362,3.7878,3.7128,3.5939,3.4397,3.4478,3.4903,3.5506,3.5391,3.577,3.6427,3.6402,3.5405,3.3758,3.2302,3.1892,3.2018,3.1759,3.1469,3.116,3.0976,3.0889,3.047,2.8164,2.7224,2.6529,2.4209,2.4092,2.4309,2.2856,2.2793,2.2832,2.1734,2.1796,2.1922,2.1235,2.1375,2.1669,2.1964,2.2218,2.2512,2.2847,2.2893,2.2893,2.2893,2.2893,2.2996,2.3236,2.327,2.3441,2.3823,2.3857,2.3891,2.3993,2.3993,2.4231,2.4815,2.4849,2.4849,2.4849,2.4849,2.4849,2.4849,2.4916,2.495,2.495,2.5464,2.6588,2.8328,2.9876,3.1557,4.2882,4.2892,4.2892,4.2892,4.3451,0.0,4.3493,4.4039,0.0,4.4419,0.0,0.0,0.0,0.0,0.0,0.0,0.0,0.0,0.0,0.0,0.0,0.0,0.0,0.0,0.0,0.0,0.0,0.0,0.0,0.0,0.0,0.0,0.0,0.0,0.0,0.0,4.0296,3.993,3.9869,4.0071,3.9065,3.8004,3.6984,3.6673,3.5746,3.4416,3.4739,3.4788,3.4699,3.4994,3.5317,3.5631,3.6193,3.545,3.3829,3.1755,3.1156,3.1354,3.1354,3.117,3.0918,3.0928,3.0889,3.0645,2.9196,2.7937,2.671,2.534,2.4123,2.3074,2.2331,2.2606,2.2762,2.145,2.1639,2.1922,2.1235,2.1375,2.1669,2.1964,2.2218,2.2512,2.2847,2.2893,2.2893,2.2893,2.2893,2.29,2.2934,2.2934,2.3065,2.3406,2.3441,2.3577,2.3959,2.3993,2.4027,2.4095,2.4095,2.4095,2.4095,2.4095,2.4095,2.4095,2.4367,2.4536,2.4536,2.648,2.822,2.9772,3.0506,3.1684,4.2892,4.2892,4.2892,4.2892,4.3127,0.0,0.0,4.3481,4.3971,4.4439,4.4699,0.0,0.0,0.0,0.0,0.0,0.0,0.0,0.0,0.0,0.0,0.0,0.0,0.0,0.0,0.0,0.0,0.0,0.0,0.0,0.0,0.0,0.0,0.0,0.0,0.0,0.0,3.991,3.975,3.9803,3.9271,3.8275,3.6908,3.7009,3.6209,3.4739,3.5062,3.5305,3.5426,3.5552,3.5774,3.5951,3.4848,3.4266,3.3847,3.1707,3.1069,3.1296,3.1296,3.1102,3.0889,3.0889,3.0889,3.0645,2.9324,2.7996,2.6741,2.547,2.4116,2.2981,2.2519,2.2762,2.2793,2.167,2.1765,2.1922,2.1235,2.1483,2.189,2.1964,2.2365,2.2766,2.288,2.2893,2.2893,2.2893,2.2893,2.2893,2.2893,2.2893,2.2962,2.3065,2.3099,2.3133,2.3304,2.3311,2.3311,2.3311,2.3754,2.3993,2.3993,2.3993,2.3993,2.3993,2.4333,2.4503,2.4503,2.5701,2.7182,2.8934,2.9365,3.0479,4.2892,4.2892,4.2892,0.0,0.0,0.0,4.2892,4.3035,4.34,4.4313,4.5011,0.0,0.0,0.0,0.0,0.0,0.0,0.0,0.0,0.0,0.0,0.0,0.0,0.0,0.0,0.0,0.0,0.0,0.0,0.0,0.0,0.0,0.0,0.0,0.0,0.0,0.0,3.9785,3.9607,3.9607,3.9463,3.849,3.683,3.7215,3.6441,3.4805,3.5155,3.5449,3.5636,3.5744,3.6008,3.6179,3.3932,3.343,3.3678,3.1435,3.0854,3.116,3.116,3.1054,3.0889,3.0889,3.0616,3.0089,2.9196,2.7727,2.6225,2.5348,2.4116,2.3043,2.2825,2.2926,2.2856,2.1985,2.1922,2.1954,2.1393,2.1667,2.1984,2.1984,2.2492,2.2893,2.2893,2.2893,2.2893,2.2893,2.2893,2.2893,2.2893,2.2893,2.2893,2.2893,2.2893,2.2893,2.2893,2.2893,2.2893,2.2893,2.3379,2.3652,2.3652,2.3652,2.3652,2.3652,2.4129,2.4383,2.4475,2.5279,2.6635,2.848,2.8761,2.9544,4.2892,4.2892,4.2892,0.0,0.0,0.0,4.2892,4.2747,4.2928,4.4066,0.0,0.0,0.0,0.0,0.0,0.0,0.0,0.0,0.0,0.0,0.0,0.0,0.0,0.0,0.0,0.0,0.0,0.0,0.0,0.0,0.0,0.0,0.0,0.0,0.0,0.0,0.0,3.9499,3.9406,3.9406,3.9406,3.842,3.6621,3.7155,3.6379,3.4635,3.4968,3.5111,3.5139,3.5397,3.5845,3.6156,3.3761,3.3115,3.3285,3.0898,3.0393,3.0889,3.0889,3.0889,3.0889,3.0889,2.9991,2.892,2.892,2.7147,2.5133,2.5133,2.4154,2.3106,2.3106,2.3106,2.2926,2.2261,2.2111,2.2017,2.167,2.1796,2.1984,2.1984,2.2492,2.2893,2.2893,2.2893,2.2893,2.2893,2.2893,2.2893,2.2893,2.2893,2.2893,2.2893,2.2893,2.2893,2.2893,2.2893,2.2893,2.2893,2.2893,2.2893,2.2893,2.2893,2.2893,2.2893,2.3618,2.4147,2.4414,2.5472,2.6947,2.8777,2.9048,2.8991,4.2892,4.2892,0.0,4.2892,0.0,0.0,0.0,4.2747,0.0,0.0,0.0,0.0,0.0,0.0,0.0,0.0,0.0,0.0,0.0,0.0,0.0,0.0,0.0,0.0,0.0,0.0,0.0,0.0,0.0,0.0,0.0,0.0,0.0,0.0,0.0,0.0,0.0,0.0,3.9406,3.9406,3.9265,3.8598,3.751,3.7288,3.6713,3.5866,3.5528,3.5621,3.601,3.6103,3.6243,3.6239,3.4569,3.3607,3.3001,3.1625,3.083,3.0449,3.0781,3.0889,3.0889,3.0889,3.0645,3.0304,3.0304,2.8492,2.6437,2.6437,2.4826,2.3106,2.3106,2.3106,2.2981,2.255,2.2456,2.2299,2.1734,2.199,2.228,2.205,2.2492,2.2893,2.2893,2.2893,2.2893,2.2893,2.2893,2.2893,2.2893,2.2893,2.2893,2.2893,2.2893,2.2893,2.2893,2.2893,2.2893,2.2893,2.2893,2.2893,2.2893,2.2893,2.2893,2.2893,2.3825,2.4323,2.4414,2.5696,2.6655,2.7171,2.7509,2.7441,4.2892,4.2892,0.0,4.2892,4.2892,4.2892,4.2892,0.0,0.0,0.0,0.0,0.0,0.0,0.0,0.0,0.0,0.0,0.0,0.0,0.0,0.0,0.0,0.0,0.0,0.0,0.0,0.0,0.0,0.0,0.0,0.0,0.0,0.0,0.0,0.0,0.0,0.0,0.0,0.0,3.9283,3.9159,3.876,3.8089,3.7091,3.6359,3.5913,3.561,3.5832,3.6405,3.6405,3.6346,3.6049,3.4264,3.3263,3.2682,3.1312,3.0554,3.0264,3.0732,3.0889,3.0889,3.0889,3.0548,3.0118,3.0118,2.8641,2.6892,2.6377,2.5094,2.3783,2.323,2.3106,2.3043,2.2856,2.2699,2.2456,2.1922,2.2176,2.2412,2.2083,2.2492,2.2893,2.2893,2.2893,2.2893,2.2893,2.2893,2.2893,2.2893,2.2893,2.2893,2.2893,2.2893,2.2893,2.2893,2.2893,2.2893,2.2893,2.2893,2.2893,2.2893,2.2893,2.2893,2.2893,2.3776,2.4261,2.4351,2.5492,2.6092,2.6222,2.6416,2.6326,4.2892,0.0,0.0,4.2892,4.2892,0.0,4.2892,0.0,0.0,0.0,0.0,0.0,0.0,0.0,0.0,0.0,0.0,0.0,0.0,0.0,0.0,0.0,0.0,0.0,0.0,0.0,0.0,0.0,0.0,0.0,0.0,0.0,0.0,0.0,0.0,0.0,0.0,0.0,0.0,0.0,3.9086,3.8867,3.8441,3.668,3.5634,3.518,3.5405,3.5832,3.6405,3.6358,3.6204,3.5764,3.3453,3.2571,3.2341,3.054,3.0001,3.0215,3.0713,3.0889,3.0889,3.0889,3.0089,2.9078,2.9078,2.8176,2.6922,2.5623,2.5194,2.4795,2.3448,2.3106,2.3106,2.3106,2.2856,2.2543,2.2174,2.2316,2.2411,2.2083,2.2472,2.286,2.2893,2.2893,2.2893,2.2893,2.2893,2.2893,2.2893,2.2893,2.2893,2.2893,2.2893,2.2893,2.2893,2.2893,2.2893,2.2893,2.2893,2.2893,2.2893,2.2893,2.2893,2.2893,2.3596,2.4071,2.4302,2.4997,2.5483,2.58,2.58,2.5586,4.2892,4.2892,0.0,0.0,4.2892,4.2892,4.2892,4.2999,0.0,0.0,0.0,0.0,0.0,0.0,0.0,0.0,0.0,0.0,0.0,0.0,0.0,0.0,0.0,0.0,0.0,0.0,0.0,0.0,0.0,0.0,0.0,0.0,0.0,0.0,0.0,0.0,3.9391,3.9406,3.9301,0.0,3.8943,3.8741,3.8441,3.668,3.551,3.4831,3.5286,3.5832,3.6381,3.6169,3.6063,3.592,3.4957,3.3582,3.2123,3.2185,3.1141,2.9843,3.0615,3.0889,3.0889,3.0889,3.0704,3.046,3.046,2.954,2.8236,2.6952,2.5859,2.4795,2.3448,2.3106,2.3106,2.3106,2.3043,2.2832,2.2237,2.2341,2.2457,2.2069,2.2271,2.2585,2.2853,2.2893,2.2893,2.2893,2.2893,2.2893,2.2893,2.2893,2.2893,2.2893,2.2893,2.2893,2.2893,2.2893,2.2893,2.2893,2.2893,2.2893,2.2893,2.2893,2.2893,2.2893,2.3758,2.4241,2.4302,2.5248,2.573,2.58,2.58,2.5586,4.2892,0.0,0.0,4.2892,0.0,4.2892,4.2892,4.2892,0.0,0.0,0.0,0.0,0.0,0.0,0.0,0.0,0.0,0.0,0.0,0.0,0.0,0.0,0.0,0.0,0.0,0.0,0.0,0.0,0.0,0.0,0.0,0.0,0.0,0.0,0.0,0.0,3.8916,3.8931,3.8937,3.8962,3.8852,3.8215,3.7083,3.6168,3.5381,3.4715,3.5004,3.5617,3.6381,3.6098,3.592,3.5716,3.4787,3.3375,3.1837,3.2009,3.1014,2.9725,3.0586,3.0889,3.0889,3.0889,3.0889,3.0889,3.0889,3.0401,2.9599,2.8274,2.7426,2.6603,2.5301,2.4517,2.4062,2.4062,2.3573,2.2918,2.223,2.2356,2.2471,2.2095,2.2218,2.2512,2.2847,2.2893,2.2893,2.2893,2.2893,2.2893,2.2893,2.2893,2.2893,2.2893,2.2893,2.2893,2.2893,2.2893,2.2893,2.2893,2.2893,2.2893,2.2893,2.2893,2.2967,2.308,2.3739,2.4106,2.4248,2.492,2.5219,2.5219,2.5219,2.5109,4.2892,0.0,4.2892,4.2892,4.2892,0.0,4.2892,4.2892,0.0,0.0,0.0,0.0,0.0,0.0,0.0,0.0,0.0,0.0,0.0,0.0,0.0,0.0,0.0,0.0,0.0,0.0,0.0,0.0,0.0,0.0,0.0,0.0,3.9034,3.8831,3.799,3.774,3.823,3.8245,3.8347,3.8638,3.8683,3.7691,3.5815,3.5815,3.5423,3.4703,3.4703,3.533,3.6323,3.6027,3.5764,3.5416,3.4262,3.3014,3.1848,3.1581,3.0805,2.9967,3.0663,3.0889,3.0889,3.0889,3.0889,3.0889,3.0889,3.0889,3.0616,2.9285,2.889,2.8564,2.7065,2.5898,2.5041,2.4795,2.3907,2.2926,2.2324,2.2346,2.244,2.2147,2.2298,2.2572,2.2853,2.2893,2.2893,2.2893,2.2893,2.2893,2.2893,2.2893,2.2893,2.2893,2.2893,2.2893,2.2893,2.2893,2.2893,2.2893,2.2893,2.2893,2.2893,2.2947,2.3086,2.34,2.3647,2.3915,2.4202,2.4459,2.4599,2.4599,2.4599,2.4599,0.0,0.0,4.2892,0.0,4.2892,4.2892,0.0,0.0,0.0,0.0,0.0,0.0,0.0,0.0,0.0,0.0,0.0,0.0,0.0,0.0,0.0,0.0,0.0,0.0,0.0,0.0,0.0,0.0,0.0,0.0,0.0,3.8881,3.8345,3.8144,3.7293,0.0,3.7539,3.7522,3.7677,3.7938,3.8168,3.7739,3.6727,3.6727,3.5998,3.4703,3.4703,3.5215,3.6027,3.5764,3.55,3.5199,3.4799,3.3956,3.2964,3.2751,3.1947,3.0982,3.0912,3.0889,3.0889,3.0889,3.0889,3.0889,3.0889,3.0889,3.0616,2.9285,2.889,2.8346,2.5973,2.5225,2.4795,2.3635,2.323,2.3012,2.2606,2.2328,2.2215,2.2401,2.266,2.2847,2.2887,2.2893,2.2893,2.2893,2.2893,2.2893,2.2893,2.2893,2.2893,2.2893,2.2893,2.2893,2.2893,2.2893,2.2893,2.2893,2.2893,2.2893,2.2893,2.312,2.3407,2.3743,2.379,2.3915,2.4202,2.4459,2.4599,2.4599,2.4599,2.4599,4.2221,4.2221,4.2339,0.0,4.2892,4.2892,4.2892,0.0,0.0,0.0,0.0,0.0,0.0,0.0,0.0,0.0,0.0,0.0,0.0,0.0,0.0,0.0,0.0,0.0,0.0,0.0,0.0,0.0,0.0,0.0,4.0107,3.883,3.7927,3.7447,3.6532,0.0,3.6881,3.6896,3.7201,3.7806,3.7733,3.7423,3.6878,3.6399,3.5734,3.4996,3.5294,3.5494,3.5557,3.5593,3.544,3.5175,3.4896,3.3783,3.2358,3.2761,3.1795,3.0366,3.0749,3.0889,3.0889,3.0889,3.0889,3.0889,3.0889,3.0889,3.0772,3.0186,3.003,2.9599,2.7718,2.6693,2.5782,2.4301,2.3503,2.2957,2.2425,2.2205,2.2134,2.2198,2.2593,2.2893,2.2893,2.2893,2.2893,2.2893,2.2893,2.2893,2.2893,2.2893,2.2893,2.2893,2.2893,2.2893,2.2893,2.2893,2.2893,2.2893,2.2893,2.2893,2.2893,2.316,2.3467,2.3797,2.3964,2.4155,2.4406,2.4539,2.4599,2.4599,2.4599,2.4599,0.0,0.0,4.1831,4.2448,4.2747,4.2892,0.0,0.0,0.0,0.0,0.0,0.0,0.0,0.0,0.0,0.0,0.0,0.0,0.0,0.0,0.0,0.0,0.0,0.0,0.0,0.0,0.0,0.0,0.0,0.0,4.0261,3.8969,3.7767,3.67,3.5907,3.5744,3.6254,3.6304,3.6669,3.732,3.731,3.7201,3.6976,3.6271,3.571,3.5308,3.5483,3.5374,3.5116,3.5399,3.5344,3.5078,3.4884,3.3808,3.2459,3.2788,3.1859,3.0477,3.0778,3.0889,3.0889,3.0889,3.0889,3.0889,3.0889,3.0889,3.0889,3.0889,3.0889,3.0528,2.884,2.7649,2.6396,2.4533,2.3441,2.2707,2.2205,2.2111,2.2072,2.2015,2.2432,2.2806,2.288,2.2893,2.2893,2.2893,2.2893,2.2893,2.2893,2.2893,2.2893,2.2893,2.2893,2.2893,2.2893,2.2893,2.2893,2.2893,2.2893,2.2893,2.2893,2.3233,2.3547,2.3803,2.4128,2.4386,2.4599,2.4599,2.4599,2.4599,2.4599,2.4599,0.0,4.1126,0.0,4.1741,4.2339,0.0,0.0,0.0,0.0,0.0,0.0,0.0,0.0,0.0,0.0,0.0,0.0,0.0,0.0,0.0,0.0,0.0,0.0,0.0,0.0,0.0,0.0,0.0,0.0,0.0,3.9503,3.9093,3.796,3.5842,3.5587,3.5519,3.5549,3.58,3.5954,3.6011,3.6887,3.728,3.7283,3.6972,3.6373,3.5521,3.4738,3.4546,3.4835,3.51,3.5054,3.4835,3.4811,3.4726,3.4491,3.3328,3.2818,3.2555,3.1333,3.0889,3.0889,3.0889,3.0889,3.0889,3.0889,3.0889,3.0889,3.0889,3.0889,3.0313,2.7774,2.6806,2.5871,2.3309,2.2418,2.2142,2.2111,2.2088,2.207,2.2023,2.2231,2.2532,2.2847,2.2893,2.2893,2.2893,2.2893,2.2893,2.2893,2.2893,2.2893,2.2893,2.2893,2.2893,2.2893,2.2893,2.2893,2.2893,2.2893,2.2893,2.2893,2.3469,2.379,2.381,2.4329,2.4586,2.4599,2.4599,2.4599,2.4599,2.4599,2.4599,0.0,0.0,0.0,4.1578,4.2303,4.2892,0.0,0.0,0.0,0.0,0.0,0.0,0.0,0.0,0.0,0.0,0.0,0.0,0.0,0.0,0.0,0.0,0.0,0.0,0.0,0.0,0.0,0.0,0.0,0.0,4.063,3.9548,3.8183,3.6414,3.5782,3.5439,3.531,3.527,3.5413,3.5722,3.5962,3.6522,3.728,3.6618,3.6,3.5379,3.5028,3.4665,3.4344,3.4954,3.5054,3.4799,3.4799,3.4372,3.3666,3.2764,3.2174,3.1671,3.0765,3.0644,3.0889,3.0889,3.0889,3.0889,3.0889,3.0889,3.0889,3.0889,3.0762,3.0186,2.8412,2.7705,2.6806,2.4193,2.2473,2.1513,2.1734,2.1942,2.209,2.1996,2.2218,2.2512,2.2847,2.2893,2.2893,2.2893,2.2893,2.2893,2.2893,2.2893,2.2893,2.2893,2.2893,2.2893,2.2893,2.2893,2.2893,2.2893,2.2893,2.2893,2.2893,2.3482,2.381,2.381,2.4342,2.4599,2.4599,2.4599,2.4599,2.4599,2.4599,2.4599,3.8997,0.0,0.0,0.0,0.0,4.2556,0.0,0.0,0.0,0.0,0.0,0.0,0.0,0.0,0.0,0.0,0.0,0.0,0.0,0.0,0.0,0.0,0.0,0.0,0.0,0.0,0.0,0.0,0.0,0.0,4.1591,4.0349,3.873,3.6662,3.5878,3.5392,3.5197,3.5001,3.5024,3.5297,3.5377,3.5941,3.6932,3.5996,3.548,3.5291,3.4931,3.4439,3.3923,3.4725,3.4957,3.4799,3.4799,3.4372,3.3618,3.259,3.2024,3.1613,3.0567,3.0508,3.0889,3.0889,3.0889,3.0889,3.0889,3.0889,3.0889,3.0762,3.0577,3.0089,2.868,2.7435,2.6048,2.4186,2.2404,2.1172,2.1393,2.1613,2.1806,2.1976,2.2138,2.2398,2.2827,2.2893,2.2893,2.2893,2.2893,2.2893,2.2893,2.2893,2.2893,2.2893,2.2893,2.2893,2.2893,2.2893,2.2893,2.2893,2.2893,2.294,2.3047,2.3536,2.385,2.3915,2.4352,2.4599,2.4599,2.4599,2.4599,2.4599,2.4599,2.4599,0.0,0.0,0.0,0.0,0.0,0.0,0.0,0.0,0.0,0.0,0.0,0.0,0.0,0.0,0.0,0.0,0.0,0.0,0.0,0.0,0.0,0.0,0.0,0.0,0.0,0.0,0.0,0.0,0.0,4.3877,4.2224,4.1411,3.959,3.6523,3.586,3.5438,3.518,3.5001,3.4819,3.4696,3.5141,3.568,3.6247,3.5202,3.4933,3.527,3.442,3.3896,3.3717,3.4474,3.4799,3.4799,3.4799,3.4799,3.4579,3.2862,3.2516,3.2642,3.0856,3.0517,3.0889,3.0889,3.0889,3.0889,3.0889,3.0889,3.083,3.048,3.0392,3.0001,2.8433,2.5873,2.3605,2.3232,2.2121,2.1141,2.1109,2.1109,2.1283,2.1864,2.1977,2.2204,2.278,2.2887,2.2893,2.2893,2.2893,2.2893,2.2893,2.2893,2.2893,2.2893,2.2893,2.2893,2.2893,2.2893,2.2893,2.2893,2.2887,2.2993,2.3278,2.3607,2.393,2.4195,2.4452,2.4599,2.4599,2.4599,2.4599,2.4599,2.4599,2.4599,3.82,0.0,0.0,0.0,0.0,0.0,0.0,0.0,0.0,0.0,0.0,0.0,0.0,0.0,0.0,0.0,0.0,0.0,0.0,0.0,0.0,0.0,0.0,0.0,0.0,0.0,0.0,0.0,4.4615,4.4106,4.2961,4.1554,3.9681,3.7264,3.7042,3.6301,3.4999,3.4935,3.4752,3.4481,3.4605,3.5026,3.5648,3.5486,3.5544,3.571,3.5474,3.515,3.4752,3.4787,3.4799,3.4799,3.4799,3.4799,3.464,3.3386,3.2919,3.2695,3.1395,3.0897,3.0889,3.0889,3.0889,3.0889,3.0889,3.0733,3.0509,3.0421,3.0089,2.9588,2.8907,2.7414,2.5782,2.4748,2.3481,2.2278,2.1292,2.1109,2.1223,2.1629,2.1877,2.2104,2.2478,2.2753,2.2893,2.2893,2.2893,2.2893,2.2893,2.2893,2.2893,2.2893,2.2893,2.2893,2.2893,2.2893,2.2893,2.2893,2.2659,2.2779,2.3272,2.3407,2.3688,2.4195,2.4452,2.4599,2.4599,2.4599,2.4599,2.4599,2.4599,2.4599,0.0,0.0,0.0,0.0,0.0,0.0,4.094,4.1452,0.0,0.0,0.0,0.0,0.0,0.0,0.0,0.0,0.0,0.0,0.0,0.0,0.0,0.0,0.0,0.0,0.0,0.0,0.0,0.0,4.3636,4.3351,4.2693,4.17,4.0423,3.8793,3.8214,3.7233,3.5786,3.5468,3.5016,3.4397,3.4397,3.4662,3.5131,3.4888,3.4919,3.5175,3.5055,3.4853,3.4704,3.4776,3.4799,3.4799,3.4799,3.4799,3.4677,3.361,3.3066,3.2738,3.1594,3.1069,3.0889,3.0889,3.0889,3.0859,3.0733,3.0548,3.0362,3.0089,2.9686,2.9124,2.8361,2.7172,2.5821,2.4525,2.3201,2.2059,2.126,2.1109,2.1196,2.1529,2.1823,2.2078,2.2331,2.2665,2.2893,2.2893,2.2893,2.2893,2.2893,2.2893,2.2893,2.2893,2.2893,2.2893,2.2893,2.2893,2.2893,2.2893,2.2579,2.2746,2.348,2.3359,2.3625,2.4332,2.4512,2.4599,2.4599,2.4599,2.4599,2.4599,2.4599,2.4599,0.0,0.0,0.0,0.0,0.0,0.0,4.0521,4.1273,4.1816,0.0,0.0,0.0,0.0,0.0,0.0,0.0,0.0,0.0,0.0,0.0,0.0,0.0,0.0,0.0,0.0,0.0,4.2441,4.2313,4.2303,4.219,4.2021,4.1948,4.151,4.0653,3.9472,3.828,3.7121,3.6382,3.5514,3.4499,3.4426,3.4499,3.465,3.392,3.3844,3.4283,3.3922,3.395,3.4257,3.4631,3.4799,3.4799,3.4799,3.4799,3.4677,3.361,3.3032,3.2662,3.1584,3.1039,3.082,3.0869,3.0859,3.0791,3.048,3.0362,3.0177,2.9618,2.9124,2.8489,2.7323,2.6003,2.4687,2.3411,2.2184,2.1292,2.1141,2.1109,2.1189,2.1489,2.1796,2.2071,2.2325,2.2645,2.2893,2.2893,2.2893,2.2893,2.2893,2.2893,2.2893,2.2893,2.2893,2.2893,2.2893,2.2893,2.2893,2.2893,2.2552,2.2792,2.377,2.3454,2.3672,2.4579,2.4599,2.4599,2.4599,2.4599,2.4599,2.4599,2.4599,2.4599,0.0,0.0,0.0,0.0,0.0,0.0,3.9602,4.0668,4.1648,0.0,0.0,0.0,0.0,0.0,0.0,0.0,0.0,0.0,0.0,0.0,0.0,0.0,0.0,0.0,0.0,0.0,4.2441,4.2313,4.2196,4.233,4.2755,4.2668,4.2217,4.1413,4.1123,3.9945,3.7756,3.7093,3.6246,3.5203,3.4661,3.4268,3.4005,3.404,3.442,3.4984,3.4474,3.4796,3.5579,3.5017,3.4799,3.4799,3.4799,3.4799,3.4677,3.361,3.2833,3.2234,3.1469,3.0817,3.0391,3.0771,3.0733,3.048,3.0411,3.0059,2.9588,2.9213,2.8271,2.7323,2.7082,2.6003,2.4687,2.3411,2.2889,2.2396,2.1324,2.1109,2.1129,2.1182,2.1623,2.2004,2.2064,2.2546,2.2893,2.2893,2.2893,2.2893,2.2893,2.2893,2.2893,2.2893,2.2893,2.2893,2.2893,2.2893,2.2893,2.2893,2.2365,2.2619,2.3756,2.3275,2.3487,2.4579,2.4599,2.4599,2.4599,2.4599,2.4599,2.4599,2.4599,2.4599,0.0,0.0,0.0,3.7344,0.0,0.0,0.0,4.0488,4.1582,4.1515,0.0,0.0,0.0,0.0,0.0,0.0,0.0,0.0,0.0,0.0,0.0,0.0,0.0,0.0,0.0,0.0,4.1277,4.1213,4.1424,4.1648,4.1884,4.2467,4.2578,4.206,4.1919,4.1039,3.9353,3.8238,3.7062,3.5793,3.4989,3.4226,3.3545,3.3482,3.3817,3.445,3.4483,3.4898,3.5533,3.5425,3.5163,3.4799,3.4799,3.4799,3.4677,3.361,3.2766,3.2071,3.1213,3.0575,3.0206,3.0306,3.0374,3.0323,3.003,2.9627,2.9094,2.8241,2.7513,2.671,2.5385,2.4556,2.3721,2.2396,2.209,2.1908,2.126,2.1109,2.1109,2.1109,2.147,2.185,2.1997,2.2352,2.2726,2.2873,2.2893,2.2893,2.2893,2.2893,2.2893,2.2893,2.2893,2.2893,2.2893,2.2893,2.2833,2.2652,2.2231,2.2318,2.3066,2.298,2.342,2.4579,2.4599,2.4599,2.4599,2.4599,2.4599,2.4599,2.4599,2.4599,0.0,0.0,0.0,0.0,0.0,3.9347,0.0,0.0,0.0,4.1437,0.0,0.0,0.0,0.0,0.0,0.0,0.0,0.0,0.0,0.0,0.0,0.0,0.0,0.0,0.0,0.0,4.0096,4.0096,4.05,4.0747,4.0796,4.1888,4.2515,4.2504,4.2369,4.1869,4.0992,3.9408,3.7925,3.6539,3.5375,3.432,3.3456,3.2937,3.3067,3.3723,3.408,3.4549,3.5126,3.5465,3.5282,3.4799,3.4799,3.4799,3.4677,3.361,3.2735,3.1945,3.0946,3.0293,2.9877,2.9823,2.9988,3.0118,2.9558,2.9213,2.8707,2.7383,2.6801,2.6064,2.3721,2.292,2.2428,2.1355,2.1109,2.1077,2.1014,2.1046,2.1077,2.1014,2.1271,2.1609,2.1924,2.2225,2.2519,2.2853,2.2893,2.2893,2.2893,2.2893,2.2893,2.2893,2.2893,2.2893,2.2893,2.2893,2.2773,2.2438,2.2144,2.2118,2.2371,2.2812,2.3541,2.4579,2.4599,2.4599,2.4599,2.4599,2.4599,2.4599,2.4599,2.4599,0.0,0.0,0.0,0.0,3.8665,0.0,0.0,0.0,4.156,4.1437,0.0,0.0,0.0,0.0,0.0,0.0,0.0,0.0,0.0,0.0,0.0,0.0,0.0,0.0,0.0,0.0,0.0,4.0096,3.9938,4.0135,4.0779,4.1278,4.1839,4.2487,4.2827,4.2584,4.1676,4.0143,3.888,3.786,3.5795,3.4548,3.407,3.3131,3.3067,3.3657,3.3145,3.3747,3.5042,3.4481,3.445,3.4799,3.4799,3.4799,3.4677,3.361,3.2547,3.1563,3.0842,2.9755,2.8831,2.9555,2.9697,2.9529,2.9153,2.9044,2.8707,2.7383,2.6125,2.4902,2.3473,2.2215,2.1292,2.1141,2.1109,2.1014,2.0736,2.0887,2.1014,2.0697,2.092,2.1336,2.1891,2.2225,2.2519,2.2853,2.2893,2.2893,2.2893,2.2893,2.2893,2.2893,2.2893,2.2893,2.2893,2.2893,2.2773,2.2438,2.2144,2.2118,2.2371,2.3227,2.3975,2.4586,2.4599,2.4599,2.4599,2.4599,2.4599,2.4599,2.4599,2.4599,0.0,0.0,0.0,0.0,0.0,0.0,0.0,0.0,4.156,0.0,0.0,0.0,0.0,0.0,0.0,0.0,0.0,0.0,0.0,0.0,0.0,0.0,0.0,0.0,0.0,0.0,0.0,0.0,0.0,3.9837,4.0143,4.0579,4.1143,4.1841,4.2052,4.2211,4.2269,4.0927,3.9558,3.8212,3.671,3.5262,3.3825,3.3207,3.3268,3.3799,3.3479,3.3883,3.4735,3.47,3.4566,3.4378,3.4691,3.4799,3.4592,3.2901,3.1982,3.1341,2.9621,2.8792,2.8568,2.906,2.9072,2.8887,2.897,2.9014,2.8549,2.6437,2.5423,2.4533,2.2466,2.1506,2.1109,2.1109,2.0951,2.0767,2.064,2.0704,2.0767,2.064,2.0856,2.1179,2.1364,2.1839,2.2265,2.2559,2.2786,2.2893,2.2893,2.2893,2.2893,2.2893,2.2893,2.2893,2.2893,2.2893,2.2699,2.2198,2.173,2.1837,2.2645,2.3074,2.3681,2.4579,2.4599,2.4599,2.4599,2.4599,2.4599,2.4599,2.4599,2.4599,4.0157,0.0,0.0,0.0,0.0,0.0,0.0,0.0,0.0,0.0,0.0,0.0,0.0,0.0,0.0,0.0,0.0,0.0,0.0,0.0,0.0,0.0,0.0,0.0,0.0,0.0,0.0,0.0,3.9833,0.0,3.9655,4.0117,4.071,4.1378,4.1477,4.1842,4.2601,4.1407,4.006,3.8556,3.7434,3.5845,3.385,3.3342,3.339,3.3896,3.3655,3.3908,3.4514,3.467,3.4444,3.403,3.4438,3.4497,3.4164,3.2613,3.1793,3.1143,2.9065,2.8294,2.8281,2.8332,2.8369,2.8385,2.8296,2.837,2.7903,2.5232,2.4471,2.3946,2.1695,2.1109,2.1109,2.1109,2.0824,2.0577,2.0482,2.045,2.045,2.045,2.0672,2.0826,2.0876,2.1411,2.1886,2.211,2.2468,2.2756,2.2756,2.2825,2.2893,2.2893,2.2893,2.2893,2.2893,2.2893,2.2646,2.2057,2.1436,2.1597,2.2733,2.2853,2.338,2.4459,2.4559,2.4599,2.4599,2.4599,2.4599,2.4599,2.4599,2.4599,0.0,0.0,0.0,4.0274,0.0,0.0,0.0,0.0,4.156,0.0,0.0,0.0,0.0,0.0,0.0,0.0,0.0,0.0,0.0,0.0,0.0,0.0,0.0,0.0,0.0,0.0,0.0,3.9926,3.9781,0.0,3.9498,4.0079,4.071,4.1378,4.1477,4.1842,4.2601,4.1407,4.0272,3.9257,3.7667,3.6073,3.4537,3.3547,3.339,3.3869,3.3203,3.3517,3.445,3.3834,3.3724,3.3994,3.4006,3.3703,3.325,3.3176,3.2289,3.0957,2.9838,2.866,2.7605,2.7317,2.7775,2.8146,2.687,2.6773,2.652,2.3907,2.3162,2.2827,2.145,2.1109,2.1109,2.1109,2.0824,2.0513,2.0202,2.0106,2.0106,2.0106,2.0106,2.0234,2.0558,2.1052,2.1421,2.1443,2.1923,2.231,2.231,2.2654,2.2893,2.2893,2.2893,2.2893,2.2893,2.2893,2.2646,2.2057,2.1436,2.1503,2.2398,2.2746,2.3322,2.4202,2.4452,2.4599,2.4599,2.4599,2.4599,2.4599,2.4599,2.4599,0.0,0.0,4.0891,4.1165,0.0,0.0,0.0,0.0,0.0,0.0,0.0,0.0,0.0,0.0,0.0,0.0,0.0,0.0,0.0,0.0,0.0,0.0,0.0,0.0,0.0,0.0,0.0,3.9914,3.9785,3.9638,0.0,3.9614,3.9899,4.0386,4.0642,4.104,4.1594,4.1417,4.0786,3.9677,3.8618,3.7193,3.5483,3.4216,3.3954,3.4444,3.3369,3.3303,3.3947,3.3633,3.3306,3.3057,3.3754,3.3347,3.2374,3.1953,3.1071,2.9838,2.8366,2.7453,2.6967,2.7151,2.6837,2.6419,2.6403,2.593,2.5095,2.3538,2.3107,2.2796,2.1443,2.1109,2.1046,2.0824,2.0513,2.017,1.9839,1.9775,1.9775,1.9775,1.9941,2.0074,1.9966,2.025,2.0623,2.1001,2.1443,2.1863,2.225,2.2413,2.2585,2.2859,2.2893,2.2893,2.2893,2.2539,2.2151,2.1756,2.1329,2.1503,2.2345,2.2512,2.308,2.4182,2.4302,2.4406,2.4599,2.4599,2.4599,2.4599,2.4599,2.4599,4.1881,4.1697,0.0,0.0,4.1604,0.0,4.1538,0.0,0.0,0.0,0.0,0.0,0.0,0.0,0.0,0.0,0.0,0.0,0.0,0.0,0.0,0.0,0.0,0.0,0.0,0.0,4.0007,3.9833,3.9742,3.9612,0.0,0.0,3.9481,3.9884,3.9996,4.0381,4.1085,4.1198,4.064,3.9484,3.8949,3.7604,3.5542,3.4435,3.4246,3.4742,3.371,3.3434,3.3696,3.3606,3.3148,3.254,3.3003,3.2434,3.1373,3.1168,3.0037,2.8445,2.7278,2.6736,2.6628,2.6912,2.6261,2.5418,2.5461,2.4719,2.3635,2.2522,2.2215,2.1964,2.1014,2.0729,2.0704,2.0482,2.0164,1.9877,1.9641,1.9514,1.945,1.9577,1.9679,1.9717,1.9609,1.9636,1.9852,2.0347,2.0843,2.1314,2.1725,2.2074,2.2413,2.2654,2.2791,2.2853,2.2712,2.2298,2.1897,2.1602,2.1301,2.141,2.2084,2.2311,2.2886,2.3875,2.4095,2.4349,2.4599,2.4599,2.4599,2.4599,2.4599,2.4599]},{"header":{"parameterUnit":"m.s-1","parameterCategory":1,"la1":30.6,"la2":29.2853,"lo1":-89.7004,"lo2":-87.6739,"dx":0.0162,"dy":0.0183,"nx":112,"ny":82,"refTime":"2023-01-31T06:00:00:Z","depth":0,"parameterNumber":3,"parameterNumberName":"V-component_of_WINDS"},"data":[0.0,0.0,0.0,0.0,0.0,0.0,0.0,0.0,0.0,0.0,0.0,0.0,0.0,0.0,0.0,0.0,0.0,0.0,0.0,0.0,0.0,0.0,0.0,0.0,0.0,0.0,0.0,0.0,0.0,0.0,0.0,0.0,0.0,0.0,0.0,0.0,0.0,0.0,0.0,0.0,0.0,0.0,0.0,0.0,0.0,0.0,0.0,0.0,0.0,0.0,0.0,0.0,0.0,0.0,0.0,0.0,0.0,0.0,0.0,0.0,0.0,0.0,0.0,0.0,0.0,0.0,0.0,0.0,0.0,0.0,0.0,0.0,0.0,0.0,0.0,0.0,0.0,0.0,0.0,0.0,0.0,0.0,0.0,0.0,0.0,0.0,0.0,0.0,0.0,0.0,0.0,3.1578,3.171,3.178,3.178,3.178,3.178,3.178,0.0,0.0,0.0,0.0,0.0,0.0,0.0,0.0,0.0,0.0,0.0,0.0,0.0,0.0,0.0,0.0,0.0,0.0,0.0,0.0,0.0,0.0,0.0,0.0,0.0,0.0,0.0,0.0,0.0,0.0,0.0,0.0,0.0,0.0,0.0,0.0,0.0,0.0,0.0,0.0,0.0,0.0,0.0,0.0,0.0,0.0,0.0,0.0,0.0,0.0,0.0,0.0,0.0,0.0,0.0,0.0,0.0,0.0,0.0,0.0,0.0,0.0,0.0,0.0,0.0,0.0,0.0,0.0,0.0,0.0,0.0,0.0,0.0,0.0,0.0,0.0,0.0,0.0,0.0,0.0,0.0,0.0,0.0,0.0,0.0,0.0,0.0,0.0,0.0,0.0,0.0,0.0,0.0,0.0,0.0,0.0,0.0,0.0,0.0,0.0,0.0,0.0,0.0,0.0,3.1251,3.2168,3.2718,3.3027,3.3027,3.3027,3.3027,3.3027,0.0,0.0,0.0,0.0,0.0,0.0,0.0,0.0,0.0,0.0,0.0,0.0,0.0,0.0,0.0,0.0,0.0,0.0,0.0,0.0,0.0,0.0,0.0,0.0,0.0,0.0,0.0,0.0,0.0,0.0,0.0,0.0,0.0,0.0,0.0,0.0,0.0,0.0,0.0,0.0,0.0,0.0,0.0,0.0,0.0,0.0,0.0,0.0,0.0,0.0,0.0,0.0,0.0,0.0,0.0,0.0,0.0,0.0,0.0,0.0,0.0,0.0,0.0,0.0,0.0,0.0,0.0,0.0,0.0,0.0,0.0,0.0,0.0,0.0,0.0,0.0,0.0,0.0,0.0,0.0,0.0,0.0,0.0,0.0,0.0,0.0,0.0,0.0,0.0,0.0,0.0,0.0,0.0,0.0,0.0,0.0,0.0,0.0,0.0,0.0,0.0,0.0,0.0,3.1976,3.2378,3.2827,3.314,3.3308,3.3308,3.3603,3.3782,3.3782,3.3859,0.0,0.0,0.0,0.0,0.0,0.0,0.0,0.0,0.0,0.0,0.0,0.0,0.0,0.0,0.0,0.0,0.0,0.0,0.0,0.0,0.0,0.0,0.0,0.0,0.0,0.0,0.0,0.0,0.0,0.0,0.0,0.0,0.0,0.0,0.0,0.0,0.0,0.0,0.0,0.0,0.0,0.0,0.0,0.0,0.0,0.0,0.0,0.0,0.0,0.0,0.0,0.0,0.0,0.0,0.0,0.0,0.0,0.0,0.0,0.0,0.0,0.0,0.0,0.0,0.0,0.0,0.0,0.0,0.0,0.0,0.0,0.0,0.0,0.0,0.0,0.0,0.0,0.0,0.0,0.0,0.0,0.0,0.0,0.0,0.0,0.0,0.0,0.0,0.0,0.0,0.0,0.0,0.0,0.0,0.0,0.0,0.0,0.0,0.0,0.0,0.0,0.0,3.3501,3.3747,3.3747,3.3747,3.3747,3.3747,3.4165,3.4431,3.4431,3.4918,0.0,0.0,0.0,0.0,0.0,0.0,0.0,0.0,0.0,0.0,0.0,0.0,0.0,0.0,0.0,0.0,0.0,0.0,0.0,0.0,0.0,0.0,0.0,0.0,0.0,0.0,0.0,0.0,0.0,0.0,0.0,0.0,0.0,0.0,0.0,0.0,0.0,0.0,0.0,0.0,0.0,0.0,0.0,0.0,0.0,0.0,0.0,0.0,0.0,0.0,0.0,0.0,0.0,0.0,0.0,0.0,0.0,0.0,0.0,0.0,0.0,0.0,0.0,0.0,0.0,0.0,0.0,0.0,0.0,0.0,0.0,0.0,0.0,0.0,0.0,0.0,0.0,0.0,0.0,0.0,0.0,0.0,0.0,0.0,0.0,0.0,0.0,0.0,0.0,0.0,0.0,0.0,0.0,0.0,0.0,0.0,0.0,0.0,0.0,0.0,0.0,0.0,3.4822,3.5062,3.5062,3.5062,3.5062,3.5062,3.5105,3.5119,3.5119,3.5161,0.0,0.0,0.0,0.0,0.0,0.0,0.0,0.0,0.0,0.0,0.0,0.0,0.0,0.0,0.0,0.0,0.0,0.0,0.0,0.0,0.0,0.0,0.0,0.0,0.0,0.0,0.0,0.0,0.0,0.0,0.0,0.0,0.0,0.0,0.0,0.0,0.0,0.0,0.0,0.0,0.0,0.0,0.0,0.0,0.0,0.0,0.0,0.0,0.0,0.0,0.0,0.0,0.0,0.0,0.0,0.0,0.0,0.0,0.0,0.0,0.0,0.0,0.0,0.0,0.0,0.0,0.0,0.0,0.0,0.0,0.0,0.0,0.0,0.0,0.0,0.0,0.0,0.0,0.0,0.0,0.0,0.0,0.0,0.0,0.0,0.0,0.0,0.0,0.0,0.0,0.0,0.0,0.0,0.0,0.0,0.0,0.0,0.0,0.0,0.0,0.0,0.0,3.4929,3.5189,0.0,3.5189,3.5189,3.5189,3.5541,3.5766,3.5766,0.0,0.0,0.0,0.0,0.0,0.0,0.0,0.0,0.0,0.0,0.0,0.0,0.0,0.0,0.0,0.0,0.0,0.0,0.0,0.0,0.0,0.0,0.0,0.0,0.0,0.0,0.0,0.0,0.0,0.0,0.0,0.0,0.0,0.0,0.0,0.0,0.0,0.0,0.0,0.0,0.0,0.0,0.0,0.0,0.0,0.0,0.0,0.0,0.0,0.0,0.0,0.0,0.0,0.0,0.0,0.0,0.0,0.0,0.0,0.0,0.0,0.0,0.0,0.0,0.0,0.0,0.0,0.0,0.0,0.0,0.0,0.0,0.0,0.0,0.0,0.0,0.0,0.0,0.0,0.0,0.0,0.0,0.0,0.0,0.0,0.0,0.0,0.0,0.0,0.0,0.0,0.0,0.0,0.0,0.0,0.0,0.0,0.0,0.0,0.0,0.0,0.0,3.526,3.5558,3.5766,0.0,3.5766,3.5766,3.5766,3.6159,3.6379,3.6379,0.0,0.0,0.0,0.0,0.0,0.0,0.0,0.0,0.0,0.0,0.0,0.0,0.0,0.0,0.0,0.0,0.0,0.0,0.0,0.0,0.0,0.0,0.0,0.0,0.0,0.0,0.0,0.0,0.0,0.0,0.0,0.0,0.0,0.0,0.0,0.0,0.0,0.0,0.0,0.0,0.0,0.0,0.0,0.0,0.0,0.0,0.0,0.0,0.0,0.0,0.0,0.0,0.0,0.0,0.0,0.0,0.0,0.0,0.0,0.0,0.0,0.0,0.0,0.0,0.0,0.0,0.0,0.0,0.0,0.0,0.0,0.0,0.0,0.0,0.0,0.0,0.0,0.0,0.0,0.0,0.0,0.0,0.0,0.0,0.0,0.0,0.0,0.0,0.0,0.0,0.0,0.0,0.0,0.0,0.0,0.0,0.0,0.0,0.0,0.0,0.0,0.0,3.6869,3.6998,3.6998,3.6998,3.6998,3.6998,3.6998,3.7012,3.7012,0.0,0.0,0.0,0.0,0.0,0.0,0.0,0.0,0.0,0.0,0.0,0.0,0.0,0.0,0.0,0.0,0.0,0.0,0.0,0.0,0.0,0.0,0.0,0.0,0.0,0.0,0.0,0.0,0.0,0.0,0.0,0.0,0.0,0.0,0.0,0.0,0.0,0.0,0.0,0.0,0.0,0.0,0.0,0.0,0.0,0.0,0.0,0.0,0.0,0.0,0.0,0.0,0.0,0.0,0.0,0.0,0.0,0.0,0.0,0.0,0.0,0.0,0.0,0.0,0.0,0.0,0.0,0.0,0.0,0.0,0.0,0.0,0.0,0.0,0.0,0.0,0.0,0.0,0.0,0.0,0.0,0.0,0.0,0.0,0.0,0.0,0.0,0.0,0.0,0.0,0.0,0.0,0.0,0.0,0.0,0.0,0.0,0.0,0.0,0.0,0.0,0.0,0.0,3.6581,3.6817,3.6998,3.6998,3.6998,3.6998,3.6998,3.7386,3.7625,3.7625,0.0,0.0,0.0,0.0,0.0,0.0,0.0,0.0,0.0,0.0,0.0,0.0,0.0,0.0,0.0,0.0,0.0,0.0,0.0,0.0,0.0,0.0,0.0,0.0,0.0,0.0,0.0,0.0,0.0,0.0,0.0,0.0,0.0,0.0,0.0,0.0,0.0,0.0,0.0,0.0,0.0,0.0,0.0,0.0,0.0,0.0,0.0,0.0,0.0,0.0,0.0,0.0,0.0,0.0,0.0,0.0,0.0,0.0,0.0,0.0,0.0,0.0,0.0,0.0,0.0,0.0,0.0,0.0,0.0,0.0,0.0,0.0,0.0,0.0,0.0,0.0,0.0,0.0,0.0,0.0,0.0,0.0,0.0,0.0,0.0,0.0,0.0,0.0,0.0,0.0,0.0,0.0,0.0,0.0,0.0,0.0,0.0,0.0,0.0,0.0,0.0,0.0,3.7364,3.7612,3.7757,3.7757,3.7757,3.7757,3.7757,3.8094,3.8305,3.8305,0.0,0.0,0.0,0.0,0.0,0.0,0.0,0.0,0.0,0.0,0.0,0.0,0.0,0.0,0.0,0.0,0.0,0.0,0.0,0.0,0.0,0.0,0.0,0.0,0.0,0.0,0.0,0.0,0.0,0.0,0.0,0.0,0.0,0.0,0.0,0.0,0.0,0.0,0.0,0.0,0.0,0.0,0.0,0.0,0.0,0.0,0.0,0.0,0.0,0.0,0.0,0.0,0.0,0.0,0.0,0.0,0.0,0.0,0.0,0.0,0.0,0.0,0.0,0.0,0.0,0.0,0.0,0.0,0.0,0.0,0.0,0.0,0.0,0.0,0.0,0.0,0.0,0.0,0.0,0.0,0.0,0.0,0.0,0.0,0.0,0.0,0.0,0.0,0.0,0.0,0.0,0.0,0.0,0.0,0.0,0.0,0.0,0.0,0.0,0.0,0.0,0.0,3.877,3.8902,3.8902,3.8902,3.8902,3.8902,3.8902,3.8958,3.8986,3.8986,0.0,0.0,0.0,0.0,0.0,0.0,0.0,0.0,0.0,0.0,0.0,0.0,0.0,0.0,0.0,0.0,0.0,0.0,0.0,0.0,0.0,0.0,0.0,0.0,0.0,0.0,0.0,0.0,0.0,0.0,0.0,0.0,0.0,0.0,0.0,0.0,0.0,0.0,0.0,0.0,0.0,0.0,0.0,0.0,0.0,0.0,0.0,0.0,0.0,0.0,0.0,0.0,0.0,0.0,0.0,0.0,0.0,0.0,0.0,0.0,2.6047,0.0,0.0,0.0,0.0,0.0,0.0,0.0,0.0,0.0,0.0,0.0,0.0,0.0,0.0,0.0,0.0,0.0,0.0,0.0,0.0,0.0,0.0,0.0,0.0,0.0,0.0,0.0,0.0,0.0,0.0,0.0,0.0,0.0,0.0,0.0,0.0,0.0,0.0,0.0,0.0,0.0,3.8868,3.8902,3.8902,3.8902,3.8902,3.8902,3.8902,3.9331,3.9613,3.9613,0.0,0.0,0.0,0.0,0.0,0.0,0.0,0.0,0.0,0.0,0.0,0.0,0.0,0.0,0.0,0.0,0.0,0.0,0.0,0.0,0.0,0.0,0.0,0.0,0.0,0.0,0.0,0.0,0.0,0.0,0.0,0.0,0.0,0.0,0.0,0.0,0.0,0.0,0.0,0.0,0.0,0.0,0.0,0.0,0.0,0.0,0.0,0.0,0.0,0.0,0.0,0.0,0.0,0.0,0.0,0.0,0.0,0.0,0.0,0.0,0.0,2.6911,0.0,0.0,0.0,0.0,0.0,0.0,0.0,0.0,0.0,0.0,0.0,0.0,0.0,0.0,0.0,0.0,0.0,0.0,0.0,0.0,0.0,0.0,0.0,0.0,0.0,0.0,0.0,0.0,0.0,0.0,0.0,0.0,0.0,0.0,0.0,0.0,0.0,0.0,0.0,0.0,3.9739,3.9767,3.9767,3.9767,3.9767,3.9767,3.9767,4.0342,4.0582,4.0245,4.1104,0.0,0.0,0.0,0.0,0.0,0.0,0.0,0.0,0.0,0.0,0.0,0.0,0.0,0.0,0.0,0.0,0.0,0.0,0.0,0.0,0.0,0.0,0.0,0.0,0.0,0.0,0.0,0.0,0.0,0.0,0.0,0.0,0.0,0.0,0.0,0.0,0.0,0.0,0.0,0.0,0.0,0.0,0.0,0.0,0.0,0.0,0.0,0.0,0.0,0.0,0.0,0.0,0.0,0.0,0.0,2.5141,2.6414,2.7046,2.7087,2.6371,2.6817,2.8118,0.0,0.0,0.0,0.0,0.0,0.0,0.0,0.0,0.0,0.0,0.0,0.0,0.0,0.0,0.0,0.0,0.0,0.0,0.0,0.0,0.0,0.0,0.0,0.0,0.0,3.624,3.6267,0.0,0.0,0.0,0.0,0.0,0.0,0.0,0.0,0.0,0.0,0.0,0.0,4.0802,4.0773,4.0702,4.0702,4.0786,4.0899,4.1049,4.1645,4.1851,4.1419,4.2387,4.2737,0.0,0.0,0.0,0.0,0.0,0.0,0.0,0.0,0.0,0.0,0.0,0.0,0.0,0.0,0.0,0.0,0.0,0.0,0.0,0.0,0.0,0.0,0.0,0.0,0.0,0.0,0.0,0.0,0.0,0.0,0.0,0.0,2.1502,2.155,0.0,0.0,0.0,0.0,0.0,0.0,0.0,0.0,0.0,0.0,0.0,0.0,0.0,0.0,2.5359,2.6181,2.6726,2.7022,2.7905,2.8053,2.757,2.8515,2.919,2.9621,2.9496,0.0,2.9229,3.0733,0.0,0.0,0.0,0.0,0.0,0.0,0.0,0.0,0.0,0.0,0.0,0.0,0.0,0.0,0.0,0.0,0.0,0.0,0.0,0.0,0.0,0.0,3.6109,3.6109,3.6819,3.7462,0.0,3.7128,3.7284,3.8559,0.0,0.0,0.0,0.0,0.0,0.0,0.0,0.0,4.1479,4.1071,4.0702,4.0702,4.1179,4.175,4.2381,4.2991,4.3588,4.4136,4.4326,4.439,4.4305,4.4887,0.0,0.0,0.0,0.0,0.0,0.0,0.0,0.0,0.0,0.0,0.0,0.0,0.0,0.0,0.0,0.0,0.0,0.0,0.0,0.0,0.0,0.0,0.0,0.0,0.0,0.0,0.0,0.0,0.0,2.132,2.154,2.1655,2.175,2.1807,0.0,0.0,0.0,0.0,0.0,0.0,0.0,0.0,0.0,2.5617,2.6105,2.6488,2.6709,2.7558,2.7978,2.8002,2.8745,2.9278,2.9573,2.9801,3.0388,3.1243,3.1555,3.1555,3.1339,3.1668,3.2118,3.2656,0.0,0.0,0.0,0.0,0.0,0.0,3.4319,0.0,0.0,0.0,0.0,0.0,0.0,0.0,0.0,0.0,0.0,0.0,0.0,0.0,0.0,3.7439,3.786,3.8359,3.8876,3.9398,3.9729,0.0,4.0125,4.083,4.1675,0.0,0.0,0.0,0.0,0.0,4.3347,4.3136,4.2945,4.2945,4.3191,4.3457,4.3791,4.4371,4.4723,4.4704,4.5357,4.5604,4.5218,4.5834,4.6153,0.0,0.0,0.0,0.0,0.0,0.0,0.0,0.0,0.0,0.0,0.0,0.0,0.0,0.0,0.0,0.0,0.0,0.0,0.0,0.0,0.0,0.0,0.0,0.0,0.0,0.0,0.0,0.0,2.1416,2.1559,2.1769,2.1807,2.1807,0.0,0.0,0.0,0.0,0.0,0.0,2.4801,2.517,2.6082,2.7711,2.7821,2.7963,2.8186,2.917,2.9528,2.9268,2.9784,3.0487,3.1336,3.1137,3.1575,3.2536,3.2926,3.3139,3.3163,3.2608,3.2821,3.3503,3.3565,3.3928,0.0,3.4567,3.4633,3.4646,3.4789,3.5129,3.5495,3.5495,0.0,3.6332,3.6332,0.0,0.0,0.0,0.0,3.7361,3.7942,0.0,3.8431,3.8897,3.923,3.9663,4.0562,4.1619,4.2065,0.0,4.166,4.2616,4.3137,0.0,0.0,0.0,0.0,4.4767,4.492,4.4809,4.4704,4.4704,4.483,4.5018,4.5208,4.5768,4.6003,4.572,4.659,4.6935,4.6564,4.7036,4.7506,4.7969,0.0,0.0,0.0,0.0,0.0,0.0,0.0,0.0,0.0,0.0,0.0,0.0,0.0,0.0,0.0,0.0,0.0,0.0,0.0,0.0,0.0,0.0,0.0,0.0,0.0,0.0,0.0,0.0,0.0,2.1769,2.1807,0.0,0.0,0.0,0.0,2.2459,2.3665,2.4445,2.4524,2.65,2.7396,2.6878,2.9357,3.041,2.9777,3.1218,3.193,3.1915,3.1943,3.225,3.2787,3.2787,3.3082,3.3615,3.364,3.3801,3.4037,3.4011,3.4011,3.4079,3.4275,3.4371,3.4463,3.5038,3.5247,3.5325,3.5848,3.6031,3.6057,3.6057,3.6475,3.6959,3.6959,3.7351,0.0,0.0,3.7861,3.7975,3.8444,3.8992,3.9543,4.001,4.0886,4.1831,4.258,4.316,4.3344,0.0,4.3625,4.4552,4.4581,0.0,0.0,4.5456,4.5072,4.492,4.5477,4.5052,4.4704,4.4704,4.5207,4.5834,4.6533,4.7147,4.7764,4.8367,4.847,4.8677,4.9105,4.9146,4.9347,4.9762,4.9781,0.0,0.0,0.0,0.0,0.0,0.0,0.0,0.0,0.0,0.0,0.0,0.0,0.0,0.0,0.0,0.0,0.0,0.0,0.0,0.0,0.0,0.0,0.0,0.0,0.0,0.0,0.0,0.0,2.1788,2.2066,0.0,0.0,2.2677,2.3185,2.3747,2.4516,2.564,2.7239,2.8366,2.9343,3.0167,3.1296,3.1692,3.1321,3.1972,3.2481,3.2883,3.2708,3.3258,3.444,3.4279,3.4577,3.5236,3.5236,3.5301,3.5401,3.5401,3.5192,3.4879,3.4951,3.5195,3.5521,3.5744,3.5809,3.5848,3.6031,3.6358,3.6737,3.7142,3.7403,3.7586,3.7586,3.773,3.7978,3.8331,3.8655,3.9048,3.9605,4.0146,4.0642,4.1124,4.1874,4.2656,4.3232,4.4528,4.5533,4.5331,4.5275,4.5436,4.5906,4.6314,4.6782,4.7435,4.7345,4.7283,4.7496,4.733,4.7221,4.7221,4.7668,4.8091,4.8337,4.8815,4.9178,4.9421,4.9437,4.9517,4.9677,4.9677,4.9876,5.0273,5.0292,5.0522,0.0,0.0,0.0,0.0,0.0,0.0,0.0,0.0,0.0,0.0,0.0,0.0,0.0,0.0,0.0,0.0,0.0,0.0,0.0,0.0,0.0,0.0,0.0,0.0,0.0,0.0,2.2097,2.2252,2.2542,2.2729,2.2729,2.3277,2.405,2.5029,2.595,2.7379,2.9426,3.0115,3.0984,3.2154,3.2521,3.2665,3.2605,3.3114,3.3586,3.3983,3.3985,3.4528,3.5574,3.5388,3.5605,3.6109,3.6109,3.6109,3.6109,3.6109,3.6018,3.5848,3.5652,3.5796,3.6123,3.6332,3.641,3.6436,3.6645,3.6972,3.7377,3.7782,3.8031,3.8174,3.8174,3.8434,3.882,3.9175,3.9631,4.0166,4.0742,4.1437,4.2127,4.2597,4.3436,4.4267,4.4828,4.6043,4.7078,4.7302,4.6964,4.6761,4.7253,4.7676,4.8096,4.8522,4.8599,4.8661,4.8826,4.8847,4.8888,4.9015,4.9316,4.9497,4.9497,4.9737,4.9896,4.9896,4.9896,4.9955,5.0113,5.0113,5.0292,5.0733,5.0733,5.0886,5.1202,0.0,0.0,0.0,0.0,0.0,0.0,0.0,0.0,0.0,0.0,0.0,0.0,0.0,0.0,0.0,0.0,0.0,0.0,0.0,0.0,0.0,0.0,0.0,2.2511,2.2511,2.2687,2.3163,2.3215,2.3225,2.3225,2.4074,2.5105,2.6278,2.8015,2.9569,3.0807,3.1663,3.2226,3.2478,3.3062,3.3463,3.3679,3.4763,3.5325,3.5325,3.5848,3.6109,3.6136,3.6136,3.6136,3.6162,3.6162,3.6162,3.6162,3.6162,3.6502,3.6972,3.6358,3.6136,3.6227,3.6815,3.7037,3.7116,3.7704,3.7913,3.7926,3.7926,3.8292,3.876,3.876,3.953,4.0441,4.0455,4.0783,4.1258,4.1732,4.2847,4.3964,4.4427,4.5565,4.6733,4.745,4.7621,4.7813,4.8459,4.8599,4.8599,4.8599,4.8599,4.8599,4.8599,4.8604,0.0,4.9235,4.9316,4.9457,4.9872,4.9916,4.9916,4.9916,4.9935,4.9935,4.9935,4.9935,5.0113,5.0506,5.0525,5.0733,5.1183,5.1202,5.1202,5.1202,0.0,0.0,0.0,0.0,0.0,0.0,0.0,0.0,0.0,0.0,0.0,0.0,0.0,0.0,0.0,0.0,0.0,0.0,0.0,0.0,0.0,0.0,2.3018,2.3018,2.3018,2.3069,2.3174,2.3764,2.4146,2.4146,2.5776,2.7225,2.8186,2.9033,3.041,3.2488,3.2328,3.2888,3.4449,3.4653,3.4969,3.5417,3.573,3.5874,3.5874,3.6031,3.6332,3.6763,3.6763,3.6998,3.7416,3.7416,3.7416,3.7416,3.7416,3.7508,3.7599,3.6998,3.7024,3.7429,3.7599,3.7652,3.7678,3.7848,3.8161,3.8488,3.8488,3.9125,3.993,3.993,4.0388,4.1001,4.1433,4.1932,4.2439,4.2983,4.4068,4.5072,4.5185,4.6293,4.7349,4.7557,4.7982,4.8375,4.8563,4.8599,4.8599,4.8599,4.8599,4.8599,4.8599,0.0,0.0,4.9275,4.9557,4.9777,4.9892,5.0156,5.0331,5.0331,5.0637,5.0845,0.0,5.0845,5.0883,5.0997,5.1016,5.1073,5.1202,5.1202,5.1202,0.0,0.0,0.0,0.0,0.0,0.0,0.0,0.0,0.0,0.0,0.0,0.0,0.0,0.0,0.0,0.0,0.0,0.0,0.0,0.0,0.0,0.0,2.3629,2.3805,2.4022,2.3877,2.3826,2.4001,2.4653,2.5077,2.5077,2.639,2.7733,2.8941,2.9734,3.1202,3.3546,3.3576,3.4156,3.5591,3.5639,3.5783,3.6109,3.6358,3.6488,3.6488,3.6737,3.7037,3.7377,3.7377,3.7691,0.0,3.824,3.8383,3.8619,3.8619,3.8619,0.0,0.0,0.0,0.0,0.0,3.8044,3.824,3.824,3.8606,3.91,3.9336,4.0015,4.0778,4.1002,4.1565,4.2236,4.2578,4.3056,4.3598,4.4224,4.5164,4.6002,4.6307,4.7213,4.8019,4.8019,4.8334,4.8661,4.8867,0.0,0.0,4.9133,4.8995,4.8893,4.8893,4.9275,4.9617,0.0,5.0014,5.023,5.0425,5.0656,5.0791,5.0791,5.1035,0.0,0.0,0.0,5.1202,5.1202,5.1202,0.0,0.0,0.0,5.1202,0.0,0.0,0.0,0.0,5.1202,5.1202,0.0,0.0,0.0,0.0,0.0,0.0,0.0,0.0,0.0,0.0,0.0,0.0,0.0,0.0,0.0,0.0,2.4343,2.4735,2.5222,2.4973,2.488,2.5242,2.5689,2.598,2.598,2.6579,2.7645,2.9261,3.0456,3.2043,3.4279,0.0,0.0,0.0,0.0,3.624,3.6305,3.6841,3.7142,3.7207,3.7743,3.8031,3.8096,3.8096,3.8357,3.8815,3.8815,3.9115,3.9612,3.9612,3.9612,3.9507,3.8501,3.8096,3.8096,3.8096,3.8397,0.0,0.0,0.0,0.0,4.0346,4.0922,4.1558,4.2036,4.2902,4.3695,4.3695,4.403,4.4574,4.5299,4.6002,4.6704,4.7413,4.8124,4.8604,4.8682,4.8682,4.8826,4.9275,4.9376,4.9477,4.9836,4.9597,4.9376,4.9376,4.9717,0.0,5.0448,5.0544,5.0752,5.1164,0.0,0.0,5.1202,5.1202,5.1202,5.1202,5.1202,5.1202,5.1202,5.1202,5.1202,5.1221,5.124,5.124,5.1258,5.1258,5.1258,5.1258,5.1221,5.1202,0.0,0.0,0.0,0.0,0.0,0.0,0.0,0.0,0.0,0.0,0.0,0.0,0.0,0.0,0.0,2.4818,2.5015,2.5232,2.5689,2.5999,2.6094,2.5815,2.6177,2.6457,2.6457,2.8115,2.9749,3.1097,3.2143,3.36,3.5639,3.5348,0.0,3.6793,3.6828,3.7063,3.7547,3.7678,3.7952,3.8383,0.0,0.0,3.9272,3.9272,3.9337,3.9442,3.9442,3.9494,3.9612,3.9612,3.9612,3.9586,3.9364,3.9272,3.9272,3.9272,3.9351,3.9442,3.9442,4.0059,4.0895,4.1016,4.199,4.3173,4.3255,4.3744,0.0,4.4247,4.4317,4.4574,4.5299,4.6002,4.6704,4.7413,4.8124,4.8702,4.9092,4.9174,4.9295,4.9697,4.9777,4.9797,4.9892,4.9852,4.9777,4.9777,5.0116,5.0409,5.0486,5.0829,5.1108,5.1183,5.1202,5.1202,5.1202,5.1202,5.1202,5.1202,5.1202,5.1202,5.1202,5.1202,5.1293,5.1443,5.1443,5.1517,5.1686,5.1686,5.1686,5.1668,5.1352,5.1202,0.0,0.0,0.0,0.0,0.0,0.0,0.0,0.0,0.0,0.0,0.0,2.367,0.0,0.0,2.4684,2.5139,2.5583,2.5978,2.6219,2.6643,2.6768,2.6301,2.6654,2.7027,2.7231,2.8483,2.9906,3.139,3.2561,3.4024,3.5945,3.6051,3.647,3.7407,3.7456,3.773,3.8292,3.8305,3.8593,3.9155,3.9155,3.9324,3.9612,3.9612,3.9756,3.9993,3.9993,4.0163,4.0437,4.0437,4.0437,4.0437,4.0437,4.0109,3.9612,3.9612,3.9782,3.9993,3.9993,4.0724,4.1688,4.1968,4.2746,4.3648,4.3936,4.4186,4.4387,4.4387,4.4504,4.4862,4.6047,4.6682,4.7297,4.847,4.9015,4.9316,4.9557,4.9597,4.9717,5.0116,5.0195,5.0273,5.0502,5.0557,5.0464,5.025,5.0579,5.0848,5.0848,5.1054,5.1202,5.1202,5.1202,5.124,5.135,5.135,5.1389,5.1501,5.1406,5.1406,5.1501,5.1501,5.1538,5.1647,5.2006,5.2242,5.2353,5.2698,5.2861,5.2843,5.2655,5.2365,0.0,0.0,0.0,0.0,0.0,0.0,0.0,0.0,2.3381,2.3535,2.3886,2.425,2.4591,2.5025,2.5366,2.5449,2.6103,2.6623,2.6716,2.7047,2.7195,2.6892,2.7182,2.7579,2.8039,2.8685,2.9781,3.1479,3.2653,3.412,3.6022,3.6644,3.7215,3.78,3.7964,3.8248,3.8631,3.8786,3.9181,3.9769,3.9769,3.9834,3.9939,3.9939,4.0174,4.0567,4.0567,4.0842,4.1286,4.1286,4.1286,4.1286,4.1286,4.0749,3.9939,3.9939,4.0189,4.0592,4.0677,4.141,4.2349,4.2873,4.3365,4.3828,4.4256,4.4387,4.4411,4.4457,4.476,4.5384,4.6864,4.7512,4.8126,4.9562,4.9896,4.9916,4.9995,5.0014,5.0152,5.0563,5.064,5.0771,5.1129,5.1202,5.1073,5.0679,5.0959,5.1202,5.1202,5.1202,5.1221,5.124,5.1258,5.135,5.1536,5.1555,5.1694,5.1991,5.1859,5.189,5.2187,5.2206,5.2224,5.2261,5.2852,5.3166,5.3203,5.3743,5.4022,5.4022,5.4153,5.382,2.0605,2.0605,2.0684,2.1045,2.1521,2.2,0.0,0.0,2.3836,2.3846,2.4498,2.5077,2.5096,2.5513,2.596,2.6374,2.6529,2.676,2.7164,2.7278,2.741,2.7714,2.7796,2.8067,2.8649,2.9518,3.0796,3.2583,3.3291,3.453,3.6525,3.669,3.6968,3.754,3.823,3.8525,3.8355,3.9097,3.9782,4.0306,4.0306,4.0581,4.1103,4.1103,4.1129,4.1194,4.1194,4.1234,4.1286,4.1286,4.1286,4.1286,4.1286,4.1207,4.1103,4.1103,4.1142,4.1256,4.1739,4.2295,4.2873,4.3375,4.3889,4.4317,4.4387,4.4387,4.4457,4.469,4.5324,4.6189,4.7196,4.8105,4.8944,4.9717,4.9896,4.9995,5.0351,5.0428,5.0563,5.1035,5.1127,5.1146,5.1183,5.1202,5.1183,5.1127,5.1164,5.1202,5.1202,5.1202,5.1258,5.1443,5.1462,5.1555,5.1741,5.1776,5.2073,5.273,5.2761,5.3023,5.3645,5.3662,5.3757,5.3929,5.4011,5.4135,5.432,5.4384,5.4417,5.4452,5.5095,5.4842,2.0889,2.0957,2.1075,0.0,2.2228,2.2735,2.301,2.3678,2.4322,2.4612,2.4942,2.5284,2.5564,2.6001,2.6364,0.0,2.6819,2.7092,2.7278,2.7503,2.7717,2.7879,2.8652,2.9285,2.9544,3.0518,3.1739,3.3213,3.3797,3.5017,3.7105,3.6738,3.7169,3.8669,3.8561,3.8818,3.9531,3.9875,4.0345,4.0907,4.0907,4.1051,4.1286,4.1286,4.1286,4.1286,4.1286,4.1286,4.1286,4.1286,4.1286,4.1286,4.1286,4.1286,4.1336,4.1647,4.1771,4.1845,4.2387,4.2884,4.3328,4.3529,4.396,4.4387,4.4387,4.4856,4.5409,4.5537,4.6396,4.7531,4.8434,4.906,4.967,5.0464,5.0653,5.0711,5.0867,5.0921,5.0997,5.1296,5.1368,5.1406,5.152,5.1538,5.1538,5.1538,5.1445,5.1424,5.1538,5.1538,5.1738,5.2272,5.2758,5.31,5.3193,5.3193,5.3381,5.3787,5.371,5.3842,5.4232,5.4248,5.4286,5.438,5.4809,5.5062,5.5154,5.557,5.5786,5.5786,5.61,5.5971,2.1308,2.1396,0.0,2.2233,2.2788,2.332,2.3775,2.4306,2.4817,2.5294,2.549,2.5699,2.6032,2.6478,2.6778,2.6778,2.7092,2.7309,2.7309,2.7645,2.7952,2.8076,2.927,3.0201,3.0492,3.1384,3.2388,3.3449,3.3986,3.5062,3.6833,3.6468,3.7097,3.9066,3.8735,3.8989,3.9962,4.0199,4.0532,4.0985,4.0985,4.1085,4.1286,4.1286,4.1286,4.1286,4.1286,4.1286,4.1311,4.1461,4.1536,4.1536,4.1685,4.1735,4.1796,4.2311,4.2335,4.2202,4.286,4.3317,4.3624,4.378,4.4078,4.4411,4.4481,4.5241,4.613,4.6263,4.7402,4.8738,4.9467,5.001,5.0506,5.1205,5.1371,5.1371,5.1371,5.1371,5.1408,5.1555,5.1573,5.1629,5.176,5.1796,5.188,5.2148,5.2054,5.198,5.2089,5.2308,5.2676,5.3201,5.3879,5.4288,5.4288,5.4288,5.4444,5.4771,5.4658,5.4741,5.5088,5.5104,5.5104,5.5104,5.5617,5.5899,5.5899,5.6432,5.6699,5.6699,5.6699,5.6699,0.0,0.0,2.2035,2.2719,2.3039,2.3482,2.4601,2.5026,2.5315,2.5794,2.6239,2.655,2.6571,2.6954,2.7289,2.7289,2.7299,2.7309,2.7309,2.7645,2.8065,2.851,2.9469,3.0492,0.0,3.2069,3.2636,3.3245,3.3743,3.4388,3.5231,3.567,3.6528,3.7905,3.8755,3.907,3.8845,3.9699,4.0109,4.0134,4.0134,4.0542,4.1286,4.1286,4.1286,4.1286,4.1286,4.1286,4.1336,4.1857,4.2079,4.2128,4.2655,4.2838,4.2911,4.3375,4.2929,4.2251,4.3218,4.36,4.3695,4.4209,4.4387,4.4457,4.4728,4.5415,4.6196,4.6659,4.8065,4.9567,4.9962,5.0758,5.1517,5.1723,5.1778,5.1778,5.1778,5.1778,5.1778,5.1778,5.1778,5.1796,5.1796,5.1796,5.2116,5.3008,5.3109,5.3,5.2864,5.3604,5.4128,5.4161,5.4363,5.4492,5.4492,5.4492,5.4806,5.5535,5.5549,5.5882,5.66,5.6633,5.6633,5.6633,5.6666,5.6683,5.6683,5.6699,5.6699,5.6699,5.6699,5.6699,0.0,0.0,2.2708,2.3348,2.3916,2.4459,2.4985,2.5394,2.5792,2.627,2.6488,2.6708,2.7019,2.7195,2.7309,2.7309,2.7309,2.7389,2.7655,2.809,2.8556,2.9021,3.0274,0.0,0.0,0.0,0.0,3.3256,3.3729,3.4514,3.5681,3.5662,3.6519,3.8431,3.8223,3.8308,3.8792,3.9091,3.9247,3.9247,3.9827,4.0516,4.1286,4.0744,4.0516,4.0466,3.9891,3.9981,4.0529,4.1032,4.1594,4.2152,4.2679,4.2911,4.296,4.3423,4.3386,4.3194,4.3889,4.4139,4.4162,4.434,4.4387,4.4457,4.4728,4.5936,4.7302,4.7637,4.9125,5.0682,5.0962,5.1261,5.1536,5.1741,5.1796,5.1796,5.1796,5.1796,5.1849,5.1959,5.1995,5.2032,5.2176,5.2574,5.3119,5.3936,5.4035,5.4016,5.3977,5.4642,5.5126,5.5126,5.5632,5.5951,5.5951,5.5951,5.6067,5.6316,5.6332,5.6432,5.6699,5.6699,5.6699,5.6699,5.6699,5.6699,5.6699,5.6699,5.6699,5.6699,5.6699,5.6699,0.0,2.3163,2.3589,2.4065,2.4678,2.5255,2.5611,2.5927,2.6281,2.6747,2.6864,2.6933,2.7247,2.7309,2.7337,2.7493,2.7513,2.7655,2.8086,2.8541,2.897,2.927,3.0493,3.1388,0.0,0.0,0.0,3.3256,3.3912,3.465,3.5519,3.5697,3.6554,3.8281,3.7779,3.7779,3.8334,3.8346,3.8504,3.8818,3.9376,4.007,4.0846,4.0006,3.9647,3.9621,3.9143,3.9467,4.0402,4.0994,4.1766,4.2701,4.3235,4.3441,4.3475,4.377,4.3875,4.3936,4.428,4.4387,4.4411,4.4504,4.4527,4.4653,4.5316,4.6637,4.8065,4.8636,5.001,5.1352,5.1555,5.1647,5.1758,5.1977,5.1997,5.1997,5.1997,5.1997,5.205,5.2176,5.2211,5.2313,5.2687,5.3566,5.4343,5.4823,5.5121,5.5187,5.4939,5.5535,5.5982,5.5982,5.6415,5.6699,5.6699,5.6699,5.6699,5.6699,5.6699,5.6699,5.6699,5.6699,5.6699,5.6699,5.6699,5.6699,5.6699,5.6699,5.6699,5.6699,5.6699,5.6699,2.3533,2.4017,2.4569,2.4866,2.5302,2.5821,2.6452,2.6612,2.6747,2.7216,2.7309,2.7309,0.0,0.0,2.742,2.7821,2.7858,2.8034,2.852,2.899,2.929,0.0,0.0,0.0,0.0,0.0,0.0,3.3256,0.0,3.4796,3.4796,3.5765,3.6661,3.7406,3.7432,3.7432,3.7432,3.7432,3.7858,3.8739,3.8739,3.9195,3.9994,3.9143,3.8739,3.8739,3.8974,3.9712,4.0792,4.1617,4.2587,4.3648,4.4186,4.4387,4.4387,4.4387,4.4387,4.4387,4.4411,4.4411,4.4434,4.4728,4.483,4.5115,4.641,4.7503,4.8491,4.9594,5.0676,5.1536,5.176,5.1959,5.2157,5.2338,5.2391,5.2391,5.2391,5.2408,5.2409,5.2409,5.2442,5.2707,5.3419,5.4692,5.5636,5.567,5.6249,5.6448,5.575,5.6266,5.6699,5.6699,5.6699,5.6699,5.6699,5.6699,5.6699,5.6699,5.6699,5.6699,5.6699,5.6699,5.6699,5.6699,5.6699,5.6699,5.6699,5.6699,5.6699,5.6699,5.6699,5.6699,2.3856,2.4256,2.464,2.5263,2.59,2.6388,2.6571,2.6861,2.7164,2.7289,2.7309,2.7309,0.0,0.0,0.0,2.7431,2.7451,0.0,2.8504,2.8686,0.0,2.9735,0.0,3.1439,3.1604,3.2493,0.0,0.0,3.4222,3.4796,3.4796,3.5765,3.6402,3.6607,3.6607,3.6607,3.6607,3.6607,3.7027,3.7832,3.7832,3.8281,3.9091,3.8228,3.7832,3.7805,3.7483,3.8307,3.9969,4.0767,4.2097,4.3648,4.4186,4.4387,4.4387,4.4387,4.4387,4.4434,4.4621,4.4574,4.4434,4.4728,4.5247,4.5891,4.6594,4.7897,4.9287,4.988,5.0739,5.1573,5.1922,5.2066,5.2157,5.2338,5.2391,5.2391,5.2391,5.248,5.2552,5.2552,5.311,5.4001,5.5267,5.5671,5.601,5.6561,5.6679,5.6633,5.6432,5.6581,5.6699,5.6699,5.6699,5.6699,5.6699,5.6699,5.6699,5.6699,5.6699,5.6699,5.6699,5.6699,5.6699,5.6699,5.6699,5.6699,5.6699,5.6699,5.6699,5.6699,5.6699,5.6699,2.415,2.4643,2.5143,2.5864,2.6478,2.6915,2.6915,2.7123,2.7309,2.7309,2.7309,0.0,2.7309,2.7309,0.0,0.0,0.0,0.0,2.8489,2.8794,2.9104,0.0,3.0807,0.0,3.1593,3.2631,3.3306,0.0,3.4222,3.4796,3.4796,3.5765,3.6293,3.6293,3.6293,3.6293,3.6293,3.6293,3.6704,3.7486,3.715,3.7498,3.8437,3.8031,3.7926,3.8031,0.0,3.9391,4.0855,4.1442,4.2574,4.3983,4.428,4.4387,4.4387,4.4387,4.4387,4.4434,4.4728,4.4705,4.4714,4.5438,4.6003,4.6637,4.7807,4.8907,4.99,5.0515,5.1226,5.1829,5.2048,5.2175,5.2266,5.2445,5.2481,5.2499,5.2588,5.2676,5.2829,5.3164,5.3904,5.4845,5.5999,5.6376,5.6652,5.7072,5.7044,5.6968,5.6968,5.6796,5.6699,5.6699,5.6699,5.6699,5.6699,5.6699,5.6699,5.6699,5.6699,5.6699,5.6699,5.6699,5.6699,5.6699,5.6699,5.6699,5.6699,5.6699,5.6699,5.6699,5.6699,5.6699,2.4353,2.5022,2.5722,2.6455,2.6962,2.7309,2.7309,2.7309,2.7309,2.7309,0.0,2.7309,2.7309,2.7309,2.741,2.7769,0.0,2.7972,2.8427,2.8918,2.9264,2.9393,3.0647,3.1542,3.1695,3.2606,3.3206,3.3281,3.4165,3.4693,3.4693,3.5661,3.6236,3.6293,3.6293,3.6293,3.6293,3.6293,3.6661,3.7337,3.6661,3.6943,3.8041,3.8111,3.8428,3.8977,0.0,0.0,4.2412,4.2682,4.342,4.4387,4.4387,4.4387,4.4387,4.4434,4.4457,4.4504,4.4783,4.4968,4.5261,4.641,4.6878,4.7338,4.9338,5.0088,5.0477,5.1352,5.1831,5.2122,5.2157,5.232,5.2498,5.2623,5.2641,5.2694,5.2851,5.2921,5.319,5.4063,5.475,5.5437,5.6292,5.6927,5.7346,5.7346,5.7327,5.7308,5.7308,5.6968,5.6738,5.6738,5.6719,5.6699,5.6699,5.6699,5.6699,5.6699,5.6699,5.6699,5.6699,5.6699,5.6699,5.6699,5.6699,5.6699,5.6699,5.6699,5.6699,5.6699,5.6699,5.6699,2.4475,2.5004,2.5518,2.6574,2.7067,2.7309,2.7309,2.7309,0.0,0.0,2.7309,2.7309,2.7309,2.7309,2.733,2.7389,2.74,2.7555,2.7952,2.8417,2.9042,0.0,3.0549,0.0,0.0,0.0,0.0,0.0,0.0,0.0,3.4142,3.5095,3.5841,3.6282,3.6293,3.6293,3.6293,3.6293,3.6375,3.651,3.6592,3.7215,3.823,3.7604,3.8297,3.9995,0.0,0.0,4.2412,4.2682,4.342,4.4387,4.4387,4.4387,4.4434,4.4644,4.4728,4.4783,4.5244,4.5845,4.6498,4.6725,4.7317,4.8206,4.9627,5.0608,5.1371,5.1849,5.2124,5.2306,5.2465,5.2676,5.2816,5.2834,5.2851,5.2851,5.2886,5.3024,5.36,5.5103,5.551,5.6016,5.7368,5.7577,5.7551,5.7551,5.7402,5.7308,5.7308,5.7101,5.6949,5.6949,5.6796,5.6699,5.6699,5.6699,5.6699,5.6699,5.6699,5.6699,5.6699,5.6699,5.6699,5.6699,5.6699,5.6699,5.6699,5.6699,5.6699,5.6699,5.6699,5.6699,2.4251,2.4725,2.5237,2.6289,2.6825,2.7129,2.7262,0.0,0.0,0.0,2.7309,2.7309,2.7309,2.7309,0.0,2.7309,2.7309,2.7382,2.7552,2.7966,0.0,2.9228,3.0237,3.1157,0.0,0.0,0.0,0.0,0.0,0.0,3.3993,3.4727,3.5256,3.5497,3.5749,3.5875,3.5875,3.6167,3.6375,3.651,3.6646,3.7418,3.8769,3.8937,3.9956,4.1601,0.0,0.0,4.3467,4.3576,4.3936,4.4387,4.4387,4.4481,4.4621,4.4751,4.4876,4.5055,4.5898,4.6447,4.6986,4.8133,4.881,4.9387,5.0493,5.1282,5.1868,5.2142,5.2322,5.2501,5.2694,5.2834,5.2921,5.3024,5.3144,5.3212,5.3212,5.3297,5.3821,5.5394,5.5699,5.6172,5.7663,5.7808,5.7753,5.7753,5.7662,5.7606,5.7606,5.7439,5.7233,5.7025,5.6911,5.6815,5.6716,5.6699,5.6699,5.6699,5.6699,5.6699,5.6699,5.6699,5.6699,5.6699,5.6699,5.6699,5.6699,5.6699,5.6699,5.6699,5.6699,5.6699,2.3927,2.4383,2.4897,2.5858,2.6415,2.6839,2.7217,2.7309,0.0,2.7309,2.7309,2.7309,2.7309,2.7309,2.7309,0.0,2.7309,2.7333,2.7441,2.7717,2.8163,0.0,3.0006,0.0,0.0,0.0,0.0,0.0,0.0,0.0,0.0,3.4406,3.4682,3.4796,3.5164,3.5344,3.5344,3.5761,3.6118,3.6386,3.6657,3.7687,3.9408,4.0285,4.1584,4.3167,0.0,0.0,0.0,4.4387,4.4387,4.4411,4.4457,4.4597,4.4821,4.4899,4.5046,4.5338,4.6476,4.7008,4.7488,4.9452,5.0096,5.0306,5.1317,5.1847,5.2139,5.2306,5.2501,5.2712,5.2903,5.3006,5.3075,5.323,5.3382,5.3501,5.3501,5.3501,5.394,5.5411,5.5699,5.6172,5.7663,5.79,5.79,5.79,5.79,5.79,5.79,5.7753,5.7532,5.7176,5.7082,5.7006,5.6834,5.6815,5.6815,5.6815,5.6815,5.6815,5.6815,5.6815,5.6815,5.6815,5.6815,5.6815,5.6815,5.6815,5.6815,5.6815,5.6815,5.6815,2.3694,2.4053,2.4506,2.5565,2.6053,2.6453,2.7135,0.0,2.7309,2.7309,2.7309,2.7309,2.7309,2.7309,2.7309,0.0,0.0,2.7441,2.788,2.7923,2.8443,2.9886,0.0,0.0,0.0,0.0,0.0,0.0,0.0,0.0,0.0,3.405,3.4303,3.4785,3.4842,3.4865,3.4865,3.4911,3.5065,3.5352,3.6507,3.8066,3.9942,4.0214,4.1786,4.4209,0.0,0.0,0.0,4.4387,4.4387,4.4411,4.4667,4.4774,4.4853,4.5276,4.5458,4.5625,4.677,4.7689,4.8538,4.9726,5.0096,5.0345,5.1651,5.2066,5.2175,5.2465,5.2712,5.2921,5.311,5.3314,5.345,5.3467,5.3484,5.3501,5.3501,5.3501,5.394,5.5411,5.5699,5.6172,5.7663,5.79,5.79,5.79,5.79,5.79,5.79,5.7881,5.779,5.7569,5.7383,5.7271,5.7252,5.7252,5.7252,5.7252,5.7252,5.7252,5.7252,5.7252,5.7252,5.7252,5.7252,5.7252,5.7252,5.7252,5.7252,5.7252,5.7252,5.7252,2.3327,2.3661,2.4194,2.5187,2.5701,2.6191,2.7111,0.0,2.7309,2.7309,2.7309,2.7309,2.7309,2.7309,2.7309,0.0,0.0,0.0,2.756,2.755,2.7986,2.9152,2.9834,0.0,0.0,0.0,0.0,0.0,0.0,0.0,0.0,3.3568,3.3671,3.3878,3.4165,3.4326,3.4326,3.4791,3.5187,3.5474,3.6742,3.8176,3.9726,4.0399,4.1671,4.3306,0.0,0.0,0.0,4.4419,4.4644,4.4667,4.4885,4.5069,4.523,4.5435,4.5927,4.666,4.7646,4.862,4.9647,5.0745,5.121,5.1397,5.1941,5.223,5.2446,5.2712,5.2921,5.3144,5.3331,5.345,5.3501,5.3501,5.3501,5.3501,5.3501,5.3501,5.394,5.5411,5.5699,5.6172,5.7663,5.79,5.8028,5.844,5.8494,5.8651,5.9113,5.8772,5.8458,5.8388,5.7831,5.7591,5.7871,5.7519,5.748,5.7871,5.7519,5.748,5.7889,5.75,5.7498,5.7889,5.7517,5.7308,5.7308,5.7308,5.7308,5.7308,5.7308,5.7308,2.3091,2.3337,2.3842,2.4924,2.541,2.5932,0.0,0.0,2.7309,2.7309,2.7309,2.7309,2.7309,2.7309,2.7309,2.7309,0.0,2.7357,2.7489,2.7404,2.7704,0.0,0.0,0.0,0.0,0.0,0.0,0.0,0.0,0.0,0.0,3.3306,3.3306,3.3306,3.3614,3.3837,3.3913,3.4472,3.4927,3.5274,3.6764,3.8107,3.9317,4.0595,4.1693,0.0,0.0,0.0,0.0,4.4153,4.45,4.4551,4.503,4.533,4.5549,4.5882,4.6521,4.7362,4.8558,4.9467,5.029,5.1487,5.1977,5.2102,5.2175,5.2391,5.2641,5.2834,5.3093,5.3315,5.3467,5.3501,5.3501,5.3501,5.3501,5.3517,5.3551,5.3701,5.4275,5.5792,5.6201,5.6799,5.8271,5.8528,5.8685,5.9146,5.923,5.9413,5.9934,5.9562,5.923,5.923,5.8685,5.8281,5.8194,5.814,5.8212,5.846,5.8247,5.8318,5.8789,5.8353,5.8318,5.8789,5.8336,5.8103,5.8103,5.7868,5.7776,5.7776,5.7571,5.7476,2.3091,2.3101,2.3438,2.4844,2.5211,2.5581,0.0,0.0,2.7309,2.7309,2.7309,2.7309,2.7309,2.7309,2.7309,0.0,0.0,0.0,2.7927,2.7584,2.7823,0.0,0.0,0.0,0.0,0.0,0.0,0.0,0.0,0.0,0.0,0.0,3.3306,3.3306,3.3292,3.3431,3.3691,3.3716,3.3952,3.4445,3.6447,3.7872,3.8782,4.0709,0.0,0.0,0.0,0.0,0.0,4.3466,4.3811,4.3913,4.504,4.5504,4.5625,4.6784,4.7189,4.749,4.9412,5.0096,5.031,5.1651,5.2102,5.2139,5.2336,5.2481,5.2641,5.2834,5.3195,5.3501,5.3501,5.3501,5.3501,5.3501,5.3501,5.3551,5.3667,5.417,5.5057,5.6667,5.7415,5.8257,5.9717,5.9966,5.9966,5.9982,5.9982,5.9982,5.9998,5.9982,5.9982,5.9982,5.9966,5.9414,5.801,5.9181,5.9659,5.8943,5.9561,5.9984,5.9982,5.9984,5.9984,5.9982,5.9984,5.9966,5.9966,5.9247,5.8875,5.8858,5.8192,5.7881,2.3091,2.3337,2.3833,2.4937,2.541,2.5912,2.7032,2.7309,2.7309,2.7309,2.7309,2.7309,2.7309,2.7309,2.7309,2.7309,0.0,0.0,0.0,0.0,0.0,2.8815,0.0,0.0,0.0,0.0,0.0,0.0,0.0,0.0,0.0,0.0,3.3306,3.3306,3.3481,3.3605,3.3704,3.4014,3.4592,3.5427,3.6496,3.7485,3.8474,3.9788,0.0,0.0,0.0,0.0,0.0,4.3295,4.3921,4.4403,4.4903,4.5808,4.6907,4.7276,4.8247,4.9496,5.0103,5.0805,5.1543,5.1959,5.2193,5.232,5.2481,5.2676,5.2885,5.3212,5.3399,5.3501,5.3501,5.3501,5.3534,5.3618,5.3945,5.4296,5.4488,5.4956,5.5839,5.7439,5.7779,5.8285,5.9875,6.0062,6.0174,6.0605,6.0666,6.0849,6.13,6.0971,6.0666,6.0666,6.0666,6.0498,6.006,6.0014,6.0093,6.0326,6.0125,6.0221,6.0651,6.0235,6.0221,6.0666,6.0219,5.9998,5.9998,5.9263,5.8651,5.8209,5.7992,5.79,0.0,2.3435,2.4009,2.484,2.5431,0.0,0.0,2.7238,2.7309,2.7309,2.7309,2.7309,2.7309,2.7309,2.7309,2.7309,0.0,0.0,0.0,0.0,0.0,0.0,0.0,0.0,0.0,0.0,0.0,0.0,0.0,0.0,0.0,0.0,3.3367,3.3456,3.3605,3.3803,3.3965,3.4249,3.4969,3.6071,3.6559,3.7329,3.8336,0.0,0.0,0.0,0.0,0.0,0.0,4.2804,4.3502,4.3949,4.4617,4.5805,4.7178,4.7773,4.9013,5.0471,5.0884,5.1508,5.2102,5.2193,5.232,5.2517,5.2763,5.2903,5.3076,5.3416,5.3501,5.3501,5.3501,5.3501,5.3534,5.3667,5.417,5.4668,5.4918,5.5605,5.6641,5.8228,5.8588,5.9134,6.0698,6.0849,6.0897,6.1297,6.1387,6.1533,6.1937,6.1636,6.1387,6.1387,6.1387,6.1387,6.1387,6.0986,6.0819,6.0983,6.0852,6.0942,6.1372,6.0971,6.0942,6.1372,6.0956,6.0623,6.0393,5.9379,5.8564,5.79,5.79,5.79,0.0,0.0,0.0,0.0,0.0,0.0,0.0,2.7081,0.0,2.7309,2.7309,2.7309,2.7309,2.7309,2.7309,2.7309,0.0,0.0,0.0,2.7796,0.0,0.0,0.0,0.0,0.0,0.0,0.0,0.0,0.0,0.0,0.0,0.0,0.0,3.3613,3.3649,3.3895,3.4409,3.4409,3.5054,3.6307,3.6612,3.7285,3.8276,0.0,0.0,0.0,0.0,0.0,0.0,4.2042,4.2695,4.2882,4.4255,4.5552,4.6824,4.825,4.9544,5.0697,5.1762,5.212,5.2157,5.2338,5.2517,5.2712,5.3076,5.3196,5.3247,5.345,5.3501,5.3501,5.3501,5.3534,5.3601,5.375,5.428,5.4835,5.5169,5.6172,5.7446,5.9062,5.973,6.0499,6.1966,6.2114,6.2005,6.2005,6.201,6.201,6.201,6.201,6.201,6.201,6.201,6.201,6.201,6.201,6.172,6.1104,6.1664,6.201,6.201,6.201,6.201,6.201,6.201,6.165,6.0942,5.9609,5.8598,5.79,5.79,5.7934,0.0,0.0,0.0,0.0,0.0,0.0,0.0,0.0,0.0,0.0,0.0,2.7309,2.7309,2.7309,2.7309,2.7309,0.0,0.0,0.0,0.0,0.0,0.0,0.0,0.0,0.0,0.0,0.0,0.0,0.0,0.0,0.0,0.0,0.0,3.3066,3.309,3.3505,3.4397,3.4604,3.5247,3.6307,3.6344,3.6881,3.7856,0.0,0.0,0.0,0.0,0.0,0.0,4.1873,4.2606,4.3183,4.3553,4.5464,4.8057,4.8442,5.0,5.1964,5.2248,5.2336,5.2356,5.2499,5.2781,5.3076,5.3161,5.3196,5.3247,5.345,5.3501,5.3501,5.3501,5.3832,5.4267,5.4551,5.542,5.6281,5.6576,5.7222,5.8213,5.9822,6.0151,6.0657,6.2239,6.2305,6.215,6.215,6.2073,6.201,6.201,6.201,6.201,6.201,6.201,6.201,6.201,6.201,6.1937,6.1762,6.1909,6.201,6.201,6.201,6.201,6.201,6.201,6.1419,6.0219,5.9902,5.9113,5.79,5.79,5.8203,0.0,0.0,0.0,0.0,0.0,0.0,0.0,0.0,0.0,0.0,0.0,2.7309,2.7309,2.7309,0.0,0.0,2.7489,0.0,0.0,0.0,0.0,0.0,0.0,0.0,0.0,0.0,0.0,0.0,0.0,0.0,0.0,0.0,0.0,0.0,3.2911,3.322,3.3899,3.4246,3.4953,3.5931,3.5718,3.6336,3.77,0.0,0.0,0.0,0.0,0.0,4.0704,4.1453,4.2231,4.2933,4.3324,4.5359,4.8089,4.84,5.0156,5.2391,5.2391,5.2445,5.2535,5.2781,5.3024,5.3281,5.3633,5.3749,5.3782,5.3881,5.3897,5.3979,5.4301,5.4614,5.4933,5.5231,5.6005,5.677,5.7053,5.7558,5.8474,6.0089,6.0292,6.0701,6.2329,6.2423,6.2296,6.2296,6.2217,6.2168,6.21,6.21,6.2073,6.201,6.201,6.201,6.201,6.201,6.201,6.201,6.201,6.201,6.201,6.201,6.201,6.201,6.1692,6.118,6.047,6.0141,5.9611,5.8858,5.8904,5.912,0.0,0.0,0.0,0.0,0.0,0.0,0.0,0.0,0.0,0.0,0.0,0.0,2.7119,2.7119,0.0,0.0,0.0,0.0,0.0,0.0,0.0,0.0,0.0,0.0,0.0,0.0,0.0,0.0,0.0,0.0,0.0,0.0,0.0,0.0,3.2708,3.2836,3.3044,3.3609,3.4334,3.5205,3.5081,3.5892,3.7445,3.7026,0.0,0.0,0.0,0.0,4.024,4.106,4.1818,4.2558,4.3301,4.5141,4.7489,4.8159,5.0032,5.2242,5.2394,5.2535,5.2746,5.3093,5.3213,5.3399,5.417,5.4407,5.4438,5.4641,5.4608,5.4688,5.5263,5.5473,5.5618,5.5893,5.6421,5.6917,5.7166,5.7637,5.8474,6.0089,6.0316,6.0744,6.2354,6.2513,6.2428,6.2428,6.2415,6.2362,6.2243,6.223,6.2177,6.2033,6.2019,6.2019,6.1992,6.201,6.201,6.201,6.201,6.201,6.201,6.201,6.201,6.201,6.143,6.1104,6.1001,6.0328,5.9934,5.9839,6.0011,6.0098,1.927,1.9874,2.0867,0.0,0.0,0.0,0.0,0.0,0.0,0.0,0.0,0.0,0.0,2.6284,2.6066,0.0,0.0,0.0,0.0,0.0,0.0,0.0,0.0,0.0,0.0,0.0,0.0,0.0,0.0,0.0,0.0,0.0,0.0,0.0,0.0,3.1913,3.1958,3.2934,3.3579,3.3924,3.5032,3.5859,3.637,3.7461,3.8033,0.0,0.0,0.0,4.048,4.1134,4.2004,4.293,4.3054,4.4658,4.6995,4.7713,4.9471,5.1564,5.2319,5.2799,5.311,5.3179,5.3331,5.3568,5.4219,5.4407,5.4624,5.5701,5.5629,5.5278,5.5446,5.5826,5.6252,5.6652,5.7114,5.7534,5.7797,5.792,5.8474,6.0089,6.0377,6.0878,6.2492,6.2654,6.2578,6.2578,6.2462,6.2389,6.2376,6.2362,6.2323,6.2177,6.2163,6.2109,6.2023,6.201,6.201,6.201,6.201,6.201,6.201,6.201,6.201,6.201,6.1909,6.1561,6.1001,6.0328,5.9693,5.9079,5.9771,6.0091,1.8241,1.8303,1.8681,1.8893,0.0,0.0,0.0,0.0,0.0,0.0,0.0,0.0,0.0,0.0,0.0,0.0,0.0,0.0,0.0,0.0,0.0,0.0,0.0,0.0,0.0,0.0,0.0,0.0,0.0,0.0,0.0,0.0,0.0,0.0,0.0,0.0,3.1705,3.23,3.2789,3.317,3.4079,3.5075,3.611,3.6583,3.7309,0.0,0.0,3.9348,4.0524,4.0906,4.1834,4.3016,4.3115,4.4637,4.7048,4.9016,5.0704,5.2086,5.2594,5.2955,5.323,5.3331,5.3416,5.3685,5.4643,5.4933,5.5204,5.6429,5.6334,5.5989,5.6421,5.667,5.6889,5.729,5.751,5.7673,5.795,5.8345,5.8994,6.0169,6.075,6.1429,6.2591,6.2743,6.2705,6.2705,6.2672,6.2596,6.2513,6.25,6.2467,6.2323,6.231,6.2283,6.2222,6.2222,6.2154,6.2023,6.201,6.201,6.201,6.201,6.201,6.201,6.201,6.185,6.1547,6.1224,6.0927,6.0629,6.1057,6.1241,1.7512,1.7302,1.7302,1.7302,0.0,0.0,0.0,0.0,0.0,0.0,0.0,0.0,0.0,0.0,0.0,0.0,0.0,0.0,0.0,0.0,0.0,0.0,0.0,0.0,0.0,0.0,0.0,0.0,0.0,0.0,0.0,0.0,0.0,0.0,0.0,0.0,3.1771,3.2025,3.2355,3.2713,3.3332,3.4444,3.5984,3.6089,3.6892,3.8202,3.8418,3.9191,4.0353,4.0713,4.1651,4.2887,4.319,4.486,4.7437,5.0098,5.1788,5.2764,5.2921,5.3093,5.3298,5.345,5.3501,5.3718,5.483,5.5281,5.5618,5.6688,5.6758,5.6666,5.7289,5.7313,5.7319,5.7745,5.7721,5.7673,5.795,5.8627,5.9435,6.0242,6.1043,6.1851,6.2664,6.2793,6.2793,6.2793,6.2793,6.2755,6.2667,6.2654,6.259,6.2467,6.2454,6.2441,6.2402,6.2402,6.231,6.21,6.2087,6.2087,6.2087,6.2087,6.2087,6.2087,6.206,6.2046,6.2046,6.2048,6.1979,6.1891,6.2287,6.2439,1.7326,1.7302,1.7302,1.7302,1.7638,0.0,1.9336,1.9838,0.0,2.2785,0.0,0.0,0.0,0.0,0.0,0.0,0.0,0.0,0.0,0.0,0.0,0.0,0.0,0.0,0.0,0.0,0.0,0.0,0.0,0.0,0.0,0.0,0.0,0.0,0.0,0.0,3.1981,3.2407,3.2574,3.2449,3.3475,3.4558,3.5676,3.7075,3.7916,3.8265,3.905,3.958,3.9917,4.0747,4.1626,4.2511,4.3085,4.5222,4.82,4.9846,5.1596,5.3161,5.3161,5.3314,5.3484,5.3501,5.3501,5.3618,5.4265,5.4903,5.5531,5.617,5.6745,5.7201,5.7516,5.7388,5.7326,5.7851,5.778,5.7673,5.795,5.8627,5.9435,6.0242,6.1043,6.1851,6.2664,6.2793,6.2793,6.2793,6.2793,6.2811,6.2798,6.2798,6.273,6.2603,6.259,6.2539,6.2415,6.2402,6.2389,6.2362,6.2362,6.2362,6.2362,6.2362,6.2362,6.2362,6.2257,6.219,6.219,6.2195,6.1833,6.121,6.2721,6.3031,1.7302,1.7302,1.7302,1.7302,1.7397,0.0,0.0,1.8878,1.9894,2.0929,2.1832,0.0,0.0,0.0,0.0,0.0,0.0,0.0,0.0,0.0,0.0,0.0,0.0,0.0,0.0,0.0,0.0,0.0,0.0,0.0,0.0,0.0,0.0,0.0,0.0,0.0,0.0,3.2463,3.2658,3.2593,3.3172,3.4199,3.5642,3.6767,3.7907,3.905,3.9937,4.0659,4.1251,4.158,4.2212,4.3083,4.4304,4.615,4.8283,4.983,5.158,5.3196,5.3196,5.3332,5.3501,5.3501,5.3501,5.3618,5.4219,5.4872,5.5516,5.6132,5.6727,5.7239,5.7443,5.7326,5.7313,5.7768,5.7733,5.7673,5.795,5.9024,6.004,6.0346,6.1447,6.2444,6.2756,6.2793,6.2793,6.2793,6.2793,6.2793,6.2793,6.2793,6.2768,6.273,6.2717,6.2705,6.2641,6.266,6.266,6.266,6.2493,6.2402,6.2402,6.2402,6.2402,6.2402,6.227,6.2203,6.2203,6.2627,6.2701,6.2494,6.3607,6.3991,1.7302,1.7302,1.7302,0.0,0.0,0.0,1.7302,1.8184,1.9209,1.9991,2.1228,0.0,0.0,0.0,0.0,0.0,0.0,0.0,0.0,0.0,0.0,0.0,0.0,0.0,0.0,0.0,0.0,0.0,0.0,0.0,0.0,0.0,0.0,0.0,0.0,0.0,0.0,3.2615,3.2831,3.2831,3.3004,3.4016,3.5722,3.6531,3.7901,3.9643,4.053,4.1231,4.1817,4.2083,4.2628,4.3453,4.5132,4.6759,4.8377,5.0002,5.1732,5.3298,5.3298,5.3382,5.3501,5.3501,5.3635,5.3865,5.4265,5.5009,5.5762,5.6188,5.6727,5.7213,5.7301,5.7282,5.7289,5.7649,5.7673,5.7661,5.7892,5.9228,6.0401,6.0401,6.1692,6.2793,6.2793,6.2793,6.2793,6.2793,6.2793,6.2793,6.2793,6.2793,6.2793,6.2793,6.2793,6.2793,6.2793,6.2793,6.2793,6.2793,6.2634,6.2532,6.2532,6.2532,6.2532,6.2532,6.2349,6.2397,6.2634,6.3261,6.3614,6.3687,6.4503,6.4922,1.7302,1.7302,1.7302,0.0,0.0,0.0,1.7302,1.7707,1.8582,2.0344,0.0,0.0,0.0,0.0,0.0,0.0,0.0,0.0,0.0,0.0,0.0,0.0,0.0,0.0,0.0,0.0,0.0,0.0,0.0,0.0,0.0,0.0,0.0,0.0,0.0,0.0,0.0,3.2961,3.3102,3.3102,3.3102,3.4066,3.5909,3.6592,3.7961,3.9843,4.0717,4.1109,4.1188,4.2045,4.2765,4.3472,4.5211,4.6911,4.8601,5.0359,5.205,5.3501,5.3501,5.3501,5.3501,5.3501,5.3897,5.4391,5.4391,5.5276,5.6284,5.6284,5.6732,5.7188,5.7188,5.7188,5.7282,5.7522,5.7601,5.7637,5.7768,5.918,6.0401,6.0401,6.1692,6.2793,6.2793,6.2793,6.2793,6.2793,6.2793,6.2793,6.2793,6.2793,6.2793,6.2793,6.2793,6.2793,6.2793,6.2793,6.2793,6.2793,6.2793,6.2793,6.2793,6.2793,6.2793,6.2793,6.2545,6.2803,6.36,6.4151,6.4457,6.4539,6.5338,6.579,1.7302,1.7302,0.0,1.7302,0.0,0.0,0.0,1.7707,0.0,0.0,0.0,0.0,0.0,0.0,0.0,0.0,0.0,0.0,0.0,0.0,0.0,0.0,0.0,0.0,0.0,0.0,0.0,0.0,0.0,0.0,0.0,0.0,0.0,0.0,0.0,0.0,0.0,0.0,3.3102,3.3102,3.324,3.3924,3.5094,3.6484,3.81,3.9876,4.1369,4.2264,4.2678,4.2931,4.3145,4.3428,4.4646,4.615,4.7848,4.9581,5.1246,5.2739,5.3315,5.3501,5.3501,5.3501,5.3618,5.3767,5.3767,5.466,5.5661,5.5661,5.642,5.7188,5.7188,5.7188,5.7239,5.7431,5.7467,5.7528,5.7745,5.9108,6.0292,6.0377,6.1692,6.2793,6.2793,6.2793,6.2793,6.2793,6.2793,6.2793,6.2793,6.2793,6.2793,6.2793,6.2793,6.2793,6.2793,6.2793,6.2793,6.2793,6.2793,6.2793,6.2793,6.2793,6.2793,6.2793,6.3093,6.3363,6.36,6.4714,6.5254,6.5295,6.6106,6.6557,1.7302,1.7302,0.0,1.7302,1.7302,1.7302,1.7302,0.0,0.0,0.0,0.0,0.0,0.0,0.0,0.0,0.0,0.0,0.0,0.0,0.0,0.0,0.0,0.0,0.0,0.0,0.0,0.0,0.0,0.0,0.0,0.0,0.0,0.0,0.0,0.0,0.0,0.0,0.0,0.0,3.3219,3.3334,3.3768,3.4522,3.6211,3.7898,3.9623,4.1556,4.275,4.329,4.329,4.3364,4.3586,4.4856,4.6206,4.7664,4.9687,5.1229,5.2418,5.323,5.3501,5.3501,5.3501,5.3651,5.3849,5.3849,5.4582,5.5443,5.569,5.628,5.6889,5.7138,5.7188,5.7213,5.7289,5.7351,5.7467,5.7673,5.9018,6.0243,6.0365,6.1692,6.2793,6.2793,6.2793,6.2793,6.2793,6.2793,6.2793,6.2793,6.2793,6.2793,6.2793,6.2793,6.2793,6.2793,6.2793,6.2793,6.2793,6.2793,6.2793,6.2793,6.2793,6.2793,6.2793,6.3382,6.3826,6.4168,6.5235,6.5922,6.6249,6.674,6.7048,1.7302,0.0,0.0,1.7302,1.7302,0.0,1.7302,0.0,0.0,0.0,0.0,0.0,0.0,0.0,0.0,0.0,0.0,0.0,0.0,0.0,0.0,0.0,0.0,0.0,0.0,0.0,0.0,0.0,0.0,0.0,0.0,0.0,0.0,0.0,0.0,0.0,0.0,0.0,0.0,0.0,3.342,3.3675,3.416,3.5849,3.7591,3.9416,4.15,4.275,4.329,4.3329,4.3483,4.3871,4.5416,4.6625,4.7779,5.0143,5.1509,5.2334,5.3196,5.3501,5.3501,5.3501,5.3865,5.4329,5.4329,5.478,5.5429,5.6063,5.6257,5.6434,5.7049,5.7188,5.7188,5.7188,5.7289,5.7412,5.7577,5.8902,6.014,6.0365,6.1637,6.2701,6.2793,6.2793,6.2793,6.2793,6.2793,6.2793,6.2793,6.2793,6.2793,6.2793,6.2793,6.2793,6.2793,6.2793,6.2793,6.2793,6.2793,6.2793,6.2793,6.2793,6.2793,6.2793,6.3533,6.4273,6.5,6.5761,6.6495,6.721,6.721,6.7313,1.7302,1.7302,0.0,0.0,1.7302,1.7302,1.7302,1.7454,0.0,0.0,0.0,0.0,0.0,0.0,0.0,0.0,0.0,0.0,0.0,0.0,0.0,0.0,0.0,0.0,0.0,0.0,0.0,0.0,0.0,0.0,0.0,0.0,0.0,0.0,0.0,0.0,3.309,3.3102,3.3197,0.0,3.3556,3.3789,3.416,3.5849,3.8163,4.0963,4.1959,4.275,4.3309,4.3537,4.3651,4.3769,4.4442,4.5539,4.6958,4.8799,5.0323,5.1624,5.3027,5.3501,5.3501,5.3501,5.3584,5.3701,5.3701,5.4124,5.4749,5.5414,5.5932,5.6434,5.7049,5.7188,5.7188,5.7188,5.7213,5.7319,5.7553,5.8391,5.9371,6.0224,6.119,6.2053,6.2683,6.2793,6.2793,6.2793,6.2793,6.2793,6.2793,6.2793,6.2793,6.2793,6.2793,6.2793,6.2793,6.2793,6.2793,6.2793,6.2793,6.2793,6.2793,6.2793,6.2793,6.2793,6.4077,6.4835,6.5,6.6313,6.7028,6.721,6.721,6.7313,1.7302,0.0,0.0,1.7302,0.0,1.7302,1.7302,1.7302,0.0,0.0,0.0,0.0,0.0,0.0,0.0,0.0,0.0,0.0,0.0,0.0,0.0,0.0,0.0,0.0,0.0,0.0,0.0,0.0,0.0,0.0,0.0,0.0,0.0,0.0,0.0,0.0,3.2654,3.2667,3.2962,3.3535,3.3662,3.4296,3.546,3.6366,3.8443,4.1418,4.1762,4.2447,4.3309,4.3596,4.3769,4.391,4.4575,4.557,4.6869,4.8821,5.0241,5.1421,5.2976,5.3501,5.3501,5.3501,5.3501,5.3501,5.3501,5.3734,5.4091,5.4751,5.5159,5.5539,5.6166,5.6555,5.6771,5.6771,5.6997,5.7264,5.7534,5.8239,5.9115,6.0194,6.1043,6.1851,6.2664,6.2793,6.2793,6.2793,6.2793,6.2793,6.2793,6.2793,6.2793,6.2793,6.2793,6.2793,6.2793,6.2793,6.2793,6.2793,6.2793,6.2793,6.2793,6.2793,6.2994,6.3411,6.4563,6.5343,6.5728,6.6875,6.7451,6.7451,6.7451,6.7492,1.7302,0.0,1.7302,1.7302,1.7302,0.0,1.7302,1.7302,0.0,0.0,0.0,0.0,0.0,0.0,0.0,0.0,0.0,0.0,0.0,0.0,0.0,0.0,0.0,0.0,0.0,0.0,0.0,0.0,0.0,0.0,0.0,0.0,3.1153,3.1374,3.1108,3.1319,3.2043,3.2056,3.2571,3.3551,3.3738,3.4841,3.6685,3.6685,3.8404,4.1403,4.1403,4.2152,4.3384,4.3655,4.3871,4.4127,4.4955,4.5807,4.6886,4.9099,5.0393,5.1257,5.2909,5.3501,5.3501,5.3501,5.3501,5.3501,5.3501,5.3501,5.3635,5.4218,5.4407,5.4579,5.5337,5.5936,5.6325,5.6434,5.6837,5.7282,5.7498,5.8118,5.8939,6.0133,6.1159,6.2016,6.2683,6.2793,6.2793,6.2793,6.2793,6.2793,6.2793,6.2793,6.2793,6.2793,6.2793,6.2793,6.2793,6.2793,6.2793,6.2793,6.2793,6.2793,6.2793,6.2939,6.3429,6.4292,6.4971,6.5705,6.6494,6.7315,6.77,6.77,6.77,6.77,0.0,0.0,1.7302,0.0,1.7302,1.7302,0.0,0.0,0.0,0.0,0.0,0.0,0.0,0.0,0.0,0.0,0.0,0.0,0.0,0.0,0.0,0.0,0.0,0.0,0.0,0.0,0.0,0.0,0.0,0.0,0.0,3.0686,3.0638,3.0888,3.0572,0.0,3.1499,3.152,3.2002,3.3016,3.3879,3.4847,3.5856,3.5856,3.7892,4.1403,4.1403,4.2248,4.3655,4.3871,4.4085,4.4301,4.4591,4.5163,4.6108,4.8327,4.9607,5.0559,5.2741,5.3501,5.3501,5.3501,5.3501,5.3501,5.3501,5.3501,5.3635,5.4218,5.4407,5.467,5.5858,5.6243,5.6434,5.6972,5.7138,5.7226,5.7388,5.7601,5.8251,5.9914,6.1526,6.2664,6.2774,6.2793,6.2793,6.2793,6.2793,6.2793,6.2793,6.2793,6.2793,6.2793,6.2793,6.2793,6.2793,6.2793,6.2793,6.2793,6.2793,6.2793,6.2793,6.3521,6.431,6.5123,6.5251,6.5705,6.6494,6.7315,6.77,6.77,6.77,6.77,1.7085,1.7085,1.7106,0.0,1.7302,1.7302,1.7302,0.0,0.0,0.0,0.0,0.0,0.0,0.0,0.0,0.0,0.0,0.0,0.0,0.0,0.0,0.0,0.0,0.0,0.0,0.0,0.0,0.0,0.0,0.0,3.0052,3.0371,3.0473,3.029,3.0114,0.0,3.0947,3.0959,3.1597,3.29,3.3604,3.4556,3.5729,3.6162,3.7739,4.0125,4.0512,4.1604,4.3182,4.3758,4.4108,4.432,4.4515,4.5292,4.6535,4.8343,4.9728,5.0977,5.2859,5.3501,5.3501,5.3501,5.3501,5.3501,5.3501,5.3501,5.3568,5.3833,5.3898,5.4091,5.4991,5.5496,5.5925,5.6648,5.7005,5.7269,5.748,5.7565,5.8136,5.9969,6.1655,6.2793,6.2793,6.2793,6.2793,6.2793,6.2793,6.2793,6.2793,6.2793,6.2793,6.2793,6.2793,6.2793,6.2793,6.2793,6.2793,6.2793,6.2793,6.2793,6.2793,6.3631,6.4475,6.527,6.5729,6.6366,6.7168,6.7535,6.77,6.77,6.77,6.77,0.0,0.0,1.6954,1.715,1.7244,1.7302,0.0,0.0,0.0,0.0,0.0,0.0,0.0,0.0,0.0,0.0,0.0,0.0,0.0,0.0,0.0,0.0,0.0,0.0,0.0,0.0,0.0,0.0,0.0,0.0,2.9285,2.9936,3.0142,2.9785,2.9797,2.9993,3.0387,3.0631,3.1318,3.2477,3.3227,3.4163,3.5204,3.6152,3.7303,3.8616,3.993,4.1372,4.2837,4.3714,4.4185,4.4396,4.4549,4.5274,4.6465,4.8325,4.971,5.0911,5.2842,5.3501,5.3501,5.3501,5.3501,5.3501,5.3501,5.3501,5.3501,5.3501,5.3501,5.3685,5.4455,5.5004,5.5573,5.6506,5.7031,5.7369,5.7565,5.7789,5.8452,6.0078,6.1526,6.2554,6.2756,6.2793,6.2793,6.2793,6.2793,6.2793,6.2793,6.2793,6.2793,6.2793,6.2793,6.2793,6.2793,6.2793,6.2793,6.2793,6.2793,6.2793,6.2793,6.3833,6.4695,6.5288,6.6292,6.7113,6.77,6.77,6.77,6.77,6.77,6.77,0.0,1.6668,0.0,1.6917,1.7106,0.0,0.0,0.0,0.0,0.0,0.0,0.0,0.0,0.0,0.0,0.0,0.0,0.0,0.0,0.0,0.0,0.0,0.0,0.0,0.0,0.0,0.0,0.0,0.0,0.0,2.8866,2.9159,2.9326,2.9415,2.9663,2.9804,2.9829,3.0711,3.122,3.1304,3.2851,3.3641,3.3754,3.5123,3.6215,3.7187,4.0271,4.2142,4.3066,4.393,4.4416,4.4587,4.4606,4.4648,4.5051,4.793,4.9058,4.9537,5.247,5.3501,5.3501,5.3501,5.3501,5.3501,5.3501,5.3501,5.3501,5.3501,5.3501,5.3784,5.5029,5.542,5.5798,5.7063,5.7461,5.7589,5.7601,5.83,5.9225,6.02,6.108,6.1906,6.2664,6.2793,6.2793,6.2793,6.2793,6.2793,6.2793,6.2793,6.2793,6.2793,6.2793,6.2793,6.2793,6.2793,6.2793,6.2793,6.2793,6.2793,6.2793,6.4371,6.5251,6.5307,6.6843,6.7664,6.77,6.77,6.77,6.77,6.77,6.77,0.0,0.0,0.0,1.6851,1.7091,1.7302,0.0,0.0,0.0,0.0,0.0,0.0,0.0,0.0,0.0,0.0,0.0,0.0,0.0,0.0,0.0,0.0,0.0,0.0,0.0,0.0,0.0,0.0,0.0,0.0,2.7116,2.8438,2.9002,2.8578,2.9365,2.9869,2.9991,3.0458,3.092,3.1396,3.2098,3.2848,3.3641,3.4674,3.5843,3.7241,3.9941,4.1588,4.2458,4.3747,4.4416,4.4591,4.4591,4.4896,4.5549,4.7561,4.8899,5.0015,5.2034,5.3078,5.3501,5.3501,5.3501,5.3501,5.3501,5.3501,5.3501,5.3501,5.3551,5.3833,5.4724,5.5041,5.542,5.6652,5.7419,5.7827,5.7745,5.8396,5.9279,6.023,6.1043,6.1851,6.2664,6.2793,6.2793,6.2793,6.2793,6.2793,6.2793,6.2793,6.2793,6.2793,6.2793,6.2793,6.2793,6.2793,6.2793,6.2793,6.2793,6.2793,6.2793,6.4407,6.5307,6.5307,6.688,6.77,6.77,6.77,6.77,6.77,6.77,6.77,1.5731,0.0,0.0,0.0,0.0,1.7248,0.0,0.0,0.0,0.0,0.0,0.0,0.0,0.0,0.0,0.0,0.0,0.0,0.0,0.0,0.0,0.0,0.0,0.0,0.0,0.0,0.0,0.0,0.0,0.0,2.6464,2.7602,2.8236,2.8227,2.9248,2.9895,3.0094,3.0292,3.0682,3.1228,3.161,3.2326,3.3327,3.4647,3.5947,3.7352,4.0051,4.1547,4.222,4.3754,4.4492,4.4591,4.4591,4.4896,4.5536,4.7253,4.8671,4.9982,5.1698,5.2841,5.3501,5.3501,5.3501,5.3501,5.3501,5.3501,5.3501,5.3551,5.3634,5.3865,5.4584,5.5177,5.578,5.6634,5.7425,5.7973,5.7892,5.829,5.901,6.0175,6.0823,6.1539,6.2609,6.2793,6.2793,6.2793,6.2793,6.2793,6.2793,6.2793,6.2793,6.2793,6.2793,6.2793,6.2793,6.2793,6.2793,6.2793,6.2793,6.2921,6.3215,6.4554,6.5417,6.5705,6.7021,6.77,6.77,6.77,6.77,6.77,6.77,6.77,0.0,0.0,0.0,0.0,0.0,0.0,0.0,0.0,0.0,0.0,0.0,0.0,0.0,0.0,0.0,0.0,0.0,0.0,0.0,0.0,0.0,0.0,0.0,0.0,0.0,0.0,0.0,0.0,0.0,2.6104,2.6997,2.6637,2.7051,2.8471,2.9332,2.9901,3.0113,3.0292,3.0501,3.073,3.1434,3.2091,3.2745,3.5011,3.6452,3.7371,4.0569,4.2092,4.2435,4.3977,4.4591,4.4591,4.4591,4.4591,4.4861,4.7041,4.832,4.9316,5.148,5.279,5.3501,5.3501,5.3501,5.3501,5.3501,5.3501,5.3534,5.3667,5.3717,5.3914,5.4691,5.5883,5.6899,5.7053,5.7534,5.7985,5.7997,5.7997,5.8474,6.007,6.0382,6.0903,6.2481,6.2774,6.2793,6.2793,6.2793,6.2793,6.2793,6.2793,6.2793,6.2793,6.2793,6.2793,6.2793,6.2793,6.2793,6.2793,6.2774,6.3172,6.4066,6.4861,6.5637,6.6476,6.7297,6.77,6.77,6.77,6.77,6.77,6.77,6.77,1.541,0.0,0.0,0.0,0.0,0.0,0.0,0.0,0.0,0.0,0.0,0.0,0.0,0.0,0.0,0.0,0.0,0.0,0.0,0.0,0.0,0.0,0.0,0.0,0.0,0.0,0.0,0.0,2.5693,2.5754,2.5846,2.6377,2.7367,2.8885,2.9169,2.9626,3.0324,3.0368,3.0577,3.0911,3.1124,3.1503,3.2097,3.3455,3.5082,3.6978,3.9571,4.1384,4.2629,4.4029,4.4591,4.4591,4.4591,4.4591,4.4739,4.59,4.7453,4.9164,5.0304,5.1934,5.3501,5.3501,5.3501,5.3501,5.3501,5.3568,5.3651,5.3701,5.3865,5.4142,5.4509,5.5209,5.5925,5.6412,5.6951,5.7474,5.7909,5.7997,5.8309,5.9325,6.0003,6.0731,6.1759,6.2407,6.2793,6.2793,6.2793,6.2793,6.2793,6.2793,6.2793,6.2793,6.2793,6.2793,6.2793,6.2793,6.2793,6.2793,6.2254,6.2585,6.4047,6.431,6.5081,6.6476,6.7297,6.77,6.77,6.77,6.77,6.77,6.77,6.77,0.0,0.0,0.0,0.0,0.0,0.0,1.8442,1.9109,0.0,0.0,0.0,0.0,0.0,0.0,0.0,0.0,0.0,0.0,0.0,0.0,0.0,0.0,0.0,0.0,0.0,0.0,0.0,0.0,2.5162,2.5187,2.5305,2.6438,2.7459,2.8282,2.9059,2.9683,3.0094,3.0528,3.081,3.1005,3.1005,3.1382,3.2086,3.3035,3.488,3.7433,3.9448,4.1353,4.3096,4.4162,4.4591,4.4591,4.4591,4.4591,4.4685,4.5421,4.7113,4.9112,4.9832,5.158,5.3501,5.3501,5.3501,5.3517,5.3568,5.3651,5.3734,5.3865,5.411,5.4415,5.4772,5.5328,5.5929,5.6488,5.7065,5.7558,5.792,5.7997,5.8235,5.9049,5.9857,6.0658,6.1459,6.2273,6.2793,6.2793,6.2793,6.2793,6.2793,6.2793,6.2793,6.2793,6.2793,6.2793,6.2793,6.2793,6.2793,6.2793,6.2034,6.2493,6.4512,6.4286,6.502,6.6966,6.7462,6.77,6.77,6.77,6.77,6.77,6.77,6.77,0.0,0.0,0.0,0.0,0.0,0.0,1.8842,1.9355,1.9806,0.0,0.0,0.0,0.0,0.0,0.0,0.0,0.0,0.0,0.0,0.0,0.0,0.0,0.0,0.0,0.0,0.0,2.4104,2.4368,2.4424,2.4697,2.5249,2.6595,2.7345,2.7292,2.8909,2.9774,2.9792,3.063,3.1042,3.1097,3.1031,3.1474,3.2347,3.3224,3.5277,3.82,3.9762,4.1645,4.3651,4.4326,4.4591,4.4591,4.4591,4.4591,4.4685,4.5421,4.7065,4.8998,4.9816,5.153,5.3382,5.3467,5.3517,5.3534,5.3667,5.3734,5.3816,5.4126,5.4415,5.4728,5.5254,5.5844,5.6438,5.6958,5.751,5.7909,5.7985,5.7997,5.8217,5.8939,5.9783,6.0639,6.1337,6.2218,6.2793,6.2793,6.2793,6.2793,6.2793,6.2793,6.2793,6.2793,6.2793,6.2793,6.2793,6.2793,6.2793,6.2793,6.1961,6.2622,6.5196,6.4439,6.5149,6.7645,6.77,6.77,6.77,6.77,6.77,6.77,6.77,6.77,0.0,0.0,0.0,0.0,0.0,0.0,1.9049,1.9671,2.0201,0.0,0.0,0.0,0.0,0.0,0.0,0.0,0.0,0.0,0.0,0.0,0.0,0.0,0.0,0.0,0.0,0.0,2.4104,2.4368,2.4608,2.4997,2.5658,2.6179,2.6863,2.7737,2.8131,2.8989,3.0404,3.0138,3.0549,3.1628,3.1209,3.1264,3.1779,3.2764,3.4798,3.7639,3.931,4.1376,4.3644,4.432,4.4591,4.4591,4.4591,4.4591,4.4685,4.5421,4.6727,4.8298,4.9634,5.1162,5.2638,5.3298,5.3568,5.3667,5.3684,5.3881,5.4142,5.4367,5.4819,5.5254,5.5373,5.5844,5.6438,5.6958,5.7191,5.7407,5.7897,5.7997,5.8052,5.8198,5.941,6.0456,6.0621,6.1838,6.2793,6.2793,6.2793,6.2793,6.2793,6.2793,6.2793,6.2793,6.2793,6.2793,6.2793,6.2793,6.2793,6.2793,6.1447,6.204,6.516,6.3839,6.453,6.7645,6.77,6.77,6.77,6.77,6.77,6.77,6.77,6.77,0.0,0.0,0.0,1.729,0.0,0.0,0.0,1.9774,2.0337,2.0473,0.0,0.0,0.0,0.0,0.0,0.0,0.0,0.0,0.0,0.0,0.0,0.0,0.0,0.0,0.0,0.0,2.3622,2.3734,2.4188,2.4655,2.5136,2.5833,2.6509,2.7216,2.8175,2.9037,2.9755,3.0553,3.1065,3.1286,3.1574,3.1742,3.1868,3.2582,3.4487,3.7309,3.8466,4.0546,4.3201,4.3844,4.4305,4.4591,4.4591,4.4591,4.4685,4.5421,4.6632,4.8054,4.9172,5.076,5.2384,5.289,5.3346,5.3733,5.3898,5.4143,5.4431,5.4834,5.5182,5.5531,5.6107,5.6474,5.683,5.7407,5.7546,5.7637,5.792,5.7997,5.7997,5.7997,5.8988,5.993,6.0334,6.141,6.2334,6.2738,6.2793,6.2793,6.2793,6.2793,6.2793,6.2793,6.2793,6.2793,6.2793,6.2793,6.2627,6.2236,6.108,6.1318,6.3374,6.3031,6.4347,6.7645,6.77,6.77,6.77,6.77,6.77,6.77,6.77,6.77,0.0,0.0,0.0,0.0,0.0,1.9217,0.0,0.0,0.0,2.0631,0.0,0.0,0.0,0.0,0.0,0.0,0.0,0.0,0.0,0.0,0.0,0.0,0.0,0.0,0.0,0.0,2.3091,2.3091,2.3678,2.4182,2.4482,2.5544,2.6277,2.6592,2.831,2.9181,2.9071,3.0963,3.1647,3.1139,3.1992,3.2356,3.2272,3.258,3.4317,3.7126,3.7726,3.9788,4.2753,4.3359,4.401,4.4591,4.4591,4.4591,4.4685,4.5421,4.6534,4.7809,4.8693,5.0292,5.201,5.2445,5.3138,5.3849,5.4158,5.4367,5.4636,5.5224,5.5487,5.5816,5.683,5.7179,5.7395,5.7886,5.7997,5.8008,5.8031,5.802,5.8008,5.8031,5.854,5.9269,6.0236,6.1062,6.1869,6.2683,6.2793,6.2793,6.2793,6.2793,6.2793,6.2793,6.2793,6.2793,6.2793,6.2793,6.2462,6.1649,6.0841,6.0768,6.1569,6.2677,6.4677,6.7645,6.77,6.77,6.77,6.77,6.77,6.77,6.77,6.77,0.0,0.0,0.0,0.0,1.8832,0.0,0.0,0.0,2.0382,2.0631,0.0,0.0,0.0,0.0,0.0,0.0,0.0,0.0,0.0,0.0,0.0,0.0,0.0,0.0,0.0,0.0,0.0,2.3091,2.3555,2.4026,2.4472,2.5419,2.6144,2.6581,2.7613,2.8656,2.9693,3.0491,3.1344,3.2299,3.2371,3.257,3.2901,3.2772,3.4317,3.7134,3.767,3.9731,4.2746,4.3349,4.3996,4.4591,4.4591,4.4591,4.4685,4.5421,4.6213,4.7125,4.8529,4.9704,5.083,5.2171,5.3301,5.4174,5.4399,5.448,5.4636,5.5224,5.5787,5.6344,5.6933,5.7498,5.7909,5.7985,5.7997,5.8031,5.8152,5.8077,5.8031,5.8145,5.8169,5.8621,6.0144,6.1062,6.1869,6.2683,6.2793,6.2793,6.2793,6.2793,6.2793,6.2793,6.2793,6.2793,6.2793,6.2793,6.2462,6.1649,6.0841,6.0768,6.1569,6.3815,6.587,6.7664,6.77,6.77,6.77,6.77,6.77,6.77,6.77,6.77,0.0,0.0,0.0,0.0,0.0,0.0,0.0,0.0,2.0382,0.0,0.0,0.0,0.0,0.0,0.0,0.0,0.0,0.0,0.0,0.0,0.0,0.0,0.0,0.0,0.0,0.0,0.0,0.0,0.0,2.3878,2.409,2.4989,2.5709,2.6177,2.7407,2.8405,2.9153,3.0423,3.1466,3.2277,3.2873,3.3208,3.3349,3.3498,3.445,3.6047,3.6979,3.8763,4.1121,4.247,4.3407,4.4052,4.4452,4.4591,4.4727,4.5913,4.6534,4.7015,4.8575,4.9682,5.0687,5.2359,5.3266,5.3833,5.4342,5.4496,5.4697,5.5661,5.6111,5.6506,5.7401,5.7809,5.7997,5.7997,5.8054,5.8141,5.8186,5.8163,5.8141,5.8186,5.8088,5.8387,5.9607,6.0412,6.1172,6.1979,6.2499,6.2793,6.2793,6.2793,6.2793,6.2793,6.2793,6.2793,6.2793,6.2793,6.226,6.0988,5.9703,5.9997,6.2218,6.3288,6.5063,6.7645,6.77,6.77,6.77,6.77,6.77,6.77,6.77,6.77,1.8089,0.0,0.0,0.0,0.0,0.0,0.0,0.0,0.0,0.0,0.0,0.0,0.0,0.0,0.0,0.0,0.0,0.0,0.0,0.0,0.0,0.0,0.0,0.0,0.0,0.0,0.0,0.0,2.358,0.0,2.3916,2.4734,2.5408,2.5887,2.7323,2.8289,2.8701,3.0431,3.1651,3.2353,3.3264,3.3757,3.385,3.4078,3.4576,3.5254,3.6288,3.7907,3.9923,4.1456,4.2678,4.3655,4.4129,4.4553,4.503,4.6094,4.664,4.7053,4.8432,4.963,5.0758,5.2113,5.2936,5.3525,5.4212,5.457,5.4985,5.6176,5.6532,5.6757,5.7738,5.7997,5.7997,5.7997,5.8099,5.8208,5.8242,5.8253,5.8253,5.8253,5.8174,5.8306,5.8952,5.9839,6.0748,6.1581,6.2365,6.2842,6.2842,6.2818,6.2793,6.2793,6.2793,6.2793,6.2793,6.2793,6.2114,6.0499,5.8896,5.9336,6.2352,6.2683,6.4237,6.7315,6.759,6.77,6.77,6.77,6.77,6.77,6.77,6.77,0.0,0.0,0.0,1.9589,0.0,0.0,0.0,0.0,2.0382,0.0,0.0,0.0,0.0,0.0,0.0,0.0,0.0,0.0,0.0,0.0,0.0,0.0,0.0,0.0,0.0,0.0,0.0,2.346,2.3667,0.0,2.4175,2.4832,2.5408,2.5887,2.7323,2.8289,2.8701,3.0431,3.1855,3.2977,3.3472,3.3971,3.4461,3.4287,3.4576,3.5226,3.5801,3.747,3.9849,4.0501,4.1879,4.3608,4.3624,4.4473,4.566,4.5715,4.6274,4.7105,4.7868,4.9329,5.0907,5.1107,5.2168,5.3497,5.404,5.4741,5.5601,5.6752,5.706,5.7216,5.7851,5.7997,5.7997,5.7997,5.8099,5.8231,5.836,5.8393,5.8393,5.8393,5.8393,5.8349,5.8256,5.9552,6.0913,6.1837,6.2559,6.3002,6.3002,6.288,6.2793,6.2793,6.2793,6.2793,6.2793,6.2793,6.2114,6.0499,5.8896,5.9079,6.1539,6.2389,6.3967,6.6494,6.7297,6.77,6.77,6.77,6.77,6.77,6.77,6.77,0.0,0.0,1.9972,2.0078,0.0,0.0,0.0,0.0,0.0,0.0,0.0,0.0,0.0,0.0,0.0,0.0,0.0,0.0,0.0,0.0,0.0,0.0,0.0,0.0,0.0,0.0,0.0,2.3482,2.3699,2.3905,0.0,2.4544,2.5083,2.5884,2.7028,2.7976,2.8687,2.9953,3.1226,3.2562,3.3275,3.3969,3.4642,3.478,3.5199,3.5784,3.5941,3.719,3.9225,4.0261,4.1313,4.2358,4.3251,4.4252,4.5282,4.6222,4.7054,4.7868,4.8823,4.9654,5.0386,5.0929,5.1691,5.2628,5.3835,5.467,5.5466,5.6737,5.7103,5.7228,5.7832,5.7997,5.802,5.8099,5.8231,5.8371,5.8443,5.8465,5.8465,5.8465,5.8429,5.8404,5.84,5.9335,6.0322,6.1101,6.1837,6.2497,6.2941,6.2966,6.2904,6.2805,6.2793,6.2793,6.2793,6.182,6.0756,5.9673,5.8602,5.9079,6.1496,6.1851,6.3411,6.6439,6.6769,6.7168,6.77,6.77,6.77,6.77,6.77,6.77,1.9669,2.0056,0.0,0.0,2.0292,0.0,2.0428,0.0,0.0,0.0,0.0,0.0,0.0,0.0,0.0,0.0,0.0,0.0,0.0,0.0,0.0,0.0,0.0,0.0,0.0,0.0,2.3244,2.358,2.3732,2.3949,0.0,0.0,2.4941,2.587,2.6693,2.7624,2.8701,2.9522,3.0903,3.2766,3.3339,3.4157,3.5195,3.5194,3.5541,3.6094,3.5835,3.6888,3.8848,3.9697,4.0661,4.1696,4.2672,4.3983,4.5436,4.6591,4.7721,4.8776,4.9528,4.9889,5.008,5.0548,5.1263,5.2186,5.3682,5.4714,5.568,5.7085,5.7498,5.7594,5.8031,5.8133,5.8163,5.8242,5.8353,5.8451,5.8489,5.8532,5.8553,5.8511,5.8497,5.8505,5.85,5.9006,5.9655,6.0374,6.1402,6.2232,6.2649,6.2879,6.2966,6.288,6.283,6.2683,6.2401,6.1159,6.0059,5.9251,5.8425,5.8822,6.0676,6.13,6.2879,6.5595,6.62,6.6898,6.77,6.77,6.77,6.77,6.77,6.77]}]]